Wetterdaten: Samstag, 17.02.2024
Datum Zeit Temp. I. Temp. A. Feuchte I. Feuchte A. Luftdruck Regen Wind Richtung Richtung Sonnenschein Solar Taupunkt Windchill Windböen
17.02.2024 00:00 21,3 °C 11,8 °C 57 % 93 % 1019,9 hPa 0,0 l/m² 3,1 km/h (1 Bft) W-NW 285 ° 0 min 0 W/m² 10,7 °C 11,8 °C 6,4 km/h (2 Bft)
17.02.2024 00:01 21,3 °C 11,8 °C 57 % 93 % 1020,0 hPa 0,0 l/m² 2,6 km/h (1 Bft) W-NW 285 ° 0 min 0 W/m² 10,7 °C 11,8 °C 3,2 km/h (1 Bft)
17.02.2024 00:02 21,3 °C 11,8 °C 57 % 93 % 1020,0 hPa 0,0 l/m² 2,5 km/h (1 Bft) W-NW 285 ° 0 min 0 W/m² 10,7 °C 11,8 °C 4,8 km/h (1 Bft)
17.02.2024 00:03 21,3 °C 11,7 °C 57 % 93 % 1020,0 hPa 0,0 l/m² 0,7 km/h (0 Bft) W-NW 285 ° 0 min 0 W/m² 10,6 °C 11,7 °C 3,2 km/h (1 Bft)
17.02.2024 00:04 21,3 °C 11,8 °C 57 % 93 % 1020,1 hPa 0,0 l/m² 0,2 km/h (0 Bft) W-NW 285 ° 0 min 0 W/m² 10,7 °C 11,8 °C 3,2 km/h (1 Bft)
17.02.2024 00:05 21,3 °C 11,7 °C 57 % 93 % 1020,0 hPa 0,0 l/m² 0,7 km/h (0 Bft) W-NW 285 ° 0 min 0 W/m² 10,6 °C 11,7 °C 3,2 km/h (1 Bft)
17.02.2024 00:07 21,3 °C 11,7 °C 57 % 93 % 1020,0 hPa 0,2 l/m² 1,3 km/h (1 Bft) W-NW 285 ° 0 min 0 W/m² 10,6 °C 11,7 °C 4,8 km/h (1 Bft)
17.02.2024 00:09 21,3 °C 11,7 °C 57 % 93 % 1020,0 hPa 0,0 l/m² 2,2 km/h (1 Bft) W-NW 285 ° 0 min 0 W/m² 10,6 °C 11,7 °C 6,4 km/h (2 Bft)
17.02.2024 00:10 21,3 °C 11,7 °C 57 % 93 % 1020,1 hPa 0,0 l/m² 4,3 km/h (1 Bft) W-NW 284 ° 0 min 0 W/m² 10,6 °C 11,7 °C 8,0 km/h (2 Bft)
17.02.2024 00:12 21,3 °C 11,7 °C 57 % 93 % 1020,2 hPa 0,0 l/m² 1,1 km/h (1 Bft) W-NW 284 ° 0 min 0 W/m² 10,6 °C 11,7 °C 4,8 km/h (1 Bft)
17.02.2024 00:13 21,3 °C 11,7 °C 57 % 93 % 1020,1 hPa 0,0 l/m² 1,8 km/h (1 Bft) W 278 ° 0 min 0 W/m² 10,6 °C 11,7 °C 11,3 km/h (2 Bft)
17.02.2024 00:15 21,3 °C 11,7 °C 57 % 93 % 1020,1 hPa 0,0 l/m² 4,9 km/h (1 Bft) W 278 ° 0 min 0 W/m² 10,6 °C 11,7 °C 12,9 km/h (3 Bft)
17.02.2024 00:16 21,3 °C 11,7 °C 57 % 93 % 1020,2 hPa 0,0 l/m² 1,5 km/h (1 Bft) W 279 ° 0 min 0 W/m² 10,6 °C 11,7 °C 3,2 km/h (1 Bft)
17.02.2024 00:17 21,3 °C 11,7 °C 57 % 93 % 1020,4 hPa 0,2 l/m² 1,9 km/h (1 Bft) W 281 ° 0 min 0 W/m² 10,6 °C 11,7 °C 4,8 km/h (1 Bft)
17.02.2024 00:18 21,2 °C 11,7 °C 57 % 93 % 1020,2 hPa 0,0 l/m² 4,3 km/h (1 Bft) W-NW 296 ° 0 min 0 W/m² 10,6 °C 11,7 °C 11,3 km/h (2 Bft)
17.02.2024 00:20 21,3 °C 11,6 °C 57 % 93 % 1020,3 hPa 0,0 l/m² 2,2 km/h (1 Bft) W-NW 290 ° 0 min 0 W/m² 10,5 °C 11,6 °C 4,8 km/h (1 Bft)
17.02.2024 00:21 21,3 °C 11,6 °C 57 % 93 % 1020,4 hPa 0,0 l/m² 8,0 km/h (2 Bft) W-NW 282 ° 0 min 0 W/m² 10,5 °C 10,5 °C 12,9 km/h (3 Bft)
17.02.2024 00:22 21,2 °C 11,6 °C 57 % 93 % 1020,4 hPa 0,0 l/m² 10,1 km/h (2 Bft) W 269 ° 0 min 0 W/m² 10,5 °C 9,3 °C 14,5 km/h (3 Bft)
17.02.2024 00:23 21,2 °C 11,6 °C 57 % 93 % 1020,4 hPa 0,0 l/m² 11,4 km/h (2 Bft) W 281 ° 0 min 0 W/m² 10,5 °C 8,6 °C 16,1 km/h (3 Bft)
17.02.2024 00:25 21,3 °C 11,6 °C 58 % 93 % 1020,5 hPa 0,0 l/m² 13,0 km/h (3 Bft) W 267 ° 0 min 0 W/m² 10,5 °C 7,9 °C 17,7 km/h (3 Bft)
17.02.2024 00:27 21,2 °C 11,5 °C 58 % 93 % 1020,5 hPa 0,0 l/m² 10,1 km/h (2 Bft) W 279 ° 0 min 0 W/m² 10,4 °C 9,2 °C 16,1 km/h (3 Bft)
17.02.2024 00:28 21,3 °C 11,4 °C 57 % 93 % 1020,6 hPa 0,0 l/m² 9,7 km/h (2 Bft) NW 315 ° 0 min 0 W/m² 10,3 °C 9,3 °C 17,7 km/h (3 Bft)
17.02.2024 00:30 21,2 °C 11,4 °C 58 % 93 % 1020,6 hPa 0,2 l/m² 11,0 km/h (2 Bft) W-NW 288 ° 0 min 0 W/m² 10,3 °C 8,6 °C 17,7 km/h (3 Bft)
17.02.2024 00:31 21,2 °C 11,4 °C 57 % 93 % 1020,6 hPa 0,0 l/m² 12,2 km/h (2 Bft) W-NW 290 ° 0 min 0 W/m² 10,3 °C 8,0 °C 17,7 km/h (3 Bft)
17.02.2024 00:32 21,2 °C 11,3 °C 58 % 93 % 1020,6 hPa 0,0 l/m² 11,2 km/h (2 Bft) W-NW 286 ° 0 min 0 W/m² 10,2 °C 8,4 °C 14,5 km/h (3 Bft)
17.02.2024 00:33 21,2 °C 11,3 °C 58 % 93 % 1020,6 hPa 0,0 l/m² 10,8 km/h (2 Bft) W-NW 302 ° 0 min 0 W/m² 10,2 °C 8,6 °C 16,1 km/h (3 Bft)
17.02.2024 00:35 21,2 °C 11,3 °C 58 % 93 % 1020,5 hPa 0,0 l/m² 9,6 km/h (2 Bft) W 275 ° 0 min 0 W/m² 10,2 °C 9,3 °C 16,1 km/h (3 Bft)
17.02.2024 00:36 21,3 °C 11,3 °C 58 % 93 % 1020,6 hPa 0,2 l/m² 8,3 km/h (2 Bft) W 281 ° 0 min 0 W/m² 10,2 °C 10,0 °C 16,1 km/h (3 Bft)
17.02.2024 00:38 21,2 °C 11,2 °C 58 % 93 % 1020,6 hPa 0,0 l/m² 9,7 km/h (2 Bft) NW 304 ° 0 min 0 W/m² 10,1 °C 9,1 °C 16,1 km/h (3 Bft)
17.02.2024 00:40 21,2 °C 11,2 °C 58 % 93 % 1020,6 hPa 0,0 l/m² 7,6 km/h (2 Bft) W-NW 285 ° 0 min 0 W/m² 10,1 °C 10,4 °C 14,5 km/h (3 Bft)
17.02.2024 00:41 21,2 °C 11,2 °C 57 % 93 % 1020,6 hPa 0,0 l/m² 1,9 km/h (1 Bft) NW 304 ° 0 min 0 W/m² 10,1 °C 11,2 °C 8,0 km/h (2 Bft)
17.02.2024 00:42 21,2 °C 11,2 °C 57 % 93 % 1020,6 hPa 0,0 l/m² 10,2 km/h (2 Bft) NW 323 ° 0 min 0 W/m² 10,1 °C 8,8 °C 17,7 km/h (3 Bft)
17.02.2024 00:43 21,2 °C 11,2 °C 57 % 93 % 1020,6 hPa 0,0 l/m² 5,7 km/h (2 Bft) W-NW 294 ° 0 min 0 W/m² 10,1 °C 11,2 °C 11,3 km/h (2 Bft)
17.02.2024 00:46 21,2 °C 11,1 °C 58 % 93 % 1020,6 hPa 0,0 l/m² 3,6 km/h (1 Bft) W 281 ° 0 min 0 W/m² 10,0 °C 11,1 °C 8,0 km/h (2 Bft)
17.02.2024 00:48 21,2 °C 11,1 °C 58 % 93 % 1020,7 hPa 0,0 l/m² 6,9 km/h (2 Bft) W 273 ° 0 min 0 W/m² 10,0 °C 10,8 °C 11,3 km/h (2 Bft)
17.02.2024 00:50 21,2 °C 11,1 °C 58 % 93 % 1020,7 hPa 0,0 l/m² 6,5 km/h (2 Bft) W 280 ° 0 min 0 W/m² 10,0 °C 11,1 °C 12,9 km/h (3 Bft)
17.02.2024 00:51 21,2 °C 11,1 °C 58 % 93 % 1020,8 hPa 0,0 l/m² 7,9 km/h (2 Bft) W-NW 284 ° 0 min 0 W/m² 10,0 °C 10,1 °C 12,9 km/h (3 Bft)
17.02.2024 00:52 21,2 °C 11,1 °C 58 % 93 % 1020,8 hPa 0,0 l/m² 8,1 km/h (2 Bft) W 271 ° 0 min 0 W/m² 10,0 °C 9,9 °C 11,3 km/h (2 Bft)
17.02.2024 00:53 21,2 °C 11,1 °C 58 % 93 % 1020,8 hPa 0,2 l/m² 9,9 km/h (2 Bft) W 280 ° 0 min 0 W/m² 10,0 °C 8,9 °C 14,5 km/h (3 Bft)
17.02.2024 00:55 21,2 °C 11,1 °C 58 % 93 % 1020,9 hPa 0,0 l/m² 7,9 km/h (2 Bft) W 279 ° 0 min 0 W/m² 10,0 °C 10,1 °C 12,9 km/h (3 Bft)
17.02.2024 00:56 21,2 °C 11,1 °C 58 % 93 % 1020,9 hPa 0,0 l/m² 7,5 km/h (2 Bft) W 275 ° 0 min 0 W/m² 10,0 °C 10,3 °C 12,9 km/h (3 Bft)
17.02.2024 00:58 21,2 °C 11,0 °C 58 % 93 % 1020,9 hPa 0,0 l/m² 8,6 km/h (2 Bft) W 275 ° 0 min 0 W/m² 9,9 °C 9,5 °C 12,9 km/h (3 Bft)
17.02.2024 01:00 21,2 °C 11,0 °C 58 % 93 % 1020,9 hPa 0,0 l/m² 8,9 km/h (2 Bft) W 279 ° 0 min 0 W/m² 9,9 °C 9,3 °C 11,3 km/h (2 Bft)
17.02.2024 01:01 21,2 °C 11,0 °C 58 % 93 % 1020,9 hPa 0,0 l/m² 7,1 km/h (2 Bft) W 273 ° 0 min 0 W/m² 9,9 °C 10,5 °C 12,9 km/h (3 Bft)
17.02.2024 01:02 21,2 °C 10,9 °C 58 % 93 % 1020,9 hPa 0,0 l/m² 8,0 km/h (2 Bft) W 280 ° 0 min 0 W/m² 9,8 °C 9,8 °C 14,5 km/h (3 Bft)
17.02.2024 01:03 21,2 °C 10,9 °C 58 % 93 % 1020,9 hPa 0,0 l/m² 5,8 km/h (2 Bft) W 280 ° 0 min 0 W/m² 9,8 °C 10,9 °C 11,3 km/h (2 Bft)
17.02.2024 01:05 21,2 °C 10,9 °C 58 % 93 % 1021,0 hPa 0,0 l/m² 5,8 km/h (2 Bft) W-NW 284 ° 0 min 0 W/m² 9,8 °C 10,9 °C 11,3 km/h (2 Bft)
17.02.2024 01:07 21,2 °C 10,9 °C 58 % 93 % 1021,0 hPa 0,0 l/m² 3,6 km/h (1 Bft) W-NW 284 ° 0 min 0 W/m² 9,8 °C 10,9 °C 6,4 km/h (2 Bft)
17.02.2024 01:09 21,2 °C 10,9 °C 58 % 93 % 1021,0 hPa 0,0 l/m² 2,2 km/h (1 Bft) W-NW 284 ° 0 min 0 W/m² 9,8 °C 10,9 °C 4,8 km/h (1 Bft)
17.02.2024 01:11 21,2 °C 10,9 °C 58 % 93 % 1020,9 hPa 0,0 l/m² 4,1 km/h (1 Bft) W 281 ° 0 min 0 W/m² 9,8 °C 10,9 °C 9,7 km/h (2 Bft)
17.02.2024 01:12 21,2 °C 10,9 °C 58 % 93 % 1020,9 hPa 0,0 l/m² 3,5 km/h (1 Bft) W-NW 286 ° 0 min 0 W/m² 9,8 °C 10,9 °C 9,7 km/h (2 Bft)
17.02.2024 01:13 21,2 °C 10,9 °C 58 % 93 % 1020,9 hPa 0,0 l/m² 5,2 km/h (1 Bft) W-NW 286 ° 0 min 0 W/m² 9,8 °C 10,9 °C 8,0 km/h (2 Bft)
17.02.2024 01:14 21,2 °C 10,9 °C 58 % 93 % 1021,0 hPa 0,0 l/m² 0,3 km/h (0 Bft) W-NW 286 ° 0 min 0 W/m² 9,8 °C 10,9 °C 3,2 km/h (1 Bft)
17.02.2024 01:16 21,2 °C 10,9 °C 58 % 93 % 1020,9 hPa 0,0 l/m² 2,8 km/h (1 Bft) W-NW 298 ° 0 min 0 W/m² 9,8 °C 10,9 °C 9,7 km/h (2 Bft)
17.02.2024 01:18 21,2 °C 10,8 °C 58 % 93 % 1021,0 hPa 0,0 l/m² 2,5 km/h (1 Bft) W-NW 293 ° 0 min 0 W/m² 9,7 °C 10,8 °C 8,0 km/h (2 Bft)
17.02.2024 01:20 21,2 °C 10,8 °C 58 % 93 % 1021,0 hPa 0,2 l/m² 2,6 km/h (1 Bft) W-NW 288 ° 0 min 0 W/m² 9,7 °C 10,8 °C 9,7 km/h (2 Bft)
17.02.2024 01:21 21,2 °C 10,8 °C 58 % 93 % 1021,0 hPa 0,0 l/m² 3,2 km/h (1 Bft) W-NW 285 ° 0 min 0 W/m² 9,7 °C 10,8 °C 6,4 km/h (2 Bft)
17.02.2024 01:23 21,2 °C 10,8 °C 58 % 93 % 1021,0 hPa 0,0 l/m² 4,5 km/h (1 Bft) W-NW 295 ° 0 min 0 W/m² 9,7 °C 10,8 °C 11,3 km/h (2 Bft)
17.02.2024 01:24 21,2 °C 10,8 °C 58 % 93 % 1021,0 hPa 0,0 l/m² 6,0 km/h (2 Bft) W-NW 286 ° 0 min 0 W/m² 9,7 °C 10,8 °C 11,3 km/h (2 Bft)
17.02.2024 01:26 21,2 °C 10,8 °C 58 % 93 % 1021,0 hPa 0,0 l/m² 2,1 km/h (1 Bft) W-NW 285 ° 0 min 0 W/m² 9,7 °C 10,8 °C 6,4 km/h (2 Bft)
17.02.2024 01:28 21,2 °C 10,8 °C 58 % 93 % 1021,0 hPa 0,0 l/m² 4,4 km/h (1 Bft) W-NW 301 ° 0 min 0 W/m² 9,7 °C 10,8 °C 9,7 km/h (2 Bft)
17.02.2024 01:30 21,2 °C 10,7 °C 58 % 93 % 1021,0 hPa 0,0 l/m² 3,0 km/h (1 Bft) W 278 ° 0 min 0 W/m² 9,6 °C 10,7 °C 9,7 km/h (2 Bft)
17.02.2024 01:31 21,2 °C 10,7 °C 58 % 93 % 1021,1 hPa 0,0 l/m² 3,2 km/h (1 Bft) W-NW 290 ° 0 min 0 W/m² 9,6 °C 10,7 °C 6,4 km/h (2 Bft)
17.02.2024 01:33 21,2 °C 10,7 °C 58 % 93 % 1021,1 hPa 0,0 l/m² 3,5 km/h (1 Bft) W 280 ° 0 min 0 W/m² 9,6 °C 10,7 °C 12,9 km/h (3 Bft)
17.02.2024 01:35 21,2 °C 10,7 °C 58 % 93 % 1021,2 hPa 0,0 l/m² 2,1 km/h (1 Bft) W-NW 288 ° 0 min 0 W/m² 9,6 °C 10,7 °C 12,9 km/h (3 Bft)
17.02.2024 01:37 21,2 °C 10,7 °C 58 % 93 % 1021,2 hPa 0,0 l/m² 0,3 km/h (0 Bft) W-NW 288 ° 0 min 0 W/m² 9,6 °C 10,7 °C 4,8 km/h (1 Bft)
17.02.2024 01:39 21,2 °C 10,7 °C 58 % 93 % 1021,2 hPa 0,0 l/m² 0,7 km/h (0 Bft) W-NW 290 ° 0 min 0 W/m² 9,6 °C 10,7 °C 6,4 km/h (2 Bft)
17.02.2024 01:40 21,2 °C 10,7 °C 58 % 93 % 1021,3 hPa 0,0 l/m² 2,9 km/h (1 Bft) W-NW 288 ° 0 min 0 W/m² 9,6 °C 10,7 °C 6,4 km/h (2 Bft)
17.02.2024 01:42 21,2 °C 10,7 °C 58 % 93 % 1021,3 hPa 0,0 l/m² 3,8 km/h (1 Bft) W-NW 296 ° 0 min 0 W/m² 9,6 °C 10,7 °C 6,4 km/h (2 Bft)
17.02.2024 01:44 21,2 °C 10,7 °C 58 % 93 % 1021,3 hPa 0,0 l/m² 2,3 km/h (1 Bft) W-NW 292 ° 0 min 0 W/m² 9,6 °C 10,7 °C 8,0 km/h (2 Bft)
17.02.2024 01:45 21,2 °C 10,7 °C 58 % 93 % 1021,2 hPa 0,0 l/m² 0,5 km/h (0 Bft) W-NW 287 ° 0 min 0 W/m² 9,6 °C 10,7 °C 4,8 km/h (1 Bft)
17.02.2024 01:47 21,2 °C 10,7 °C 58 % 93 % 1021,4 hPa 0,0 l/m² 1,0 km/h (0 Bft) W-NW 287 ° 0 min 0 W/m² 9,6 °C 10,7 °C 6,4 km/h (2 Bft)
17.02.2024 01:49 21,2 °C 10,7 °C 58 % 93 % 1021,3 hPa 0,0 l/m² 1,1 km/h (1 Bft) W-NW 296 ° 0 min 0 W/m² 9,6 °C 10,7 °C 4,8 km/h (1 Bft)
17.02.2024 01:51 21,2 °C 10,6 °C 58 % 93 % 1021,3 hPa 0,0 l/m² 1,2 km/h (1 Bft) W-NW 301 ° 0 min 0 W/m² 9,5 °C 10,6 °C 6,4 km/h (2 Bft)
17.02.2024 01:53 21,2 °C 10,6 °C 58 % 93 % 1021,4 hPa 0,0 l/m² 0,7 km/h (0 Bft) W-NW 300 ° 0 min 0 W/m² 9,5 °C 10,6 °C 3,2 km/h (1 Bft)
17.02.2024 01:55 21,2 °C 10,6 °C 58 % 93 % 1021,4 hPa 0,0 l/m² 0,0 km/h (0 Bft) W-NW 300 ° 0 min 0 W/m² 9,5 °C 10,6 °C 1,6 km/h (1 Bft)
17.02.2024 01:57 21,2 °C 10,6 °C 58 % 93 % 1021,4 hPa 0,0 l/m² 1,3 km/h (1 Bft) W-NW 300 ° 0 min 0 W/m² 9,5 °C 10,6 °C 4,8 km/h (1 Bft)
17.02.2024 01:59 21,2 °C 10,6 °C 58 % 93 % 1021,4 hPa 0,0 l/m² 0,9 km/h (0 Bft) W-NW 300 ° 0 min 0 W/m² 9,5 °C 10,6 °C 4,8 km/h (1 Bft)
17.02.2024 02:01 21,2 °C 10,6 °C 58 % 93 % 1021,4 hPa 0,0 l/m² 0,0 km/h (0 Bft) W-NW 300 ° 0 min 0 W/m² 9,5 °C 10,6 °C 1,6 km/h (1 Bft)
17.02.2024 02:03 21,2 °C 10,6 °C 58 % 93 % 1021,4 hPa 0,0 l/m² 0,3 km/h (0 Bft) W-NW 300 ° 0 min 0 W/m² 9,5 °C 10,6 °C 3,2 km/h (1 Bft)
17.02.2024 02:05 21,2 °C 10,6 °C 58 % 93 % 1021,4 hPa 0,0 l/m² 0,1 km/h (0 Bft) W-NW 300 ° 0 min 0 W/m² 9,5 °C 10,6 °C 1,6 km/h (1 Bft)
17.02.2024 02:07 21,2 °C 10,6 °C 58 % 93 % 1021,5 hPa 0,0 l/m² 0,0 km/h (0 Bft) W-NW 300 ° 0 min 0 W/m² 9,5 °C 10,6 °C 0,0 km/h (0 Bft)
17.02.2024 02:09 21,1 °C 10,6 °C 58 % 93 % 1021,5 hPa 0,0 l/m² 0,7 km/h (0 Bft) W-NW 300 ° 0 min 0 W/m² 9,5 °C 10,6 °C 4,8 km/h (1 Bft)
17.02.2024 02:11 21,2 °C 10,6 °C 58 % 93 % 1021,6 hPa 0,0 l/m² 0,0 km/h (0 Bft) W-NW 300 ° 0 min 0 W/m² 9,5 °C 10,6 °C 1,6 km/h (1 Bft)
17.02.2024 02:13 21,2 °C 10,6 °C 58 % 93 % 1021,6 hPa 0,0 l/m² 0,0 km/h (0 Bft) W-NW 300 ° 0 min 0 W/m² 9,5 °C 10,6 °C 0,0 km/h (0 Bft)
17.02.2024 02:15 21,2 °C 10,5 °C 58 % 93 % 1021,7 hPa 0,0 l/m² 0,0 km/h (0 Bft) W-NW 300 ° 0 min 0 W/m² 9,4 °C 10,5 °C 0,0 km/h (0 Bft)
17.02.2024 02:17 21,2 °C 10,5 °C 58 % 93 % 1021,7 hPa 0,0 l/m² 0,0 km/h (0 Bft) W-NW 300 ° 0 min 0 W/m² 9,4 °C 10,5 °C 0,0 km/h (0 Bft)
17.02.2024 02:19 21,2 °C 10,5 °C 58 % 93 % 1021,7 hPa 0,0 l/m² 0,1 km/h (0 Bft) W-NW 300 ° 0 min 0 W/m² 9,4 °C 10,5 °C 1,6 km/h (1 Bft)
17.02.2024 02:21 21,2 °C 10,5 °C 58 % 93 % 1021,7 hPa 0,0 l/m² 1,0 km/h (0 Bft) W-NW 300 ° 0 min 0 W/m² 9,4 °C 10,5 °C 3,2 km/h (1 Bft)
17.02.2024 02:23 21,2 °C 10,4 °C 58 % 93 % 1021,8 hPa 0,0 l/m² 0,9 km/h (0 Bft) W-NW 300 ° 0 min 0 W/m² 9,3 °C 10,4 °C 4,8 km/h (1 Bft)
17.02.2024 02:25 21,2 °C 10,4 °C 58 % 93 % 1021,7 hPa 0,0 l/m² 0,7 km/h (0 Bft) W-NW 300 ° 0 min 0 W/m² 9,3 °C 10,4 °C 3,2 km/h (1 Bft)
17.02.2024 02:27 21,1 °C 10,4 °C 58 % 93 % 1021,8 hPa 0,0 l/m² 1,0 km/h (0 Bft) W-NW 300 ° 0 min 0 W/m² 9,3 °C 10,4 °C 4,8 km/h (1 Bft)
17.02.2024 02:29 21,2 °C 10,4 °C 58 % 93 % 1021,8 hPa 0,0 l/m² 1,1 km/h (1 Bft) W 265 ° 0 min 0 W/m² 9,3 °C 10,4 °C 9,7 km/h (2 Bft)
17.02.2024 02:31 21,1 °C 10,4 °C 58 % 93 % 1021,8 hPa 0,0 l/m² 1,6 km/h (1 Bft) W-NW 291 ° 0 min 0 W/m² 9,3 °C 10,4 °C 6,4 km/h (2 Bft)
17.02.2024 02:33 21,2 °C 10,4 °C 58 % 93 % 1021,8 hPa 0,0 l/m² 1,0 km/h (0 Bft) W-NW 291 ° 0 min 0 W/m² 9,3 °C 10,4 °C 4,8 km/h (1 Bft)
17.02.2024 02:35 21,2 °C 10,4 °C 58 % 93 % 1021,7 hPa 0,0 l/m² 0,1 km/h (0 Bft) W-NW 291 ° 0 min 0 W/m² 9,3 °C 10,4 °C 1,6 km/h (1 Bft)
17.02.2024 02:37 21,2 °C 10,4 °C 58 % 93 % 1021,7 hPa 0,0 l/m² 0,0 km/h (0 Bft) W-NW 291 ° 0 min 0 W/m² 9,3 °C 10,4 °C 0,0 km/h (0 Bft)
17.02.2024 02:39 21,1 °C 10,4 °C 58 % 93 % 1021,7 hPa 0,0 l/m² 0,1 km/h (0 Bft) W-NW 291 ° 0 min 0 W/m² 9,3 °C 10,4 °C 1,6 km/h (1 Bft)
17.02.2024 02:41 21,2 °C 10,4 °C 58 % 93 % 1021,7 hPa 0,0 l/m² 0,0 km/h (0 Bft) W-NW 291 ° 0 min 0 W/m² 9,3 °C 10,4 °C 0,0 km/h (0 Bft)
17.02.2024 02:43 21,2 °C 10,4 °C 58 % 93 % 1021,8 hPa 0,0 l/m² 0,0 km/h (0 Bft) W-NW 291 ° 0 min 0 W/m² 9,3 °C 10,4 °C 0,0 km/h (0 Bft)
17.02.2024 02:45 21,2 °C 10,3 °C 58 % 93 % 1021,8 hPa 0,0 l/m² 0,0 km/h (0 Bft) W-NW 291 ° 0 min 0 W/m² 9,2 °C 10,3 °C 0,0 km/h (0 Bft)
17.02.2024 02:47 21,2 °C 10,3 °C 58 % 93 % 1021,8 hPa 0,0 l/m² 0,0 km/h (0 Bft) W-NW 291 ° 0 min 0 W/m² 9,2 °C 10,3 °C 0,0 km/h (0 Bft)
17.02.2024 02:49 21,2 °C 10,3 °C 58 % 93 % 1021,8 hPa 0,0 l/m² 0,0 km/h (0 Bft) W-NW 291 ° 0 min 0 W/m² 9,2 °C 10,3 °C 0,0 km/h (0 Bft)
17.02.2024 02:51 21,1 °C 10,3 °C 58 % 93 % 1021,8 hPa 0,0 l/m² 0,0 km/h (0 Bft) W-NW 291 ° 0 min 0 W/m² 9,2 °C 10,3 °C 0,0 km/h (0 Bft)
17.02.2024 02:53 21,2 °C 10,3 °C 58 % 93 % 1021,9 hPa 0,0 l/m² 0,0 km/h (0 Bft) W-NW 291 ° 0 min 0 W/m² 9,2 °C 10,3 °C 0,0 km/h (0 Bft)
17.02.2024 02:55 21,2 °C 10,3 °C 58 % 93 % 1021,9 hPa 0,0 l/m² 0,0 km/h (0 Bft) W-NW 291 ° 0 min 0 W/m² 9,2 °C 10,3 °C 0,0 km/h (0 Bft)
17.02.2024 02:57 21,2 °C 10,2 °C 58 % 92 % 1021,9 hPa 0,0 l/m² 0,0 km/h (0 Bft) W-NW 291 ° 0 min 0 W/m² 9,0 °C 10,2 °C 0,0 km/h (0 Bft)
17.02.2024 02:59 21,2 °C 10,2 °C 58 % 93 % 1021,9 hPa 0,0 l/m² 0,0 km/h (0 Bft) W-NW 291 ° 0 min 0 W/m² 9,1 °C 10,2 °C 0,0 km/h (0 Bft)
17.02.2024 03:00 21,2 °C 10,2 °C 58 % 92 % 1021,9 hPa 0,0 l/m² 0,0 km/h (0 Bft) N 0 ° 0 min 0 W/m² 9,0 °C 10,2 °C 0,0 km/h (0 Bft)
17.02.2024 03:10 21,2 °C 10,0 °C 58 % 92 % 1022,1 hPa 0,0 l/m² 0,8 km/h (0 Bft) W-NW 291 ° 0 min 0 W/m² 8,8 °C 10,0 °C 3,2 km/h (1 Bft)
17.02.2024 03:11 21,2 °C 10,0 °C 58 % 92 % 1022,0 hPa 0,0 l/m² 3,8 km/h (1 Bft) W-NW 291 ° 0 min 0 W/m² 8,8 °C 10,0 °C 4,8 km/h (1 Bft)
17.02.2024 03:12 21,2 °C 9,9 °C 58 % 92 % 1022,0 hPa 0,0 l/m² 3,1 km/h (1 Bft) W-NW 291 ° 0 min 0 W/m² 8,7 °C 9,9 °C 4,8 km/h (1 Bft)
17.02.2024 03:13 21,2 °C 9,9 °C 58 % 92 % 1022,0 hPa 0,0 l/m² 4,7 km/h (1 Bft) W-NW 291 ° 0 min 0 W/m² 8,7 °C 9,9 °C 4,8 km/h (1 Bft)
17.02.2024 03:14 21,2 °C 9,8 °C 58 % 92 % 1022,1 hPa 0,0 l/m² 3,3 km/h (1 Bft) W-NW 291 ° 0 min 0 W/m² 8,6 °C 9,8 °C 4,8 km/h (1 Bft)
17.02.2024 03:16 21,2 °C 9,8 °C 58 % 92 % 1022,1 hPa 0,0 l/m² 3,6 km/h (1 Bft) W-NW 291 ° 0 min 0 W/m² 8,6 °C 9,8 °C 4,8 km/h (1 Bft)
17.02.2024 03:18 21,2 °C 9,7 °C 58 % 92 % 1022,0 hPa 0,0 l/m² 3,8 km/h (1 Bft) W-NW 291 ° 0 min 0 W/m² 8,5 °C 9,7 °C 4,8 km/h (1 Bft)
17.02.2024 03:20 21,2 °C 9,7 °C 58 % 92 % 1022,0 hPa 0,0 l/m² 4,4 km/h (1 Bft) W-NW 291 ° 0 min 0 W/m² 8,5 °C 9,7 °C 6,4 km/h (2 Bft)
17.02.2024 03:21 21,2 °C 9,6 °C 58 % 92 % 1022,1 hPa 0,0 l/m² 5,4 km/h (2 Bft) W-NW 291 ° 0 min 0 W/m² 8,4 °C 9,6 °C 6,4 km/h (2 Bft)
17.02.2024 03:22 21,2 °C 9,6 °C 58 % 92 % 1022,0 hPa 0,0 l/m² 5,4 km/h (2 Bft) W-NW 291 ° 0 min 0 W/m² 8,4 °C 9,6 °C 8,0 km/h (2 Bft)
17.02.2024 03:23 21,2 °C 9,6 °C 58 % 92 % 1022,0 hPa 0,0 l/m² 4,2 km/h (1 Bft) W-NW 291 ° 0 min 0 W/m² 8,4 °C 9,6 °C 4,8 km/h (1 Bft)
17.02.2024 03:25 21,2 °C 9,4 °C 58 % 92 % 1022,1 hPa 0,0 l/m² 4,7 km/h (1 Bft) W-NW 291 ° 0 min 0 W/m² 8,2 °C 9,4 °C 6,4 km/h (2 Bft)
17.02.2024 03:27 21,2 °C 9,4 °C 58 % 92 % 1022,1 hPa 0,0 l/m² 4,2 km/h (1 Bft) W-NW 291 ° 0 min 0 W/m² 8,2 °C 9,4 °C 6,4 km/h (2 Bft)
17.02.2024 03:29 21,2 °C 9,3 °C 58 % 92 % 1022,2 hPa 0,0 l/m² 3,6 km/h (1 Bft) W-NW 291 ° 0 min 0 W/m² 8,1 °C 9,3 °C 4,8 km/h (1 Bft)
17.02.2024 03:30 21,2 °C 9,3 °C 58 % 92 % 1022,0 hPa 0,0 l/m² 3,5 km/h (1 Bft) W-NW 291 ° 0 min 0 W/m² 8,1 °C 9,3 °C 4,8 km/h (1 Bft)
17.02.2024 03:32 21,2 °C 9,2 °C 58 % 92 % 1022,1 hPa 0,0 l/m² 1,6 km/h (1 Bft) W-NW 291 ° 0 min 0 W/m² 8,0 °C 9,2 °C 3,2 km/h (1 Bft)
17.02.2024 03:33 21,2 °C 9,2 °C 58 % 92 % 1022,2 hPa 0,0 l/m² 3,3 km/h (1 Bft) W-NW 291 ° 0 min 0 W/m² 8,0 °C 9,2 °C 4,8 km/h (1 Bft)
17.02.2024 03:35 21,2 °C 9,1 °C 58 % 92 % 1022,1 hPa 0,0 l/m² 3,6 km/h (1 Bft) W-NW 291 ° 0 min 0 W/m² 7,9 °C 9,1 °C 6,4 km/h (2 Bft)
17.02.2024 03:37 21,2 °C 9,1 °C 58 % 92 % 1022,3 hPa 0,0 l/m² 4,4 km/h (1 Bft) W-NW 291 ° 0 min 0 W/m² 7,9 °C 9,1 °C 4,8 km/h (1 Bft)
17.02.2024 03:39 21,2 °C 8,9 °C 58 % 92 % 1022,2 hPa 0,0 l/m² 4,6 km/h (1 Bft) W-NW 291 ° 0 min 0 W/m² 7,7 °C 8,9 °C 6,4 km/h (2 Bft)
17.02.2024 03:40 21,2 °C 8,9 °C 58 % 92 % 1022,2 hPa 0,0 l/m² 3,2 km/h (1 Bft) W-NW 291 ° 0 min 0 W/m² 7,7 °C 8,9 °C 4,8 km/h (1 Bft)
17.02.2024 03:42 21,2 °C 8,8 °C 58 % 92 % 1022,2 hPa 0,0 l/m² 1,2 km/h (1 Bft) W-NW 291 ° 0 min 0 W/m² 7,6 °C 8,8 °C 4,8 km/h (1 Bft)
17.02.2024 03:43 21,2 °C 8,8 °C 58 % 92 % 1022,2 hPa 0,0 l/m² 0,0 km/h (0 Bft) W-NW 291 ° 0 min 0 W/m² 7,6 °C 8,8 °C 0,0 km/h (0 Bft)
17.02.2024 03:45 21,2 °C 8,8 °C 58 % 92 % 1022,2 hPa 0,0 l/m² 0,0 km/h (0 Bft) W-NW 291 ° 0 min 0 W/m² 7,6 °C 8,8 °C 0,0 km/h (0 Bft)
17.02.2024 03:47 21,2 °C 8,8 °C 58 % 92 % 1022,1 hPa 0,0 l/m² 2,5 km/h (1 Bft) W-NW 291 ° 0 min 0 W/m² 7,6 °C 8,8 °C 4,8 km/h (1 Bft)
17.02.2024 03:49 21,2 °C 8,8 °C 58 % 92 % 1022,0 hPa 0,0 l/m² 3,7 km/h (1 Bft) W-NW 291 ° 0 min 0 W/m² 7,6 °C 8,8 °C 6,4 km/h (2 Bft)
17.02.2024 03:50 21,2 °C 8,7 °C 58 % 92 % 1022,1 hPa 0,0 l/m² 4,5 km/h (1 Bft) W-NW 291 ° 0 min 0 W/m² 7,5 °C 8,7 °C 4,8 km/h (1 Bft)
17.02.2024 03:52 21,2 °C 8,7 °C 58 % 92 % 1022,1 hPa 0,0 l/m² 4,5 km/h (1 Bft) W-NW 291 ° 0 min 0 W/m² 7,5 °C 8,7 °C 4,8 km/h (1 Bft)
17.02.2024 03:53 21,2 °C 8,7 °C 58 % 92 % 1022,1 hPa 0,0 l/m² 4,1 km/h (1 Bft) W-NW 291 ° 0 min 0 W/m² 7,5 °C 8,7 °C 4,8 km/h (1 Bft)
17.02.2024 03:55 21,2 °C 8,7 °C 58 % 92 % 1022,2 hPa 0,0 l/m² 3,9 km/h (1 Bft) W-NW 291 ° 0 min 0 W/m² 7,5 °C 8,7 °C 4,8 km/h (1 Bft)
17.02.2024 03:57 21,2 °C 8,7 °C 58 % 92 % 1022,2 hPa 0,0 l/m² 3,8 km/h (1 Bft) W-NW 291 ° 0 min 0 W/m² 7,5 °C 8,7 °C 4,8 km/h (1 Bft)
17.02.2024 03:59 21,2 °C 8,7 °C 58 % 92 % 1022,1 hPa 0,0 l/m² 3,6 km/h (1 Bft) W-NW 291 ° 0 min 0 W/m² 7,5 °C 8,7 °C 6,4 km/h (2 Bft)
17.02.2024 04:00 21,2 °C 8,7 °C 58 % 92 % 1022,2 hPa 0,0 l/m² 4,7 km/h (1 Bft) W-NW 291 ° 0 min 0 W/m² 7,5 °C 8,7 °C 6,4 km/h (2 Bft)
17.02.2024 04:02 21,2 °C 8,7 °C 58 % 92 % 1022,1 hPa 0,0 l/m² 3,3 km/h (1 Bft) W-NW 291 ° 0 min 0 W/m² 7,5 °C 8,7 °C 4,8 km/h (1 Bft)
17.02.2024 04:03 21,2 °C 8,7 °C 58 % 92 % 1022,2 hPa 0,0 l/m² 2,7 km/h (1 Bft) W-NW 291 ° 0 min 0 W/m² 7,5 °C 8,7 °C 4,8 km/h (1 Bft)
17.02.2024 04:05 21,2 °C 8,7 °C 58 % 92 % 1022,1 hPa 0,0 l/m² 3,4 km/h (1 Bft) W-NW 291 ° 0 min 0 W/m² 7,5 °C 8,7 °C 6,4 km/h (2 Bft)
17.02.2024 04:07 21,2 °C 8,6 °C 58 % 92 % 1022,1 hPa 0,0 l/m² 2,7 km/h (1 Bft) W-NW 291 ° 0 min 0 W/m² 7,4 °C 8,6 °C 4,8 km/h (1 Bft)
17.02.2024 04:09 21,2 °C 8,7 °C 58 % 93 % 1022,2 hPa 0,0 l/m² 3,1 km/h (1 Bft) W-NW 291 ° 0 min 0 W/m² 7,6 °C 8,7 °C 4,8 km/h (1 Bft)
17.02.2024 04:10 21,2 °C 8,6 °C 58 % 92 % 1022,2 hPa 0,0 l/m² 1,1 km/h (1 Bft) W-NW 291 ° 0 min 0 W/m² 7,4 °C 8,6 °C 4,8 km/h (1 Bft)
17.02.2024 04:12 21,2 °C 8,6 °C 58 % 92 % 1022,2 hPa 0,0 l/m² 0,0 km/h (0 Bft) W-NW 291 ° 0 min 0 W/m² 7,4 °C 8,6 °C 1,6 km/h (1 Bft)
17.02.2024 04:13 21,2 °C 8,6 °C 58 % 93 % 1022,1 hPa 0,0 l/m² 0,2 km/h (0 Bft) W-NW 291 ° 0 min 0 W/m² 7,5 °C 8,6 °C 1,6 km/h (1 Bft)
17.02.2024 04:15 21,2 °C 8,6 °C 58 % 93 % 1022,1 hPa 0,0 l/m² 1,3 km/h (1 Bft) W-NW 291 ° 0 min 0 W/m² 7,5 °C 8,6 °C 3,2 km/h (1 Bft)
17.02.2024 04:17 21,2 °C 8,6 °C 58 % 93 % 1022,2 hPa 0,0 l/m² 2,3 km/h (1 Bft) W-NW 291 ° 0 min 0 W/m² 7,5 °C 8,6 °C 3,2 km/h (1 Bft)
17.02.2024 04:19 21,2 °C 8,6 °C 58 % 93 % 1022,2 hPa 0,0 l/m² 0,0 km/h (0 Bft) W-NW 291 ° 0 min 0 W/m² 7,5 °C 8,6 °C 0,0 km/h (0 Bft)
17.02.2024 04:20 21,2 °C 8,5 °C 58 % 93 % 1022,3 hPa 0,0 l/m² 0,0 km/h (0 Bft) W-NW 291 ° 0 min 0 W/m² 7,4 °C 8,5 °C 0,0 km/h (0 Bft)
17.02.2024 04:22 21,2 °C 8,5 °C 58 % 93 % 1022,2 hPa 0,0 l/m² 1,8 km/h (1 Bft) W-NW 291 ° 0 min 0 W/m² 7,4 °C 8,5 °C 4,8 km/h (1 Bft)
17.02.2024 04:23 21,2 °C 8,5 °C 58 % 93 % 1022,2 hPa 0,0 l/m² 3,6 km/h (1 Bft) W-NW 291 ° 0 min 0 W/m² 7,4 °C 8,5 °C 4,8 km/h (1 Bft)
17.02.2024 04:25 21,2 °C 8,5 °C 58 % 92 % 1022,3 hPa 0,0 l/m² 2,7 km/h (1 Bft) W-NW 291 ° 0 min 0 W/m² 7,3 °C 8,5 °C 3,2 km/h (1 Bft)
17.02.2024 04:27 21,2 °C 8,4 °C 58 % 92 % 1022,4 hPa 0,0 l/m² 2,9 km/h (1 Bft) W-NW 291 ° 0 min 0 W/m² 7,2 °C 8,4 °C 4,8 km/h (1 Bft)
17.02.2024 04:29 21,2 °C 8,3 °C 58 % 92 % 1022,4 hPa 0,0 l/m² 2,0 km/h (1 Bft) W-NW 291 ° 0 min 0 W/m² 7,1 °C 8,3 °C 4,8 km/h (1 Bft)
17.02.2024 04:31 21,2 °C 8,3 °C 58 % 92 % 1022,4 hPa 0,0 l/m² 3,2 km/h (1 Bft) W-NW 291 ° 0 min 0 W/m² 7,1 °C 8,3 °C 4,8 km/h (1 Bft)
17.02.2024 04:32 21,2 °C 8,2 °C 58 % 92 % 1022,5 hPa 0,0 l/m² 3,4 km/h (1 Bft) W-NW 291 ° 0 min 0 W/m² 7,0 °C 8,2 °C 4,8 km/h (1 Bft)
17.02.2024 04:33 21,2 °C 8,2 °C 58 % 92 % 1022,5 hPa 0,0 l/m² 2,4 km/h (1 Bft) W-NW 291 ° 0 min 0 W/m² 7,0 °C 8,2 °C 4,8 km/h (1 Bft)
17.02.2024 04:34 21,2 °C 8,2 °C 58 % 92 % 1022,5 hPa 0,0 l/m² 3,0 km/h (1 Bft) W-NW 291 ° 0 min 0 W/m² 7,0 °C 8,2 °C 4,8 km/h (1 Bft)
17.02.2024 04:36 21,2 °C 8,1 °C 58 % 93 % 1022,5 hPa 0,0 l/m² 2,1 km/h (1 Bft) W-NW 291 ° 0 min 0 W/m² 7,0 °C 8,1 °C 3,2 km/h (1 Bft)
17.02.2024 04:38 21,2 °C 8,1 °C 58 % 92 % 1022,5 hPa 0,0 l/m² 1,2 km/h (1 Bft) W-NW 291 ° 0 min 0 W/m² 6,9 °C 8,1 °C 3,2 km/h (1 Bft)
17.02.2024 04:40 21,2 °C 8,1 °C 58 % 92 % 1022,6 hPa 0,0 l/m² 0,5 km/h (0 Bft) W-NW 291 ° 0 min 0 W/m² 6,9 °C 8,1 °C 3,2 km/h (1 Bft)
17.02.2024 04:41 21,2 °C 8,0 °C 58 % 92 % 1022,6 hPa 0,0 l/m² 0,0 km/h (0 Bft) W-NW 291 ° 0 min 0 W/m² 6,8 °C 8,0 °C 0,0 km/h (0 Bft)
17.02.2024 04:42 21,2 °C 8,0 °C 58 % 92 % 1022,6 hPa 0,0 l/m² 0,0 km/h (0 Bft) W-NW 291 ° 0 min 0 W/m² 6,8 °C 8,0 °C 0,0 km/h (0 Bft)
17.02.2024 04:43 21,2 °C 8,0 °C 58 % 92 % 1022,6 hPa 0,0 l/m² 0,0 km/h (0 Bft) W-NW 291 ° 0 min 0 W/m² 6,8 °C 8,0 °C 0,0 km/h (0 Bft)
17.02.2024 04:45 21,2 °C 7,9 °C 58 % 92 % 1022,6 hPa 0,0 l/m² 0,0 km/h (0 Bft) W-NW 291 ° 0 min 0 W/m² 6,7 °C 7,9 °C 0,0 km/h (0 Bft)
17.02.2024 04:47 21,2 °C 7,9 °C 58 % 92 % 1022,7 hPa 0,0 l/m² 0,0 km/h (0 Bft) W-NW 291 ° 0 min 0 W/m² 6,7 °C 7,9 °C 0,0 km/h (0 Bft)
17.02.2024 04:49 21,2 °C 7,9 °C 58 % 92 % 1022,6 hPa 0,0 l/m² 0,0 km/h (0 Bft) W-NW 291 ° 0 min 0 W/m² 6,7 °C 7,9 °C 0,0 km/h (0 Bft)
17.02.2024 04:50 21,2 °C 7,9 °C 58 % 92 % 1022,6 hPa 0,0 l/m² 0,0 km/h (0 Bft) W-NW 291 ° 0 min 0 W/m² 6,7 °C 7,9 °C 0,0 km/h (0 Bft)
17.02.2024 04:52 21,2 °C 7,9 °C 58 % 92 % 1022,7 hPa 0,0 l/m² 0,0 km/h (0 Bft) W-NW 291 ° 0 min 0 W/m² 6,7 °C 7,9 °C 0,0 km/h (0 Bft)
17.02.2024 04:53 21,2 °C 7,8 °C 58 % 92 % 1022,7 hPa 0,0 l/m² 0,0 km/h (0 Bft) W-NW 291 ° 0 min 0 W/m² 6,6 °C 7,8 °C 0,0 km/h (0 Bft)
17.02.2024 04:55 21,2 °C 7,8 °C 58 % 92 % 1022,7 hPa 0,0 l/m² 0,0 km/h (0 Bft) W-NW 291 ° 0 min 0 W/m² 6,6 °C 7,8 °C 0,0 km/h (0 Bft)
17.02.2024 04:57 21,2 °C 7,7 °C 58 % 92 % 1022,6 hPa 0,0 l/m² 0,0 km/h (0 Bft) W-NW 291 ° 0 min 0 W/m² 6,5 °C 7,7 °C 0,0 km/h (0 Bft)
17.02.2024 04:59 21,2 °C 7,7 °C 58 % 92 % 1022,7 hPa 0,0 l/m² 0,0 km/h (0 Bft) W-NW 291 ° 0 min 0 W/m² 6,5 °C 7,7 °C 0,0 km/h (0 Bft)
17.02.2024 05:00 21,2 °C 7,6 °C 58 % 92 % 1022,9 hPa 0,0 l/m² 0,0 km/h (0 Bft) W-NW 291 ° 0 min 0 W/m² 6,4 °C 7,6 °C 0,0 km/h (0 Bft)
17.02.2024 05:02 21,2 °C 7,6 °C 58 % 92 % 1022,9 hPa 0,0 l/m² 0,0 km/h (0 Bft) W-NW 291 ° 0 min 0 W/m² 6,4 °C 7,6 °C 0,0 km/h (0 Bft)
17.02.2024 05:03 21,2 °C 7,6 °C 58 % 92 % 1022,9 hPa 0,0 l/m² 0,0 km/h (0 Bft) W-NW 291 ° 0 min 0 W/m² 6,4 °C 7,6 °C 0,0 km/h (0 Bft)
17.02.2024 05:05 21,2 °C 7,6 °C 58 % 92 % 1022,9 hPa 0,0 l/m² 1,0 km/h (0 Bft) W-NW 291 ° 0 min 0 W/m² 6,4 °C 7,6 °C 3,2 km/h (1 Bft)
17.02.2024 05:07 21,2 °C 7,4 °C 58 % 92 % 1022,9 hPa 0,0 l/m² 1,7 km/h (1 Bft) W-NW 291 ° 0 min 0 W/m² 6,2 °C 7,4 °C 3,2 km/h (1 Bft)
17.02.2024 05:09 21,2 °C 7,4 °C 58 % 92 % 1023,0 hPa 0,0 l/m² 0,6 km/h (0 Bft) W-NW 291 ° 0 min 0 W/m² 6,2 °C 7,4 °C 1,6 km/h (1 Bft)
17.02.2024 05:10 21,2 °C 7,4 °C 58 % 92 % 1022,9 hPa 0,0 l/m² 2,6 km/h (1 Bft) W-NW 291 ° 0 min 0 W/m² 6,2 °C 7,4 °C 3,2 km/h (1 Bft)
17.02.2024 05:12 21,2 °C 7,4 °C 58 % 92 % 1023,0 hPa 0,0 l/m² 1,0 km/h (0 Bft) W-NW 291 ° 0 min 0 W/m² 6,2 °C 7,4 °C 3,2 km/h (1 Bft)
17.02.2024 05:13 21,2 °C 7,4 °C 58 % 92 % 1023,1 hPa 0,0 l/m² 0,7 km/h (0 Bft) W-NW 291 ° 0 min 0 W/m² 6,2 °C 7,4 °C 3,2 km/h (1 Bft)
17.02.2024 05:15 21,2 °C 7,3 °C 58 % 92 % 1023,0 hPa 0,0 l/m² 2,6 km/h (1 Bft) W-NW 291 ° 0 min 0 W/m² 6,1 °C 7,3 °C 4,8 km/h (1 Bft)
17.02.2024 05:17 21,2 °C 7,4 °C 58 % 92 % 1023,0 hPa 0,0 l/m² 2,7 km/h (1 Bft) W-NW 291 ° 0 min 0 W/m² 6,2 °C 7,4 °C 4,8 km/h (1 Bft)
17.02.2024 05:19 21,2 °C 7,4 °C 58 % 93 % 1023,0 hPa 0,0 l/m² 0,8 km/h (0 Bft) W-NW 291 ° 0 min 0 W/m² 6,3 °C 7,4 °C 3,2 km/h (1 Bft)
17.02.2024 05:21 21,2 °C 7,4 °C 58 % 93 % 1023,0 hPa 0,0 l/m² 0,0 km/h (0 Bft) W-NW 291 ° 0 min 0 W/m² 6,3 °C 7,4 °C 0,0 km/h (0 Bft)
17.02.2024 05:22 21,2 °C 7,4 °C 58 % 93 % 1023,0 hPa 0,0 l/m² 0,0 km/h (0 Bft) W-NW 291 ° 0 min 0 W/m² 6,3 °C 7,4 °C 0,0 km/h (0 Bft)
17.02.2024 05:23 21,2 °C 7,4 °C 58 % 93 % 1023,0 hPa 0,0 l/m² 0,0 km/h (0 Bft) W-NW 291 ° 0 min 0 W/m² 6,3 °C 7,4 °C 0,0 km/h (0 Bft)
17.02.2024 05:24 21,2 °C 7,4 °C 58 % 93 % 1023,1 hPa 0,0 l/m² 0,0 km/h (0 Bft) W-NW 291 ° 0 min 0 W/m² 6,3 °C 7,4 °C 0,0 km/h (0 Bft)
17.02.2024 05:26 21,2 °C 7,3 °C 58 % 93 % 1023,2 hPa 0,0 l/m² 0,0 km/h (0 Bft) W-NW 291 ° 0 min 0 W/m² 6,2 °C 7,3 °C 0,0 km/h (0 Bft)
17.02.2024 05:28 21,2 °C 7,3 °C 58 % 93 % 1023,2 hPa 0,0 l/m² 0,0 km/h (0 Bft) W-NW 291 ° 0 min 0 W/m² 6,2 °C 7,3 °C 0,0 km/h (0 Bft)
17.02.2024 05:30 21,2 °C 7,3 °C 58 % 93 % 1023,2 hPa 0,0 l/m² 0,0 km/h (0 Bft) W-NW 291 ° 0 min 0 W/m² 6,2 °C 7,3 °C 0,0 km/h (0 Bft)
17.02.2024 05:31 21,2 °C 7,3 °C 58 % 93 % 1023,2 hPa 0,0 l/m² 0,0 km/h (0 Bft) W-NW 291 ° 0 min 0 W/m² 6,2 °C 7,3 °C 0,0 km/h (0 Bft)
17.02.2024 05:33 21,2 °C 7,3 °C 58 % 93 % 1023,2 hPa 0,0 l/m² 0,0 km/h (0 Bft) W-NW 291 ° 0 min 0 W/m² 6,2 °C 7,3 °C 0,0 km/h (0 Bft)
17.02.2024 05:34 21,2 °C 7,3 °C 58 % 93 % 1023,3 hPa 0,0 l/m² 0,0 km/h (0 Bft) W-NW 291 ° 0 min 0 W/m² 6,2 °C 7,3 °C 0,0 km/h (0 Bft)
17.02.2024 05:36 21,2 °C 7,3 °C 58 % 93 % 1023,2 hPa 0,0 l/m² 0,0 km/h (0 Bft) W-NW 291 ° 0 min 0 W/m² 6,2 °C 7,3 °C 0,0 km/h (0 Bft)
17.02.2024 05:38 21,2 °C 7,2 °C 58 % 93 % 1023,3 hPa 0,0 l/m² 0,0 km/h (0 Bft) W-NW 291 ° 0 min 0 W/m² 6,1 °C 7,2 °C 0,0 km/h (0 Bft)
17.02.2024 05:40 21,2 °C 7,3 °C 58 % 93 % 1023,3 hPa 0,0 l/m² 0,0 km/h (0 Bft) W-NW 291 ° 0 min 0 W/m² 6,2 °C 7,3 °C 0,0 km/h (0 Bft)
17.02.2024 05:41 21,2 °C 7,2 °C 58 % 93 % 1023,4 hPa 0,0 l/m² 0,0 km/h (0 Bft) W-NW 291 ° 0 min 0 W/m² 6,1 °C 7,2 °C 0,0 km/h (0 Bft)
17.02.2024 05:43 21,2 °C 7,3 °C 58 % 93 % 1023,4 hPa 0,0 l/m² 0,0 km/h (0 Bft) W-NW 291 ° 0 min 0 W/m² 6,2 °C 7,3 °C 0,0 km/h (0 Bft)
17.02.2024 05:44 21,2 °C 7,3 °C 58 % 93 % 1023,3 hPa 0,0 l/m² 0,0 km/h (0 Bft) W-NW 291 ° 0 min 0 W/m² 6,2 °C 7,3 °C 0,0 km/h (0 Bft)
17.02.2024 05:46 21,2 °C 7,3 °C 58 % 93 % 1023,5 hPa 0,0 l/m² 0,0 km/h (0 Bft) W-NW 291 ° 0 min 0 W/m² 6,2 °C 7,3 °C 0,0 km/h (0 Bft)
17.02.2024 05:48 21,2 °C 7,3 °C 58 % 93 % 1023,5 hPa 0,0 l/m² 0,0 km/h (0 Bft) W-NW 291 ° 0 min 0 W/m² 6,2 °C 7,3 °C 0,0 km/h (0 Bft)
17.02.2024 05:50 21,2 °C 7,3 °C 58 % 93 % 1023,5 hPa 0,0 l/m² 0,0 km/h (0 Bft) W-NW 291 ° 0 min 0 W/m² 6,2 °C 7,3 °C 0,0 km/h (0 Bft)
17.02.2024 05:51 21,1 °C 7,3 °C 58 % 93 % 1023,5 hPa 0,0 l/m² 0,0 km/h (0 Bft) W-NW 291 ° 0 min 0 W/m² 6,2 °C 7,3 °C 0,0 km/h (0 Bft)
17.02.2024 05:52 21,1 °C 7,3 °C 58 % 93 % 1023,5 hPa 0,0 l/m² 0,0 km/h (0 Bft) W-NW 291 ° 0 min 0 W/m² 6,2 °C 7,3 °C 0,0 km/h (0 Bft)
17.02.2024 05:53 21,2 °C 7,3 °C 58 % 93 % 1023,6 hPa 0,0 l/m² 0,0 km/h (0 Bft) W-NW 291 ° 0 min 0 W/m² 6,2 °C 7,3 °C 0,0 km/h (0 Bft)
17.02.2024 05:55 21,2 °C 7,3 °C 58 % 93 % 1023,7 hPa 0,0 l/m² 0,0 km/h (0 Bft) W-NW 291 ° 0 min 0 W/m² 6,2 °C 7,3 °C 0,0 km/h (0 Bft)
17.02.2024 05:57 21,2 °C 7,3 °C 58 % 93 % 1023,6 hPa 0,0 l/m² 0,0 km/h (0 Bft) W-NW 291 ° 0 min 0 W/m² 6,2 °C 7,3 °C 0,0 km/h (0 Bft)
17.02.2024 05:59 21,2 °C 7,4 °C 58 % 93 % 1023,6 hPa 0,0 l/m² 0,0 km/h (0 Bft) W-NW 291 ° 0 min 0 W/m² 6,3 °C 7,4 °C 0,0 km/h (0 Bft)
17.02.2024 06:01 21,2 °C 7,4 °C 58 % 93 % 1023,6 hPa 0,0 l/m² 0,0 km/h (0 Bft) W-NW 291 ° 0 min 0 W/m² 6,3 °C 7,4 °C 0,0 km/h (0 Bft)
17.02.2024 06:02 21,1 °C 7,4 °C 58 % 93 % 1023,6 hPa 0,0 l/m² 0,0 km/h (0 Bft) W-NW 291 ° 0 min 0 W/m² 6,3 °C 7,4 °C 0,0 km/h (0 Bft)
17.02.2024 06:03 21,2 °C 7,4 °C 58 % 93 % 1023,6 hPa 0,0 l/m² 0,0 km/h (0 Bft) W-NW 291 ° 0 min 0 W/m² 6,3 °C 7,4 °C 0,0 km/h (0 Bft)
17.02.2024 06:04 21,2 °C 7,4 °C 58 % 93 % 1023,6 hPa 0,0 l/m² 0,0 km/h (0 Bft) W-NW 291 ° 0 min 0 W/m² 6,3 °C 7,4 °C 0,0 km/h (0 Bft)
17.02.2024 06:06 21,2 °C 7,4 °C 58 % 93 % 1023,6 hPa 0,0 l/m² 0,0 km/h (0 Bft) W-NW 291 ° 0 min 0 W/m² 6,3 °C 7,4 °C 0,0 km/h (0 Bft)
17.02.2024 06:08 21,2 °C 7,4 °C 58 % 93 % 1023,7 hPa 0,0 l/m² 0,0 km/h (0 Bft) W-NW 291 ° 0 min 0 W/m² 6,3 °C 7,4 °C 0,0 km/h (0 Bft)
17.02.2024 06:10 21,1 °C 7,4 °C 58 % 94 % 1023,8 hPa 0,0 l/m² 0,0 km/h (0 Bft) W-NW 291 ° 0 min 0 W/m² 6,5 °C 7,4 °C 0,0 km/h (0 Bft)
17.02.2024 06:11 21,1 °C 7,4 °C 58 % 94 % 1023,8 hPa 0,0 l/m² 0,0 km/h (0 Bft) W-NW 291 ° 0 min 0 W/m² 6,5 °C 7,4 °C 0,0 km/h (0 Bft)
17.02.2024 06:12 21,1 °C 7,4 °C 58 % 94 % 1023,8 hPa 0,0 l/m² 0,0 km/h (0 Bft) W-NW 291 ° 0 min 0 W/m² 6,5 °C 7,4 °C 0,0 km/h (0 Bft)
17.02.2024 06:14 21,1 °C 7,4 °C 58 % 94 % 1023,8 hPa 0,0 l/m² 0,0 km/h (0 Bft) W-NW 291 ° 0 min 0 W/m² 6,5 °C 7,4 °C 0,0 km/h (0 Bft)
17.02.2024 06:16 21,2 °C 7,4 °C 58 % 94 % 1023,9 hPa 0,0 l/m² 0,0 km/h (0 Bft) W-NW 291 ° 0 min 0 W/m² 6,5 °C 7,4 °C 0,0 km/h (0 Bft)
17.02.2024 06:18 21,1 °C 7,4 °C 57 % 94 % 1024,0 hPa 0,0 l/m² 0,0 km/h (0 Bft) W-NW 291 ° 0 min 0 W/m² 6,5 °C 7,4 °C 0,0 km/h (0 Bft)
17.02.2024 06:20 21,2 °C 7,4 °C 57 % 94 % 1023,9 hPa 0,0 l/m² 0,0 km/h (0 Bft) W-NW 291 ° 0 min 0 W/m² 6,5 °C 7,4 °C 0,0 km/h (0 Bft)
17.02.2024 06:21 21,1 °C 7,4 °C 57 % 94 % 1024,0 hPa 0,0 l/m² 0,0 km/h (0 Bft) W-NW 291 ° 0 min 0 W/m² 6,5 °C 7,4 °C 0,0 km/h (0 Bft)
17.02.2024 06:23 21,2 °C 7,4 °C 57 % 94 % 1024,1 hPa 0,0 l/m² 0,0 km/h (0 Bft) W-NW 291 ° 0 min 0 W/m² 6,5 °C 7,4 °C 0,0 km/h (0 Bft)
17.02.2024 06:24 21,2 °C 7,4 °C 57 % 94 % 1024,1 hPa 0,0 l/m² 0,0 km/h (0 Bft) W-NW 291 ° 0 min 0 W/m² 6,5 °C 7,4 °C 0,0 km/h (0 Bft)
17.02.2024 06:26 21,2 °C 7,4 °C 58 % 94 % 1024,2 hPa 0,0 l/m² 0,0 km/h (0 Bft) W-NW 291 ° 0 min 0 W/m² 6,5 °C 7,4 °C 0,0 km/h (0 Bft)
17.02.2024 06:28 21,1 °C 7,4 °C 57 % 94 % 1024,2 hPa 0,0 l/m² 0,9 km/h (0 Bft) W-NW 291 ° 0 min 0 W/m² 6,5 °C 7,4 °C 3,2 km/h (1 Bft)
17.02.2024 06:30 21,2 °C 7,4 °C 57 % 94 % 1024,2 hPa 0,0 l/m² 0,1 km/h (0 Bft) W-NW 291 ° 0 min 0 W/m² 6,5 °C 7,4 °C 1,6 km/h (1 Bft)
17.02.2024 06:31 21,2 °C 7,4 °C 57 % 94 % 1024,2 hPa 0,0 l/m² 2,1 km/h (1 Bft) W-NW 291 ° 0 min 0 W/m² 6,5 °C 7,4 °C 3,2 km/h (1 Bft)
17.02.2024 06:32 21,2 °C 7,4 °C 57 % 94 % 1024,3 hPa 0,0 l/m² 1,1 km/h (1 Bft) W-NW 291 ° 0 min 0 W/m² 6,5 °C 7,4 °C 3,2 km/h (1 Bft)
17.02.2024 06:33 21,2 °C 7,4 °C 57 % 94 % 1024,3 hPa 0,0 l/m² 0,0 km/h (0 Bft) W-NW 291 ° 0 min 0 W/m² 6,5 °C 7,4 °C 0,0 km/h (0 Bft)
17.02.2024 06:35 21,2 °C 7,4 °C 57 % 94 % 1024,2 hPa 0,0 l/m² 0,0 km/h (0 Bft) W-NW 291 ° 0 min 0 W/m² 6,5 °C 7,4 °C 0,0 km/h (0 Bft)
17.02.2024 06:37 21,2 °C 7,4 °C 57 % 94 % 1024,3 hPa 0,0 l/m² 0,0 km/h (0 Bft) W-NW 291 ° 0 min 0 W/m² 6,5 °C 7,4 °C 0,0 km/h (0 Bft)
17.02.2024 06:39 21,2 °C 7,4 °C 57 % 94 % 1024,2 hPa 0,0 l/m² 0,0 km/h (0 Bft) W-NW 291 ° 0 min 0 W/m² 6,5 °C 7,4 °C 0,0 km/h (0 Bft)
17.02.2024 06:41 21,1 °C 7,4 °C 57 % 94 % 1024,4 hPa 0,0 l/m² 0,0 km/h (0 Bft) W-NW 291 ° 0 min 0 W/m² 6,5 °C 7,4 °C 0,0 km/h (0 Bft)
17.02.2024 06:42 21,2 °C 7,4 °C 57 % 94 % 1024,3 hPa 0,0 l/m² 0,0 km/h (0 Bft) W-NW 291 ° 0 min 0 W/m² 6,5 °C 7,4 °C 0,0 km/h (0 Bft)
17.02.2024 06:43 21,2 °C 7,4 °C 57 % 94 % 1024,3 hPa 0,0 l/m² 0,0 km/h (0 Bft) W-NW 291 ° 0 min 0 W/m² 6,5 °C 7,4 °C 0,0 km/h (0 Bft)
17.02.2024 06:45 21,2 °C 7,3 °C 57 % 94 % 1024,3 hPa 0,0 l/m² 0,0 km/h (0 Bft) W-NW 291 ° 0 min 0 W/m² 6,4 °C 7,3 °C 0,0 km/h (0 Bft)
17.02.2024 06:46 21,2 °C 7,3 °C 57 % 94 % 1024,3 hPa 0,0 l/m² 0,0 km/h (0 Bft) W-NW 291 ° 0 min 0 W/m² 6,4 °C 7,3 °C 0,0 km/h (0 Bft)
17.02.2024 06:48 21,2 °C 7,3 °C 57 % 94 % 1024,3 hPa 0,0 l/m² 0,0 km/h (0 Bft) W-NW 291 ° 0 min 0 W/m² 6,4 °C 7,3 °C 0,0 km/h (0 Bft)
17.02.2024 06:50 21,2 °C 7,3 °C 57 % 94 % 1024,4 hPa 0,0 l/m² 0,0 km/h (0 Bft) W-NW 291 ° 0 min 0 W/m² 6,4 °C 7,3 °C 0,0 km/h (0 Bft)
17.02.2024 06:51 21,2 °C 7,3 °C 57 % 94 % 1024,4 hPa 0,2 l/m² 0,0 km/h (0 Bft) W-NW 291 ° 0 min 0 W/m² 6,4 °C 7,3 °C 0,0 km/h (0 Bft)
17.02.2024 06:53 21,2 °C 7,2 °C 57 % 94 % 1024,5 hPa 0,0 l/m² 0,0 km/h (0 Bft) W-NW 291 ° 0 min 0 W/m² 6,3 °C 7,2 °C 0,0 km/h (0 Bft)
17.02.2024 06:54 21,2 °C 7,2 °C 57 % 94 % 1024,4 hPa 0,0 l/m² 0,0 km/h (0 Bft) W-NW 291 ° 0 min 0 W/m² 6,3 °C 7,2 °C 0,0 km/h (0 Bft)
17.02.2024 06:56 21,2 °C 7,2 °C 57 % 94 % 1024,5 hPa 0,0 l/m² 1,4 km/h (1 Bft) W-NW 291 ° 0 min 0 W/m² 6,3 °C 7,2 °C 3,2 km/h (1 Bft)
17.02.2024 06:58 21,2 °C 7,1 °C 57 % 94 % 1024,5 hPa 0,0 l/m² 0,2 km/h (0 Bft) W-NW 291 ° 0 min 0 W/m² 6,2 °C 7,1 °C 3,2 km/h (1 Bft)
17.02.2024 07:00 21,2 °C 7,1 °C 57 % 94 % 1024,6 hPa 0,0 l/m² 0,1 km/h (0 Bft) W-NW 291 ° 0 min 0 W/m² 6,2 °C 7,1 °C 1,6 km/h (1 Bft)
17.02.2024 07:01 21,2 °C 7,1 °C 57 % 94 % 1024,5 hPa 0,0 l/m² 2,7 km/h (1 Bft) W-NW 291 ° 0 min 0 W/m² 6,2 °C 7,1 °C 4,8 km/h (1 Bft)
17.02.2024 07:02 21,2 °C 7,1 °C 57 % 94 % 1024,5 hPa 0,0 l/m² 5,2 km/h (1 Bft) W-NW 291 ° 0 min 0 W/m² 6,2 °C 7,1 °C 6,4 km/h (2 Bft)
17.02.2024 07:03 21,2 °C 7,0 °C 57 % 94 % 1024,5 hPa 0,0 l/m² 2,8 km/h (1 Bft) W-NW 291 ° 0 min 0 W/m² 6,1 °C 7,0 °C 4,8 km/h (1 Bft)
17.02.2024 07:06 21,2 °C 6,9 °C 57 % 94 % 1024,6 hPa 0,0 l/m² 1,8 km/h (1 Bft) W-NW 291 ° 0 min 0 W/m² 6,0 °C 6,9 °C 6,4 km/h (2 Bft)
17.02.2024 07:08 21,2 °C 6,9 °C 57 % 94 % 1024,7 hPa 0,0 l/m² 1,6 km/h (1 Bft) W-NW 291 ° 0 min 0 W/m² 6,0 °C 6,9 °C 4,8 km/h (1 Bft)
17.02.2024 07:10 21,2 °C 6,9 °C 57 % 94 % 1024,7 hPa 0,0 l/m² 1,3 km/h (1 Bft) W-NW 291 ° 0 min 0 W/m² 6,0 °C 6,9 °C 4,8 km/h (1 Bft)
17.02.2024 07:11 21,2 °C 6,9 °C 57 % 94 % 1024,6 hPa 0,0 l/m² 0,0 km/h (0 Bft) W-NW 291 ° 0 min 0 W/m² 6,0 °C 6,9 °C 0,0 km/h (0 Bft)
17.02.2024 07:13 21,2 °C 6,9 °C 57 % 94 % 1024,7 hPa 0,0 l/m² 0,5 km/h (0 Bft) W-NW 291 ° 0 min 0 W/m² 6,0 °C 6,9 °C 3,2 km/h (1 Bft)
17.02.2024 07:15 21,2 °C 6,9 °C 57 % 94 % 1024,8 hPa 0,0 l/m² 1,4 km/h (1 Bft) W-NW 291 ° 0 min 0 W/m² 6,0 °C 6,9 °C 3,2 km/h (1 Bft)
17.02.2024 07:17 21,2 °C 6,9 °C 57 % 94 % 1024,8 hPa 0,0 l/m² 1,3 km/h (1 Bft) W-NW 291 ° 0 min 0 W/m² 6,0 °C 6,9 °C 4,8 km/h (1 Bft)
17.02.2024 07:19 21,2 °C 6,8 °C 57 % 94 % 1024,8 hPa 0,0 l/m² 0,0 km/h (0 Bft) W-NW 291 ° 0 min 0 W/m² 5,9 °C 6,8 °C 1,6 km/h (1 Bft)
17.02.2024 07:21 21,2 °C 6,8 °C 57 % 93 % 1024,8 hPa 0,0 l/m² 0,1 km/h (0 Bft) W-NW 291 ° 0 min 0 W/m² 5,7 °C 6,8 °C 1,6 km/h (1 Bft)
17.02.2024 07:23 21,2 °C 6,7 °C 57 % 93 % 1024,8 hPa 0,0 l/m² 0,5 km/h (0 Bft) W-NW 291 ° 0 min 0 W/m² 5,6 °C 6,7 °C 3,2 km/h (1 Bft)
17.02.2024 07:25 21,2 °C 6,6 °C 57 % 93 % 1024,9 hPa 0,0 l/m² 1,8 km/h (1 Bft) W-NW 291 ° 0 min 5 W/m² 5,6 °C 6,6 °C 3,2 km/h (1 Bft)
17.02.2024 07:27 21,2 °C 6,4 °C 57 % 93 % 1024,9 hPa 0,0 l/m² 0,0 km/h (0 Bft) W-NW 291 ° 0 min 5 W/m² 5,4 °C 6,4 °C 0,0 km/h (0 Bft)
17.02.2024 07:29 21,2 °C 6,4 °C 57 % 93 % 1025,0 hPa 0,0 l/m² 0,0 km/h (0 Bft) W-NW 291 ° 0 min 5 W/m² 5,4 °C 6,4 °C 0,0 km/h (0 Bft)
17.02.2024 07:31 21,2 °C 6,4 °C 57 % 93 % 1025,0 hPa 0,0 l/m² 0,0 km/h (0 Bft) W-NW 291 ° 0 min 7 W/m² 5,4 °C 6,4 °C 0,0 km/h (0 Bft)
17.02.2024 07:33 21,2 °C 6,4 °C 57 % 93 % 1025,0 hPa 0,0 l/m² 0,0 km/h (0 Bft) W-NW 291 ° 0 min 9 W/m² 5,4 °C 6,4 °C 0,0 km/h (0 Bft)
17.02.2024 07:35 21,2 °C 6,3 °C 57 % 93 % 1025,1 hPa 0,0 l/m² 0,0 km/h (0 Bft) W-NW 291 ° 0 min 11 W/m² 5,3 °C 6,3 °C 0,0 km/h (0 Bft)
17.02.2024 07:37 21,2 °C 6,3 °C 57 % 93 % 1025,1 hPa 0,0 l/m² 0,0 km/h (0 Bft) W-NW 291 ° 0 min 11 W/m² 5,3 °C 6,3 °C 0,0 km/h (0 Bft)
17.02.2024 07:39 21,2 °C 6,3 °C 57 % 94 % 1025,1 hPa 0,0 l/m² 0,0 km/h (0 Bft) W-NW 291 ° 0 min 12 W/m² 5,4 °C 6,3 °C 0,0 km/h (0 Bft)
17.02.2024 07:41 21,2 °C 6,3 °C 57 % 94 % 1025,2 hPa 0,0 l/m² 0,0 km/h (0 Bft) W-NW 291 ° 0 min 14 W/m² 5,4 °C 6,3 °C 0,0 km/h (0 Bft)
17.02.2024 07:43 21,2 °C 6,3 °C 57 % 94 % 1025,2 hPa 0,0 l/m² 0,0 km/h (0 Bft) W-NW 291 ° 0 min 18 W/m² 5,4 °C 6,3 °C 0,0 km/h (0 Bft)
17.02.2024 07:45 21,2 °C 6,3 °C 57 % 94 % 1025,3 hPa 0,0 l/m² 0,0 km/h (0 Bft) W-NW 291 ° 0 min 18 W/m² 5,4 °C 6,3 °C 0,0 km/h (0 Bft)
17.02.2024 07:47 21,2 °C 6,3 °C 57 % 94 % 1025,2 hPa 0,0 l/m² 0,0 km/h (0 Bft) W-NW 291 ° 0 min 21 W/m² 5,4 °C 6,3 °C 0,0 km/h (0 Bft)
17.02.2024 07:49 21,2 °C 6,3 °C 57 % 93 % 1025,3 hPa 0,0 l/m² 0,0 km/h (0 Bft) W-NW 291 ° 0 min 25 W/m² 5,3 °C 6,3 °C 0,0 km/h (0 Bft)
17.02.2024 07:51 21,2 °C 6,4 °C 57 % 94 % 1025,3 hPa 0,0 l/m² 0,0 km/h (0 Bft) W-NW 291 ° 0 min 28 W/m² 5,5 °C 6,4 °C 0,0 km/h (0 Bft)
17.02.2024 07:53 21,2 °C 6,6 °C 57 % 94 % 1025,4 hPa 0,0 l/m² 0,0 km/h (0 Bft) W-NW 291 ° 0 min 30 W/m² 5,7 °C 6,6 °C 0,0 km/h (0 Bft)
17.02.2024 07:55 21,2 °C 6,7 °C 57 % 94 % 1025,5 hPa 0,0 l/m² 0,0 km/h (0 Bft) W-NW 291 ° 0 min 25 W/m² 5,8 °C 6,7 °C 0,0 km/h (0 Bft)
17.02.2024 07:57 21,2 °C 6,8 °C 57 % 94 % 1025,4 hPa 0,0 l/m² 0,0 km/h (0 Bft) W-NW 291 ° 0 min 21 W/m² 5,9 °C 6,8 °C 0,0 km/h (0 Bft)
17.02.2024 07:59 21,2 °C 6,8 °C 57 % 94 % 1025,5 hPa 0,0 l/m² 0,0 km/h (0 Bft) W-NW 291 ° 0 min 21 W/m² 5,9 °C 6,8 °C 0,0 km/h (0 Bft)
17.02.2024 08:01 21,2 °C 6,8 °C 57 % 94 % 1025,5 hPa 0,0 l/m² 0,0 km/h (0 Bft) W-NW 291 ° 0 min 25 W/m² 5,9 °C 6,8 °C 0,0 km/h (0 Bft)
17.02.2024 08:03 21,2 °C 6,8 °C 57 % 94 % 1025,6 hPa 0,0 l/m² 0,0 km/h (0 Bft) W-NW 291 ° 0 min 25 W/m² 5,9 °C 6,8 °C 0,0 km/h (0 Bft)
17.02.2024 08:05 21,2 °C 6,8 °C 57 % 94 % 1025,6 hPa 0,0 l/m² 0,0 km/h (0 Bft) W-NW 291 ° 0 min 25 W/m² 5,9 °C 6,8 °C 0,0 km/h (0 Bft)
17.02.2024 08:07 21,2 °C 6,8 °C 57 % 94 % 1025,6 hPa 0,0 l/m² 0,0 km/h (0 Bft) W-NW 291 ° 0 min 28 W/m² 5,9 °C 6,8 °C 0,0 km/h (0 Bft)
17.02.2024 08:09 21,2 °C 6,8 °C 57 % 94 % 1025,7 hPa 0,0 l/m² 0,0 km/h (0 Bft) W-NW 291 ° 0 min 25 W/m² 5,9 °C 6,8 °C 0,0 km/h (0 Bft)
17.02.2024 08:11 21,2 °C 6,8 °C 57 % 94 % 1025,7 hPa 0,0 l/m² 0,0 km/h (0 Bft) W-NW 291 ° 0 min 21 W/m² 5,9 °C 6,8 °C 0,0 km/h (0 Bft)
17.02.2024 08:13 21,2 °C 6,8 °C 57 % 94 % 1025,8 hPa 0,0 l/m² 0,1 km/h (0 Bft) W-NW 291 ° 0 min 19 W/m² 5,9 °C 6,8 °C 1,6 km/h (1 Bft)
17.02.2024 08:15 21,2 °C 6,9 °C 57 % 94 % 1025,9 hPa 0,0 l/m² 0,1 km/h (0 Bft) W-NW 291 ° 0 min 21 W/m² 6,0 °C 6,9 °C 1,6 km/h (1 Bft)
17.02.2024 08:17 21,2 °C 6,9 °C 57 % 94 % 1025,9 hPa 0,0 l/m² 0,1 km/h (0 Bft) W-NW 291 ° 0 min 18 W/m² 6,0 °C 6,9 °C 1,6 km/h (1 Bft)
17.02.2024 08:19 21,2 °C 7,0 °C 57 % 94 % 1026,0 hPa 0,0 l/m² 0,6 km/h (0 Bft) W-NW 291 ° 0 min 25 W/m² 6,1 °C 7,0 °C 3,2 km/h (1 Bft)
17.02.2024 08:21 21,2 °C 7,1 °C 55 % 94 % 1025,9 hPa 0,0 l/m² 0,2 km/h (0 Bft) W-NW 291 ° 0 min 35 W/m² 6,2 °C 7,1 °C 1,6 km/h (1 Bft)
17.02.2024 08:23 21,2 °C 7,2 °C 53 % 94 % 1025,9 hPa 0,0 l/m² 0,7 km/h (0 Bft) W-NW 291 ° 0 min 42 W/m² 6,3 °C 7,2 °C 4,8 km/h (1 Bft)
17.02.2024 08:25 21,2 °C 7,2 °C 54 % 95 % 1026,0 hPa 0,0 l/m² 2,5 km/h (1 Bft) W-NW 291 ° 0 min 46 W/m² 6,5 °C 7,2 °C 6,4 km/h (2 Bft)
17.02.2024 08:27 21,1 °C 7,3 °C 54 % 95 % 1026,0 hPa 0,0 l/m² 5,0 km/h (1 Bft) W 271 ° 0 min 47 W/m² 6,6 °C 7,3 °C 12,9 km/h (3 Bft)
17.02.2024 08:29 21,1 °C 7,4 °C 54 % 95 % 1026,0 hPa 0,0 l/m² 7,3 km/h (2 Bft) W 266 ° 2 min 53 W/m² 6,7 °C 6,7 °C 11,3 km/h (2 Bft)
17.02.2024 08:31 21,1 °C 7,6 °C 54 % 95 % 1025,9 hPa 0,0 l/m² 5,1 km/h (1 Bft) W-SW 258 ° 2 min 56 W/m² 6,9 °C 7,6 °C 9,7 km/h (2 Bft)
17.02.2024 08:33 21,1 °C 7,7 °C 54 % 95 % 1026,0 hPa 0,0 l/m² 5,9 km/h (2 Bft) W-SW 254 ° 2 min 54 W/m² 7,0 °C 7,7 °C 9,7 km/h (2 Bft)
17.02.2024 08:35 21,1 °C 7,7 °C 54 % 95 % 1026,0 hPa 0,0 l/m² 5,0 km/h (1 Bft) W-SW 257 ° 2 min 58 W/m² 7,0 °C 7,7 °C 8,0 km/h (2 Bft)
17.02.2024 08:37 21,1 °C 7,7 °C 54 % 95 % 1026,0 hPa 0,0 l/m² 4,3 km/h (1 Bft) W 261 ° 2 min 62 W/m² 7,0 °C 7,7 °C 6,4 km/h (2 Bft)
17.02.2024 08:39 21,1 °C 7,8 °C 55 % 95 % 1026,1 hPa 0,0 l/m² 4,5 km/h (1 Bft) W 263 ° 2 min 62 W/m² 7,0 °C 7,8 °C 9,7 km/h (2 Bft)
17.02.2024 08:41 21,1 °C 7,8 °C 55 % 95 % 1026,1 hPa 0,0 l/m² 3,5 km/h (1 Bft) W 259 ° 2 min 62 W/m² 7,0 °C 7,8 °C 9,7 km/h (2 Bft)
17.02.2024 08:43 21,1 °C 7,9 °C 55 % 95 % 1026,1 hPa 0,0 l/m² 4,8 km/h (1 Bft) W 261 ° 2 min 58 W/m² 7,1 °C 7,9 °C 9,7 km/h (2 Bft)
17.02.2024 08:45 21,1 °C 7,9 °C 53 % 95 % 1026,2 hPa 0,0 l/m² 4,2 km/h (1 Bft) W 262 ° 2 min 67 W/m² 7,1 °C 7,9 °C 6,4 km/h (2 Bft)
17.02.2024 08:47 21,1 °C 8,0 °C 53 % 95 % 1026,1 hPa 0,0 l/m² 3,2 km/h (1 Bft) W 262 ° 2 min 65 W/m² 7,2 °C 8,0 °C 4,8 km/h (1 Bft)
17.02.2024 08:49 21,1 °C 8,1 °C 53 % 95 % 1026,2 hPa 0,0 l/m² 0,3 km/h (0 Bft) W 262 ° 2 min 65 W/m² 7,3 °C 8,1 °C 3,2 km/h (1 Bft)
17.02.2024 08:51 21,1 °C 8,1 °C 54 % 95 % 1026,3 hPa 0,0 l/m² 0,1 km/h (0 Bft) W 262 ° 2 min 62 W/m² 7,3 °C 8,1 °C 1,6 km/h (1 Bft)
17.02.2024 08:53 21,1 °C 8,1 °C 54 % 95 % 1026,3 hPa 0,0 l/m² 0,0 km/h (0 Bft) W 262 ° 2 min 56 W/m² 7,3 °C 8,1 °C 0,0 km/h (0 Bft)
17.02.2024 08:55 21,1 °C 8,2 °C 54 % 95 % 1026,3 hPa 0,0 l/m² 0,0 km/h (0 Bft) W 262 ° 2 min 58 W/m² 7,4 °C 8,2 °C 0,0 km/h (0 Bft)
17.02.2024 08:57 21,1 °C 8,2 °C 54 % 95 % 1026,3 hPa 0,0 l/m² 0,0 km/h (0 Bft) W 262 ° 0 min 49 W/m² 7,4 °C 8,2 °C 0,0 km/h (0 Bft)
17.02.2024 08:59 21,1 °C 8,2 °C 54 % 95 % 1026,4 hPa 0,0 l/m² 0,0 km/h (0 Bft) W 262 ° 0 min 42 W/m² 7,4 °C 8,2 °C 0,0 km/h (0 Bft)
17.02.2024 09:01 21,1 °C 8,3 °C 55 % 95 % 1026,3 hPa 0,0 l/m² 0,0 km/h (0 Bft) W 262 ° 2 min 74 W/m² 7,5 °C 8,3 °C 0,0 km/h (0 Bft)
17.02.2024 09:03 21,1 °C 8,3 °C 55 % 95 % 1026,4 hPa 0,0 l/m² 0,1 km/h (0 Bft) W 262 ° 2 min 70 W/m² 7,5 °C 8,3 °C 1,6 km/h (1 Bft)
17.02.2024 09:05 21,2 °C 8,3 °C 55 % 95 % 1026,5 hPa 0,0 l/m² 0,3 km/h (0 Bft) W 262 ° 2 min 67 W/m² 7,5 °C 8,3 °C 3,2 km/h (1 Bft)
17.02.2024 09:07 21,2 °C 8,4 °C 55 % 95 % 1026,5 hPa 0,0 l/m² 0,0 km/h (0 Bft) W 262 ° 2 min 69 W/m² 7,6 °C 8,4 °C 0,0 km/h (0 Bft)
17.02.2024 09:09 21,2 °C 8,4 °C 55 % 95 % 1026,7 hPa 0,0 l/m² 0,0 km/h (0 Bft) W 262 ° 2 min 72 W/m² 7,6 °C 8,4 °C 0,0 km/h (0 Bft)
17.02.2024 09:11 21,2 °C 8,5 °C 55 % 95 % 1026,6 hPa 0,0 l/m² 0,4 km/h (0 Bft) W 262 ° 2 min 72 W/m² 7,7 °C 8,5 °C 3,2 km/h (1 Bft)
17.02.2024 09:13 21,2 °C 8,6 °C 55 % 95 % 1026,7 hPa 0,0 l/m² 3,3 km/h (1 Bft) SW 228 ° 2 min 67 W/m² 7,8 °C 8,6 °C 8,0 km/h (2 Bft)
17.02.2024 09:15 21,2 °C 8,6 °C 55 % 95 % 1026,6 hPa 0,0 l/m² 5,1 km/h (1 Bft) SW 234 ° 2 min 70 W/m² 7,8 °C 8,6 °C 9,7 km/h (2 Bft)
17.02.2024 09:17 21,2 °C 8,7 °C 55 % 95 % 1026,7 hPa 0,0 l/m² 3,8 km/h (1 Bft) SW 230 ° 2 min 69 W/m² 7,9 °C 8,7 °C 8,0 km/h (2 Bft)
17.02.2024 09:19 21,2 °C 8,7 °C 55 % 95 % 1026,8 hPa 0,0 l/m² 4,5 km/h (1 Bft) SW 232 ° 2 min 72 W/m² 7,9 °C 8,7 °C 8,0 km/h (2 Bft)
17.02.2024 09:21 21,2 °C 8,8 °C 55 % 95 % 1026,8 hPa 0,0 l/m² 4,1 km/h (1 Bft) SW 232 ° 2 min 77 W/m² 8,0 °C 8,8 °C 6,4 km/h (2 Bft)
17.02.2024 09:23 21,2 °C 8,8 °C 55 % 95 % 1026,9 hPa 0,0 l/m² 4,4 km/h (1 Bft) SW 233 ° 2 min 77 W/m² 8,0 °C 8,8 °C 6,4 km/h (2 Bft)
17.02.2024 09:25 21,2 °C 8,8 °C 55 % 95 % 1026,9 hPa 0,0 l/m² 4,7 km/h (1 Bft) W-SW 237 ° 2 min 70 W/m² 8,0 °C 8,8 °C 8,0 km/h (2 Bft)
17.02.2024 09:27 21,2 °C 8,9 °C 55 % 95 % 1027,0 hPa 0,0 l/m² 6,1 km/h (2 Bft) W-SW 242 ° 2 min 63 W/m² 8,1 °C 8,9 °C 8,0 km/h (2 Bft)
17.02.2024 09:29 21,3 °C 8,9 °C 56 % 95 % 1027,0 hPa 0,0 l/m² 4,7 km/h (1 Bft) W-SW 243 ° 2 min 67 W/m² 8,1 °C 8,9 °C 6,4 km/h (2 Bft)
17.02.2024 09:31 21,2 °C 8,9 °C 55 % 95 % 1027,0 hPa 0,0 l/m² 4,5 km/h (1 Bft) W-SW 248 ° 2 min 76 W/m² 8,1 °C 8,9 °C 8,0 km/h (2 Bft)
17.02.2024 09:33 21,2 °C 9,0 °C 55 % 95 % 1027,0 hPa 0,0 l/m² 4,9 km/h (1 Bft) W-SW 254 ° 2 min 76 W/m² 8,2 °C 9,0 °C 8,0 km/h (2 Bft)
17.02.2024 09:35 21,3 °C 9,1 °C 55 % 95 % 1027,0 hPa 0,0 l/m² 3,8 km/h (1 Bft) W 259 ° 2 min 74 W/m² 8,3 °C 9,1 °C 8,0 km/h (2 Bft)
17.02.2024 09:37 21,3 °C 9,1 °C 56 % 95 % 1027,0 hPa 0,0 l/m² 5,5 km/h (2 Bft) W 265 ° 2 min 67 W/m² 8,3 °C 9,1 °C 9,7 km/h (2 Bft)
17.02.2024 09:39 21,3 °C 9,1 °C 55 % 95 % 1027,0 hPa 0,0 l/m² 2,3 km/h (1 Bft) W 262 ° 2 min 56 W/m² 8,3 °C 9,1 °C 11,3 km/h (2 Bft)
17.02.2024 09:41 21,3 °C 9,1 °C 55 % 95 % 1027,1 hPa 0,0 l/m² 4,0 km/h (1 Bft) W 263 ° 0 min 51 W/m² 8,3 °C 9,1 °C 6,4 km/h (2 Bft)
17.02.2024 09:43 21,3 °C 9,2 °C 55 % 95 % 1027,2 hPa 0,0 l/m² 4,0 km/h (1 Bft) W 266 ° 0 min 42 W/m² 8,4 °C 9,2 °C 6,4 km/h (2 Bft)
17.02.2024 09:44 21,3 °C 9,2 °C 55 % 95 % 1027,2 hPa 0,0 l/m² 1,1 km/h (1 Bft) W 266 ° 0 min 40 W/m² 8,4 °C 9,2 °C 4,8 km/h (1 Bft)
17.02.2024 09:46 21,3 °C 9,2 °C 55 % 95 % 1027,2 hPa 0,0 l/m² 4,0 km/h (1 Bft) W 260 ° 0 min 40 W/m² 8,4 °C 9,2 °C 9,7 km/h (2 Bft)
17.02.2024 09:48 21,3 °C 9,3 °C 55 % 95 % 1027,2 hPa 0,0 l/m² 6,3 km/h (2 Bft) W-SW 251 ° 0 min 37 W/m² 8,5 °C 9,3 °C 8,0 km/h (2 Bft)
17.02.2024 09:50 21,3 °C 9,3 °C 55 % 95 % 1027,2 hPa 0,0 l/m² 4,6 km/h (1 Bft) W-SW 248 ° 0 min 33 W/m² 8,5 °C 9,3 °C 8,0 km/h (2 Bft)
17.02.2024 09:52 21,3 °C 9,3 °C 55 % 95 % 1027,3 hPa 0,0 l/m² 4,6 km/h (1 Bft) W-SW 248 ° 0 min 33 W/m² 8,5 °C 9,3 °C 6,4 km/h (2 Bft)
17.02.2024 09:54 21,3 °C 9,3 °C 56 % 94 % 1027,4 hPa 0,0 l/m² 6,0 km/h (2 Bft) W-SW 247 ° 0 min 37 W/m² 8,4 °C 9,3 °C 8,0 km/h (2 Bft)
17.02.2024 09:56 21,3 °C 9,3 °C 56 % 94 % 1027,4 hPa 0,0 l/m² 6,1 km/h (2 Bft) W-SW 242 ° 0 min 42 W/m² 8,4 °C 9,3 °C 11,3 km/h (2 Bft)
17.02.2024 09:58 21,3 °C 9,3 °C 56 % 94 % 1027,4 hPa 0,0 l/m² 8,0 km/h (2 Bft) W-SW 240 ° 0 min 40 W/m² 8,4 °C 8,1 °C 12,9 km/h (3 Bft)
17.02.2024 10:00 21,3 °C 9,3 °C 56 % 94 % 1027,5 hPa 0,0 l/m² 5,4 km/h (2 Bft) W-SW 240 ° 0 min 49 W/m² 8,4 °C 9,3 °C 8,0 km/h (2 Bft)
17.02.2024 10:02 21,3 °C 9,4 °C 55 % 94 % 1027,4 hPa 0,0 l/m² 4,7 km/h (1 Bft) W-SW 245 ° 2 min 60 W/m² 8,5 °C 9,4 °C 6,4 km/h (2 Bft)
17.02.2024 10:04 21,3 °C 9,4 °C 55 % 94 % 1027,5 hPa 0,0 l/m² 1,3 km/h (1 Bft) W-SW 247 ° 0 min 47 W/m² 8,5 °C 9,4 °C 6,4 km/h (2 Bft)
17.02.2024 10:06 21,3 °C 9,4 °C 55 % 94 % 1027,6 hPa 0,0 l/m² 2,3 km/h (1 Bft) W-SW 248 ° 0 min 39 W/m² 8,5 °C 9,4 °C 6,4 km/h (2 Bft)
17.02.2024 10:07 21,3 °C 9,4 °C 55 % 94 % 1027,6 hPa 0,0 l/m² 3,7 km/h (1 Bft) W-SW 248 ° 0 min 39 W/m² 8,5 °C 9,4 °C 8,0 km/h (2 Bft)
17.02.2024 10:09 21,3 °C 9,4 °C 55 % 94 % 1027,6 hPa 0,0 l/m² 4,1 km/h (1 Bft) W-SW 256 ° 0 min 46 W/m² 8,5 °C 9,4 °C 6,4 km/h (2 Bft)
17.02.2024 10:11 21,2 °C 9,4 °C 55 % 94 % 1027,6 hPa 0,0 l/m² 4,3 km/h (1 Bft) W 262 ° 2 min 54 W/m² 8,5 °C 9,4 °C 9,7 km/h (2 Bft)
17.02.2024 10:13 21,3 °C 9,5 °C 55 % 94 % 1027,6 hPa 0,0 l/m² 2,6 km/h (1 Bft) W 262 ° 2 min 70 W/m² 8,6 °C 9,5 °C 4,8 km/h (1 Bft)
17.02.2024 10:15 21,2 °C 9,5 °C 54 % 94 % 1027,7 hPa 0,0 l/m² 1,1 km/h (1 Bft) W 262 ° 2 min 72 W/m² 8,6 °C 9,5 °C 3,2 km/h (1 Bft)
17.02.2024 10:17 21,2 °C 9,6 °C 54 % 94 % 1027,7 hPa 0,0 l/m² 2,5 km/h (1 Bft) W 262 ° 2 min 79 W/m² 8,7 °C 9,6 °C 4,8 km/h (1 Bft)
17.02.2024 10:19 21,2 °C 9,6 °C 54 % 94 % 1027,7 hPa 0,0 l/m² 1,0 km/h (0 Bft) W 262 ° 2 min 84 W/m² 8,7 °C 9,6 °C 3,2 km/h (1 Bft)
17.02.2024 10:21 21,2 °C 9,6 °C 54 % 94 % 1027,7 hPa 0,0 l/m² 1,1 km/h (1 Bft) W 262 ° 2 min 79 W/m² 8,7 °C 9,6 °C 3,2 km/h (1 Bft)
17.02.2024 10:23 21,2 °C 9,7 °C 54 % 93 % 1027,7 hPa 0,0 l/m² 0,1 km/h (0 Bft) W 262 ° 2 min 63 W/m² 8,6 °C 9,7 °C 3,2 km/h (1 Bft)
17.02.2024 10:25 21,2 °C 9,7 °C 54 % 93 % 1027,8 hPa 0,0 l/m² 0,0 km/h (0 Bft) W 262 ° 2 min 62 W/m² 8,6 °C 9,7 °C 0,0 km/h (0 Bft)
17.02.2024 10:27 21,2 °C 9,7 °C 54 % 93 % 1027,8 hPa 0,0 l/m² 0,0 km/h (0 Bft) W 262 ° 2 min 62 W/m² 8,6 °C 9,7 °C 0,0 km/h (0 Bft)
17.02.2024 10:29 21,2 °C 9,7 °C 54 % 94 % 1027,8 hPa 0,0 l/m² 0,0 km/h (0 Bft) W 262 ° 2 min 62 W/m² 8,8 °C 9,7 °C 0,0 km/h (0 Bft)
17.02.2024 10:31 21,2 °C 9,7 °C 54 % 93 % 1027,8 hPa 0,0 l/m² 0,0 km/h (0 Bft) W 262 ° 2 min 63 W/m² 8,6 °C 9,7 °C 0,0 km/h (0 Bft)
17.02.2024 10:33 21,2 °C 9,8 °C 54 % 93 % 1027,8 hPa 0,0 l/m² 0,0 km/h (0 Bft) W 262 ° 0 min 46 W/m² 8,7 °C 9,8 °C 0,0 km/h (0 Bft)
17.02.2024 10:35 21,2 °C 9,8 °C 54 % 93 % 1027,9 hPa 0,0 l/m² 1,1 km/h (1 Bft) W 262 ° 0 min 44 W/m² 8,7 °C 9,8 °C 4,8 km/h (1 Bft)
17.02.2024 10:37 21,2 °C 9,8 °C 54 % 93 % 1027,9 hPa 0,0 l/m² 1,2 km/h (1 Bft) W 262 ° 2 min 95 W/m² 8,7 °C 9,8 °C 4,8 km/h (1 Bft)
17.02.2024 10:39 21,2 °C 9,8 °C 54 % 93 % 1027,9 hPa 0,0 l/m² 0,6 km/h (0 Bft) W 262 ° 2 min 135 W/m² 8,7 °C 9,8 °C 3,2 km/h (1 Bft)
17.02.2024 10:41 21,2 °C 9,9 °C 54 % 93 % 1027,9 hPa 0,0 l/m² 0,6 km/h (0 Bft) W 262 ° 2 min 178 W/m² 8,8 °C 9,9 °C 4,8 km/h (1 Bft)
17.02.2024 10:43 21,2 °C 10,1 °C 54 % 93 % 1027,8 hPa 0,0 l/m² 0,0 km/h (0 Bft) W 262 ° 2 min 195 W/m² 9,0 °C 10,1 °C 0,0 km/h (0 Bft)
17.02.2024 10:45 21,2 °C 10,2 °C 53 % 92 % 1027,8 hPa 0,0 l/m² 0,3 km/h (0 Bft) W 262 ° 2 min 195 W/m² 9,0 °C 10,2 °C 3,2 km/h (1 Bft)
17.02.2024 10:47 21,2 °C 10,3 °C 53 % 92 % 1027,9 hPa 0,0 l/m² 0,4 km/h (0 Bft) W 262 ° 2 min 185 W/m² 9,1 °C 10,3 °C 1,6 km/h (1 Bft)
17.02.2024 10:49 21,2 °C 10,5 °C 52 % 92 % 1027,9 hPa 0,0 l/m² 1,5 km/h (1 Bft) W 262 ° 2 min 188 W/m² 9,3 °C 10,5 °C 4,8 km/h (1 Bft)
17.02.2024 10:51 21,2 °C 10,6 °C 52 % 91 % 1028,0 hPa 0,0 l/m² 1,2 km/h (1 Bft) W 262 ° 2 min 185 W/m² 9,2 °C 10,6 °C 4,8 km/h (1 Bft)
17.02.2024 10:53 21,2 °C 10,6 °C 52 % 90 % 1027,9 hPa 0,0 l/m² 3,3 km/h (1 Bft) W 262 ° 2 min 176 W/m² 9,0 °C 10,6 °C 6,4 km/h (2 Bft)
17.02.2024 10:55 21,2 °C 10,6 °C 52 % 89 % 1028,0 hPa 0,0 l/m² 1,4 km/h (1 Bft) W 262 ° 2 min 204 W/m² 8,9 °C 10,6 °C 4,8 km/h (1 Bft)
17.02.2024 10:57 21,2 °C 10,7 °C 52 % 90 % 1028,1 hPa 0,0 l/m² 0,1 km/h (0 Bft) W 262 ° 2 min 211 W/m² 9,1 °C 10,7 °C 3,2 km/h (1 Bft)
17.02.2024 10:59 21,1 °C 10,7 °C 52 % 88 % 1028,1 hPa 0,0 l/m² 6,5 km/h (2 Bft) W 275 ° 2 min 209 W/m² 8,8 °C 10,7 °C 11,3 km/h (2 Bft)
17.02.2024 11:01 21,1 °C 10,8 °C 52 % 88 % 1028,2 hPa 0,0 l/m² 1,9 km/h (1 Bft) W 275 ° 2 min 188 W/m² 8,9 °C 10,8 °C 4,8 km/h (1 Bft)
17.02.2024 11:03 21,1 °C 10,8 °C 52 % 88 % 1028,2 hPa 0,0 l/m² 1,5 km/h (1 Bft) W 275 ° 2 min 183 W/m² 8,9 °C 10,8 °C 9,7 km/h (2 Bft)
17.02.2024 11:05 21,2 °C 10,9 °C 51 % 88 % 1028,2 hPa 0,0 l/m² 6,6 km/h (2 Bft) W 281 ° 2 min 162 W/m² 9,0 °C 10,8 °C 14,5 km/h (3 Bft)
17.02.2024 11:07 21,1 °C 10,9 °C 51 % 87 % 1028,2 hPa 0,0 l/m² 8,3 km/h (2 Bft) W 259 ° 2 min 181 W/m² 8,8 °C 9,6 °C 14,5 km/h (3 Bft)
17.02.2024 11:09 21,1 °C 10,9 °C 51 % 86 % 1028,2 hPa 0,0 l/m² 13,5 km/h (3 Bft) W 272 ° 2 min 162 W/m² 8,7 °C 6,9 °C 17,7 km/h (3 Bft)
17.02.2024 11:11 21,1 °C 10,9 °C 51 % 87 % 1028,4 hPa 0,0 l/m² 7,6 km/h (2 Bft) W 263 ° 2 min 148 W/m² 8,8 °C 10,1 °C 16,1 km/h (3 Bft)
17.02.2024 11:13 21,1 °C 10,9 °C 51 % 87 % 1028,4 hPa 0,0 l/m² 9,1 km/h (2 Bft) W 279 ° 2 min 186 W/m² 8,8 °C 9,1 °C 17,7 km/h (3 Bft)
17.02.2024 11:15 21,1 °C 10,9 °C 51 % 86 % 1028,5 hPa 0,0 l/m² 7,6 km/h (2 Bft) W 275 ° 2 min 199 W/m² 8,7 °C 10,1 °C 16,1 km/h (3 Bft)
17.02.2024 11:17 21,1 °C 10,9 °C 52 % 86 % 1028,4 hPa 0,0 l/m² 16,2 km/h (3 Bft) W 277 ° 2 min 243 W/m² 8,7 °C 5,8 °C 22,5 km/h (4 Bft)
17.02.2024 11:19 21,1 °C 10,9 °C 52 % 85 % 1028,6 hPa 0,0 l/m² 14,4 km/h (3 Bft) W 263 ° 2 min 292 W/m² 8,5 °C 6,5 °C 19,3 km/h (3 Bft)
17.02.2024 11:21 21,1 °C 11,1 °C 52 % 85 % 1028,6 hPa 0,0 l/m² 11,0 km/h (2 Bft) W 271 ° 2 min 279 W/m² 8,7 °C 8,3 °C 17,7 km/h (3 Bft)
17.02.2024 11:23 21,2 °C 11,2 °C 52 % 85 % 1028,6 hPa 0,0 l/m² 10,3 km/h (2 Bft) W-NW 296 ° 2 min 236 W/m² 8,8 °C 8,8 °C 16,1 km/h (3 Bft)
17.02.2024 11:25 21,2 °C 11,3 °C 52 % 85 % 1028,6 hPa 0,0 l/m² 12,9 km/h (3 Bft) W 263 ° 2 min 257 W/m² 8,9 °C 7,6 °C 22,5 km/h (4 Bft)
17.02.2024 11:27 21,2 °C 11,3 °C 52 % 84 % 1028,6 hPa 0,0 l/m² 8,0 km/h (2 Bft) NW 307 ° 2 min 364 W/m² 8,7 °C 10,2 °C 14,5 km/h (3 Bft)
17.02.2024 11:29 21,2 °C 11,3 °C 52 % 84 % 1028,6 hPa 0,0 l/m² 6,5 km/h (2 Bft) W-NW 292 ° 2 min 315 W/m² 8,7 °C 11,3 °C 16,1 km/h (3 Bft)
17.02.2024 11:31 21,2 °C 11,3 °C 52 % 84 % 1028,5 hPa 0,0 l/m² 14,4 km/h (3 Bft) W-NW 294 ° 2 min 232 W/m² 8,7 °C 7,0 °C 19,3 km/h (3 Bft)
17.02.2024 11:33 21,2 °C 11,3 °C 52 % 84 % 1028,6 hPa 0,0 l/m² 13,9 km/h (3 Bft) W 272 ° 2 min 207 W/m² 8,7 °C 7,2 °C 19,3 km/h (3 Bft)
17.02.2024 11:35 21,2 °C 11,3 °C 52 % 84 % 1028,7 hPa 0,0 l/m² 17,6 km/h (3 Bft) W 266 ° 2 min 204 W/m² 8,7 °C 5,7 °C 27,4 km/h (5 Bft)
17.02.2024 11:37 21,2 °C 11,3 °C 52 % 84 % 1028,8 hPa 0,0 l/m² 19,4 km/h (3 Bft) W 275 ° 2 min 186 W/m² 8,7 °C 5,2 °C 27,4 km/h (5 Bft)
17.02.2024 11:39 21,2 °C 11,3 °C 52 % 83 % 1028,7 hPa 0,0 l/m² 14,0 km/h (3 Bft) W-NW 292 ° 2 min 160 W/m² 8,5 °C 7,1 °C 22,5 km/h (4 Bft)
17.02.2024 11:41 21,2 °C 11,2 °C 52 % 84 % 1028,8 hPa 0,0 l/m² 5,3 km/h (1 Bft) W-NW 296 ° 2 min 139 W/m² 8,6 °C 11,2 °C 11,3 km/h (2 Bft)
17.02.2024 11:42 21,2 °C 11,2 °C 53 % 84 % 1028,8 hPa 0,0 l/m² 12,4 km/h (2 Bft) W-NW 302 ° 1 min 155 W/m² 8,6 °C 7,7 °C 17,7 km/h (3 Bft)
17.02.2024 11:43 21,2 °C 11,2 °C 53 % 84 % 1028,7 hPa 0,0 l/m² 12,1 km/h (2 Bft) W-NW 290 ° 1 min 167 W/m² 8,6 °C 7,8 °C 14,5 km/h (3 Bft)
17.02.2024 11:44 21,2 °C 11,2 °C 53 % 84 % 1028,7 hPa 0,0 l/m² 4,7 km/h (1 Bft) W-NW 292 ° 1 min 153 W/m² 8,6 °C 11,2 °C 9,7 km/h (2 Bft)
17.02.2024 11:46 21,2 °C 11,2 °C 53 % 85 % 1028,8 hPa 0,0 l/m² 11,6 km/h (2 Bft) W-NW 288 ° 2 min 142 W/m² 8,8 °C 8,1 °C 14,5 km/h (3 Bft)
17.02.2024 11:48 21,2 °C 11,2 °C 53 % 85 % 1028,8 hPa 0,0 l/m² 9,5 km/h (2 Bft) W 277 ° 2 min 174 W/m² 8,8 °C 9,2 °C 17,7 km/h (3 Bft)
17.02.2024 11:50 21,2 °C 11,2 °C 53 % 84 % 1028,8 hPa 0,0 l/m² 11,6 km/h (2 Bft) W-NW 284 ° 2 min 167 W/m² 8,6 °C 8,1 °C 17,7 km/h (3 Bft)
17.02.2024 11:52 21,2 °C 11,2 °C 53 % 84 % 1028,8 hPa 0,0 l/m² 10,2 km/h (2 Bft) W-NW 292 ° 2 min 171 W/m² 8,6 °C 8,8 °C 19,3 km/h (3 Bft)
17.02.2024 11:54 21,2 °C 11,2 °C 53 % 84 % 1028,8 hPa 0,0 l/m² 8,9 km/h (2 Bft) W 271 ° 2 min 148 W/m² 8,6 °C 9,6 °C 17,7 km/h (3 Bft)
17.02.2024 11:56 21,2 °C 11,2 °C 53 % 84 % 1028,8 hPa 0,0 l/m² 6,8 km/h (2 Bft) W 267 ° 2 min 146 W/m² 8,6 °C 10,9 °C 16,1 km/h (3 Bft)
17.02.2024 11:58 21,2 °C 11,2 °C 53 % 84 % 1029,0 hPa 0,0 l/m² 6,8 km/h (2 Bft) W-NW 298 ° 2 min 135 W/m² 8,6 °C 10,9 °C 14,5 km/h (3 Bft)
17.02.2024 12:00 21,2 °C 11,1 °C 53 % 84 % 1028,9 hPa 0,0 l/m² 5,8 km/h (2 Bft) W-NW 297 ° 2 min 146 W/m² 8,5 °C 11,1 °C 14,5 km/h (3 Bft)
17.02.2024 12:02 21,2 °C 11,1 °C 53 % 83 % 1028,9 hPa 0,0 l/m² 7,8 km/h (2 Bft) N-NW 338 ° 2 min 146 W/m² 8,3 °C 10,1 °C 17,7 km/h (3 Bft)
17.02.2024 12:04 21,2 °C 11,1 °C 53 % 83 % 1029,0 hPa 0,0 l/m² 6,7 km/h (2 Bft) W-NW 295 ° 2 min 169 W/m² 8,3 °C 10,9 °C 14,5 km/h (3 Bft)
17.02.2024 12:06 21,2 °C 11,1 °C 53 % 83 % 1029,0 hPa 0,0 l/m² 11,9 km/h (2 Bft) W-NW 293 ° 2 min 179 W/m² 8,3 °C 7,8 °C 20,9 km/h (4 Bft)
17.02.2024 12:08 21,2 °C 11,1 °C 53 % 83 % 1028,9 hPa 0,0 l/m² 15,1 km/h (3 Bft) W 275 ° 2 min 185 W/m² 8,3 °C 6,4 °C 20,9 km/h (4 Bft)
17.02.2024 12:10 21,2 °C 11,1 °C 53 % 83 % 1029,0 hPa 0,0 l/m² 11,2 km/h (2 Bft) W 279 ° 2 min 193 W/m² 8,3 °C 8,2 °C 17,7 km/h (3 Bft)
17.02.2024 12:12 21,2 °C 11,2 °C 53 % 83 % 1029,0 hPa 0,0 l/m² 14,2 km/h (3 Bft) W-NW 289 ° 2 min 230 W/m² 8,4 °C 6,9 °C 20,9 km/h (4 Bft)
17.02.2024 12:14 21,2 °C 11,2 °C 53 % 83 % 1029,0 hPa 0,0 l/m² 12,6 km/h (3 Bft) W 280 ° 2 min 213 W/m² 8,4 °C 7,6 °C 20,9 km/h (4 Bft)
17.02.2024 12:16 21,2 °C 11,2 °C 53 % 83 % 1029,0 hPa 0,0 l/m² 9,0 km/h (2 Bft) W-NW 291 ° 2 min 234 W/m² 8,4 °C 9,5 °C 20,9 km/h (4 Bft)
17.02.2024 12:18 21,2 °C 11,2 °C 53 % 83 % 1028,9 hPa 0,0 l/m² 8,1 km/h (2 Bft) W 281 ° 2 min 271 W/m² 8,4 °C 10,0 °C 14,5 km/h (3 Bft)
17.02.2024 12:20 21,2 °C 11,3 °C 53 % 83 % 1029,0 hPa 0,0 l/m² 9,4 km/h (2 Bft) W-NW 302 ° 2 min 411 W/m² 8,5 °C 9,4 °C 19,3 km/h (3 Bft)
17.02.2024 12:22 21,2 °C 11,4 °C 53 % 82 % 1029,0 hPa 0,0 l/m² 13,1 km/h (3 Bft) NW 304 ° 2 min 248 W/m² 8,4 °C 7,6 °C 19,3 km/h (3 Bft)
17.02.2024 12:24 21,2 °C 11,5 °C 53 % 82 % 1028,9 hPa 0,0 l/m² 14,7 km/h (3 Bft) W 273 ° 2 min 258 W/m² 8,5 °C 7,1 °C 22,5 km/h (4 Bft)
17.02.2024 12:26 21,2 °C 11,6 °C 53 % 81 % 1028,9 hPa 0,0 l/m² 11,2 km/h (2 Bft) W-NW 293 ° 2 min 501 W/m² 8,5 °C 8,7 °C 22,5 km/h (4 Bft)
17.02.2024 12:28 21,2 °C 11,8 °C 53 % 82 % 1028,9 hPa 0,0 l/m² 15,5 km/h (3 Bft) NW 321 ° 2 min 599 W/m² 8,8 °C 7,1 °C 22,5 km/h (4 Bft)
17.02.2024 12:30 21,3 °C 12,1 °C 53 % 82 % 1028,9 hPa 0,0 l/m² 9,6 km/h (2 Bft) NW 314 ° 2 min 599 W/m² 9,1 °C 10,1 °C 22,5 km/h (4 Bft)
17.02.2024 12:32 21,3 °C 12,1 °C 52 % 81 % 1028,9 hPa 0,0 l/m² 9,8 km/h (2 Bft) NW 305 ° 2 min 359 W/m² 8,9 °C 10,0 °C 22,5 km/h (4 Bft)
17.02.2024 12:34 21,3 °C 12,1 °C 51 % 80 % 1028,9 hPa 0,0 l/m² 16,1 km/h (3 Bft) NW 321 ° 2 min 480 W/m² 8,8 °C 7,3 °C 24,1 km/h (4 Bft)
17.02.2024 12:36 21,3 °C 12,1 °C 50 % 81 % 1029,0 hPa 0,0 l/m² 14,4 km/h (3 Bft) NW 324 ° 2 min 480 W/m² 8,9 °C 7,9 °C 22,5 km/h (4 Bft)
17.02.2024 12:38 21,3 °C 12,1 °C 50 % 80 % 1029,0 hPa 0,0 l/m² 11,2 km/h (2 Bft) W-NW 294 ° 2 min 258 W/m² 8,8 °C 9,3 °C 20,9 km/h (4 Bft)
17.02.2024 12:40 21,3 °C 11,9 °C 51 % 80 % 1028,9 hPa 0,0 l/m² 14,8 km/h (3 Bft) W 281 ° 2 min 619 W/m² 8,6 °C 7,5 °C 25,7 km/h (4 Bft)
17.02.2024 12:42 21,3 °C 12,0 °C 52 % 80 % 1029,0 hPa 0,0 l/m² 14,0 km/h (3 Bft) NW 304 ° 2 min 621 W/m² 8,7 °C 8,0 °C 24,1 km/h (4 Bft)
17.02.2024 12:44 21,3 °C 12,1 °C 52 % 79 % 1029,1 hPa 0,0 l/m² 14,7 km/h (3 Bft) NW 323 ° 2 min 621 W/m² 8,6 °C 7,8 °C 25,7 km/h (4 Bft)
17.02.2024 12:46 21,4 °C 11,9 °C 53 % 79 % 1029,0 hPa 0,0 l/m² 11,5 km/h (2 Bft) W-NW 298 ° 2 min 172 W/m² 8,4 °C 8,9 °C 20,9 km/h (4 Bft)
17.02.2024 12:48 21,4 °C 11,8 °C 53 % 80 % 1029,1 hPa 0,0 l/m² 14,3 km/h (3 Bft) NW 312 ° 2 min 199 W/m² 8,5 °C 7,6 °C 20,9 km/h (4 Bft)
17.02.2024 12:50 21,4 °C 11,9 °C 53 % 80 % 1029,1 hPa 0,0 l/m² 14,8 km/h (3 Bft) NW 317 ° 2 min 524 W/m² 8,6 °C 7,5 °C 29,0 km/h (5 Bft)
17.02.2024 12:52 21,4 °C 12,2 °C 53 % 81 % 1029,1 hPa 0,0 l/m² 10,0 km/h (2 Bft) W-NW 301 ° 2 min 570 W/m² 9,0 °C 10,0 °C 22,5 km/h (4 Bft)
17.02.2024 12:54 21,4 °C 12,2 °C 53 % 79 % 1029,2 hPa 0,0 l/m² 16,2 km/h (3 Bft) W 281 ° 2 min 563 W/m² 8,7 °C 7,4 °C 25,7 km/h (4 Bft)
17.02.2024 12:56 21,6 °C 12,2 °C 53 % 79 % 1029,2 hPa 0,0 l/m² 12,8 km/h (3 Bft) W-NW 287 ° 2 min 563 W/m² 8,7 °C 8,7 °C 20,9 km/h (4 Bft)
17.02.2024 12:58 21,6 °C 12,2 °C 53 % 80 % 1029,2 hPa 0,0 l/m² 10,4 km/h (2 Bft) NW 311 ° 2 min 267 W/m² 8,9 °C 9,8 °C 24,1 km/h (4 Bft)
17.02.2024 13:00 21,6 °C 12,1 °C 53 % 79 % 1029,2 hPa 0,0 l/m² 14,2 km/h (3 Bft) W-NW 282 ° 2 min 267 W/m² 8,6 °C 8,0 °C 22,5 km/h (4 Bft)
17.02.2024 13:02 21,6 °C 12,1 °C 53 % 79 % 1029,1 hPa 0,0 l/m² 12,3 km/h (2 Bft) W 279 ° 2 min 610 W/m² 8,6 °C 8,8 °C 24,1 km/h (4 Bft)
17.02.2024 13:04 21,6 °C 12,1 °C 53 % 79 % 1029,1 hPa 0,0 l/m² 10,2 km/h (2 Bft) NW 306 ° 2 min 554 W/m² 8,6 °C 9,8 °C 19,3 km/h (3 Bft)
17.02.2024 13:06 21,7 °C 12,2 °C 53 % 80 % 1029,2 hPa 0,0 l/m² 11,6 km/h (2 Bft) NW 310 ° 2 min 594 W/m² 8,9 °C 9,2 °C 17,7 km/h (3 Bft)
17.02.2024 13:08 21,7 °C 12,4 °C 53 % 79 % 1029,2 hPa 0,0 l/m² 9,3 km/h (2 Bft) NW 325 ° 2 min 548 W/m² 8,9 °C 10,6 °C 16,1 km/h (3 Bft)
17.02.2024 13:10 21,7 °C 12,5 °C 53 % 79 % 1029,1 hPa 0,0 l/m² 14,9 km/h (3 Bft) NW 317 ° 2 min 531 W/m² 9,0 °C 8,2 °C 20,9 km/h (4 Bft)
17.02.2024 13:12 21,7 °C 12,5 °C 53 % 78 % 1029,1 hPa 0,0 l/m² 14,3 km/h (3 Bft) N-NW 330 ° 2 min 512 W/m² 8,8 °C 8,4 °C 24,1 km/h (4 Bft)
17.02.2024 13:14 21,7 °C 12,6 °C 53 % 78 % 1029,2 hPa 0,0 l/m² 12,8 km/h (3 Bft) NW 315 ° 2 min 606 W/m² 8,9 °C 9,2 °C 24,1 km/h (4 Bft)
17.02.2024 13:16 21,7 °C 12,5 °C 53 % 77 % 1029,2 hPa 0,0 l/m² 17,8 km/h (3 Bft) W 275 ° 2 min 615 W/m² 8,6 °C 7,2 °C 29,0 km/h (5 Bft)
17.02.2024 13:18 21,8 °C 12,6 °C 53 % 77 % 1029,3 hPa 0,0 l/m² 15,4 km/h (3 Bft) W-NW 294 ° 2 min 610 W/m² 8,7 °C 8,1 °C 27,4 km/h (5 Bft)
17.02.2024 13:20 21,7 °C 12,5 °C 52 % 77 % 1029,3 hPa 0,0 l/m² 12,7 km/h (3 Bft) NW 319 ° 2 min 199 W/m² 8,6 °C 9,1 °C 20,9 km/h (4 Bft)
17.02.2024 13:22 21,7 °C 12,3 °C 52 % 78 % 1029,2 hPa 0,0 l/m² 11,9 km/h (2 Bft) W 261 ° 2 min 213 W/m² 8,6 °C 9,2 °C 19,3 km/h (3 Bft)
17.02.2024 13:24 21,7 °C 12,4 °C 52 % 79 % 1029,3 hPa 0,0 l/m² 12,3 km/h (2 Bft) W-NW 296 ° 2 min 214 W/m² 8,9 °C 9,1 °C 22,5 km/h (4 Bft)
17.02.2024 13:26 21,7 °C 12,2 °C 52 % 78 % 1029,3 hPa 0,0 l/m² 14,3 km/h (3 Bft) W-NW 294 ° 2 min 288 W/m² 8,5 °C 8,1 °C 22,5 km/h (4 Bft)
17.02.2024 13:28 21,7 °C 12,2 °C 52 % 79 % 1029,3 hPa 0,0 l/m² 11,4 km/h (2 Bft) W 275 ° 2 min 323 W/m² 8,7 °C 9,3 °C 17,7 km/h (3 Bft)
17.02.2024 13:30 21,7 °C 12,1 °C 52 % 79 % 1029,4 hPa 0,0 l/m² 11,5 km/h (2 Bft) W-NW 300 ° 2 min 192 W/m² 8,6 °C 9,2 °C 20,9 km/h (4 Bft)
17.02.2024 13:32 21,7 °C 11,9 °C 53 % 79 % 1029,4 hPa 0,0 l/m² 17,3 km/h (3 Bft) W 278 ° 2 min 213 W/m² 8,4 °C 6,6 °C 25,7 km/h (4 Bft)
17.02.2024 13:34 21,7 °C 11,9 °C 53 % 79 % 1029,4 hPa 0,0 l/m² 13,1 km/h (3 Bft) NW 315 ° 2 min 204 W/m² 8,4 °C 8,2 °C 22,5 km/h (4 Bft)
17.02.2024 13:36 21,7 °C 11,8 °C 53 % 79 % 1029,4 hPa 0,0 l/m² 13,3 km/h (3 Bft) W-NW 290 ° 2 min 232 W/m² 8,3 °C 8,0 °C 20,9 km/h (4 Bft)
17.02.2024 13:38 21,7 °C 11,8 °C 53 % 79 % 1029,4 hPa 0,0 l/m² 11,5 km/h (2 Bft) W-NW 298 ° 2 min 244 W/m² 8,3 °C 8,8 °C 19,3 km/h (3 Bft)
17.02.2024 13:40 21,7 °C 11,9 °C 53 % 79 % 1029,4 hPa 0,0 l/m² 16,5 km/h (3 Bft) NW 310 ° 2 min 255 W/m² 8,4 °C 6,9 °C 25,7 km/h (4 Bft)
17.02.2024 13:42 21,7 °C 11,9 °C 53 % 79 % 1029,5 hPa 0,0 l/m² 13,1 km/h (3 Bft) W 272 ° 2 min 183 W/m² 8,4 °C 8,2 °C 19,3 km/h (3 Bft)
17.02.2024 13:44 21,6 °C 11,9 °C 53 % 78 % 1029,4 hPa 0,0 l/m² 11,0 km/h (2 Bft) NW 323 ° 2 min 176 W/m² 8,2 °C 9,2 °C 20,9 km/h (4 Bft)
17.02.2024 13:46 21,7 °C 11,8 °C 53 % 79 % 1029,5 hPa 0,0 l/m² 7,5 km/h (2 Bft) NW 309 ° 2 min 197 W/m² 8,3 °C 11,1 °C 17,7 km/h (3 Bft)
17.02.2024 13:47 21,7 °C 11,8 °C 53 % 79 % 1029,5 hPa 0,0 l/m² 7,6 km/h (2 Bft) NW 315 ° 1 min 202 W/m² 8,3 °C 11,0 °C 14,5 km/h (3 Bft)
17.02.2024 13:49 21,6 °C 11,8 °C 53 % 79 % 1029,5 hPa 0,0 l/m² 10,5 km/h (2 Bft) W 281 ° 2 min 221 W/m² 8,3 °C 9,3 °C 19,3 km/h (3 Bft)
17.02.2024 13:51 21,7 °C 11,8 °C 53 % 79 % 1029,5 hPa 0,0 l/m² 9,2 km/h (2 Bft) W-NW 296 ° 2 min 221 W/m² 8,3 °C 10,0 °C 14,5 km/h (3 Bft)
17.02.2024 13:53 21,6 °C 11,9 °C 53 % 79 % 1029,5 hPa 0,0 l/m² 7,1 km/h (2 Bft) W-NW 302 ° 2 min 257 W/m² 8,4 °C 11,4 °C 12,9 km/h (3 Bft)
17.02.2024 13:55 21,7 °C 12,1 °C 53 % 79 % 1029,5 hPa 0,0 l/m² 9,9 km/h (2 Bft) W-NW 284 ° 2 min 287 W/m² 8,6 °C 10,0 °C 19,3 km/h (3 Bft)
17.02.2024 13:57 21,7 °C 12,2 °C 53 % 79 % 1029,5 hPa 0,0 l/m² 10,8 km/h (2 Bft) W 281 ° 2 min 237 W/m² 8,7 °C 9,6 °C 20,9 km/h (4 Bft)
17.02.2024 13:59 21,6 °C 12,2 °C 53 % 77 % 1029,5 hPa 0,0 l/m² 11,0 km/h (2 Bft) W-NW 299 ° 2 min 221 W/m² 8,3 °C 9,5 °C 17,7 km/h (3 Bft)
17.02.2024 14:01 21,7 °C 12,2 °C 53 % 77 % 1029,5 hPa 0,0 l/m² 10,3 km/h (2 Bft) W-NW 285 ° 2 min 146 W/m² 8,3 °C 9,9 °C 17,7 km/h (3 Bft)
17.02.2024 14:03 21,6 °C 12,1 °C 53 % 77 % 1029,6 hPa 0,0 l/m² 10,7 km/h (2 Bft) W-NW 289 ° 2 min 163 W/m² 8,2 °C 9,6 °C 17,7 km/h (3 Bft)
17.02.2024 14:05 21,6 °C 12,1 °C 53 % 78 % 1029,5 hPa 0,0 l/m² 11,1 km/h (2 Bft) NW 313 ° 2 min 151 W/m² 8,4 °C 9,4 °C 19,3 km/h (3 Bft)
17.02.2024 14:06 21,6 °C 12,0 °C 53 % 77 % 1029,5 hPa 0,0 l/m² 11,4 km/h (2 Bft) W 270 ° 1 min 132 W/m² 8,1 °C 9,1 °C 20,9 km/h (4 Bft)
17.02.2024 14:07 21,6 °C 11,9 °C 53 % 77 % 1029,5 hPa 0,0 l/m² 6,7 km/h (2 Bft) W-NW 300 ° 1 min 128 W/m² 8,0 °C 11,7 °C 9,7 km/h (2 Bft)
17.02.2024 14:08 21,6 °C 11,9 °C 53 % 77 % 1029,5 hPa 0,0 l/m² 11,4 km/h (2 Bft) NW 304 ° 1 min 132 W/m² 8,0 °C 9,0 °C 17,7 km/h (3 Bft)
17.02.2024 14:09 21,6 °C 11,9 °C 53 % 78 % 1029,5 hPa 0,0 l/m² 13,0 km/h (3 Bft) NW 307 ° 1 min 132 W/m² 8,2 °C 8,3 °C 19,3 km/h (3 Bft)
17.02.2024 14:10 21,6 °C 11,8 °C 53 % 78 % 1029,5 hPa 0,0 l/m² 10,3 km/h (2 Bft) W-NW 299 ° 1 min 132 W/m² 8,1 °C 9,4 °C 19,3 km/h (3 Bft)
17.02.2024 14:11 21,6 °C 11,8 °C 53 % 78 % 1029,5 hPa 0,0 l/m² 10,5 km/h (2 Bft) W 260 ° 1 min 139 W/m² 8,1 °C 9,3 °C 20,9 km/h (4 Bft)
17.02.2024 14:12 21,6 °C 11,7 °C 53 % 78 % 1029,5 hPa 0,0 l/m² 11,0 km/h (2 Bft) NW 310 ° 1 min 169 W/m² 8,0 °C 9,0 °C 20,9 km/h (4 Bft)
17.02.2024 14:13 21,6 °C 11,7 °C 53 % 77 % 1029,6 hPa 0,0 l/m² 12,9 km/h (3 Bft) NW 308 ° 1 min 130 W/m² 7,8 °C 8,1 °C 19,3 km/h (3 Bft)
17.02.2024 14:14 21,6 °C 11,7 °C 53 % 78 % 1029,6 hPa 0,0 l/m² 9,5 km/h (2 Bft) W-NW 298 ° 1 min 149 W/m² 8,0 °C 9,7 °C 16,1 km/h (3 Bft)
17.02.2024 14:15 21,6 °C 11,7 °C 53 % 78 % 1029,6 hPa 0,0 l/m² 8,0 km/h (2 Bft) W-NW 290 ° 1 min 149 W/m² 8,0 °C 10,6 °C 14,5 km/h (3 Bft)
17.02.2024 14:16 21,6 °C 11,7 °C 53 % 78 % 1029,6 hPa 0,0 l/m² 10,3 km/h (2 Bft) NW 314 ° 1 min 149 W/m² 8,0 °C 9,3 °C 17,7 km/h (3 Bft)
17.02.2024 14:17 21,6 °C 11,8 °C 53 % 78 % 1029,6 hPa 0,0 l/m² 8,0 km/h (2 Bft) W 277 ° 1 min 158 W/m² 8,1 °C 10,7 °C 14,5 km/h (3 Bft)
17.02.2024 14:18 21,6 °C 11,8 °C 53 % 78 % 1029,6 hPa 0,0 l/m² 9,9 km/h (2 Bft) W-NW 299 ° 1 min 169 W/m² 8,1 °C 9,6 °C 14,5 km/h (3 Bft)
17.02.2024 14:19 21,6 °C 11,8 °C 53 % 77 % 1029,7 hPa 0,0 l/m² 9,3 km/h (2 Bft) W-NW 283 ° 1 min 165 W/m² 7,9 °C 10,0 °C 16,1 km/h (3 Bft)
17.02.2024 14:20 21,6 °C 11,8 °C 53 % 78 % 1029,7 hPa 0,0 l/m² 6,9 km/h (2 Bft) W-NW 296 ° 1 min 160 W/m² 8,1 °C 11,5 °C 14,5 km/h (3 Bft)
17.02.2024 14:21 21,6 °C 11,8 °C 53 % 78 % 1029,6 hPa 0,0 l/m² 8,6 km/h (2 Bft) NW 304 ° 1 min 141 W/m² 8,1 °C 10,4 °C 17,7 km/h (3 Bft)
17.02.2024 14:22 21,6 °C 11,8 °C 53 % 78 % 1029,6 hPa 0,0 l/m² 8,9 km/h (2 Bft) NW 317 ° 1 min 141 W/m² 8,1 °C 10,2 °C 12,9 km/h (3 Bft)
17.02.2024 14:23 21,6 °C 11,8 °C 53 % 77 % 1029,6 hPa 0,0 l/m² 12,8 km/h (3 Bft) W-NW 285 ° 1 min 141 W/m² 7,9 °C 8,2 °C 19,3 km/h (3 Bft)
17.02.2024 14:24 21,6 °C 11,8 °C 53 % 77 % 1029,6 hPa 0,0 l/m² 14,1 km/h (3 Bft) W 269 ° 1 min 141 W/m² 7,9 °C 7,7 °C 20,9 km/h (4 Bft)
17.02.2024 14:25 21,6 °C 11,7 °C 53 % 78 % 1029,6 hPa 0,0 l/m² 15,4 km/h (3 Bft) W 280 ° 1 min 97 W/m² 8,0 °C 7,0 °C 19,3 km/h (3 Bft)
17.02.2024 14:26 21,7 °C 11,7 °C 53 % 77 % 1029,6 hPa 0,0 l/m² 13,3 km/h (3 Bft) W 281 ° 1 min 98 W/m² 7,8 °C 7,9 °C 20,9 km/h (4 Bft)
17.02.2024 14:27 21,6 °C 11,7 °C 53 % 77 % 1029,6 hPa 0,0 l/m² 13,7 km/h (3 Bft) W 279 ° 1 min 98 W/m² 7,8 °C 7,7 °C 19,3 km/h (3 Bft)
17.02.2024 14:28 21,6 °C 11,6 °C 53 % 77 % 1029,6 hPa 0,0 l/m² 9,3 km/h (2 Bft) W-NW 284 ° 1 min 98 W/m² 7,7 °C 9,8 °C 17,7 km/h (3 Bft)
17.02.2024 14:29 21,6 °C 11,6 °C 53 % 77 % 1029,6 hPa 0,0 l/m² 13,1 km/h (3 Bft) W-NW 296 ° 1 min 97 W/m² 7,7 °C 7,9 °C 22,5 km/h (4 Bft)
17.02.2024 14:30 21,6 °C 11,6 °C 53 % 77 % 1029,7 hPa 0,0 l/m² 13,4 km/h (3 Bft) W 280 ° 1 min 120 W/m² 7,7 °C 7,7 °C 22,5 km/h (4 Bft)
17.02.2024 14:31 21,6 °C 11,5 °C 53 % 76 % 1029,6 hPa 0,0 l/m² 12,9 km/h (3 Bft) W-NW 296 ° 1 min 118 W/m² 7,4 °C 7,8 °C 17,7 km/h (3 Bft)
17.02.2024 14:32 21,6 °C 11,5 °C 53 % 77 % 1029,7 hPa 0,0 l/m² 14,6 km/h (3 Bft) W 273 ° 1 min 123 W/m² 7,6 °C 7,1 °C 22,5 km/h (4 Bft)
17.02.2024 14:33 21,6 °C 11,5 °C 53 % 76 % 1029,7 hPa 0,0 l/m² 14,0 km/h (3 Bft) W-NW 284 ° 1 min 123 W/m² 7,4 °C 7,4 °C 20,9 km/h (4 Bft)
17.02.2024 14:34 21,6 °C 11,5 °C 53 % 76 % 1029,7 hPa 0,0 l/m² 11,8 km/h (2 Bft) NW 323 ° 1 min 123 W/m² 7,4 °C 8,3 °C 16,1 km/h (3 Bft)
17.02.2024 14:35 21,6 °C 11,5 °C 53 % 76 % 1029,7 hPa 0,0 l/m² 13,5 km/h (3 Bft) W 278 ° 1 min 107 W/m² 7,4 °C 7,6 °C 20,9 km/h (4 Bft)
17.02.2024 14:36 21,6 °C 11,5 °C 53 % 76 % 1029,7 hPa 0,0 l/m² 14,8 km/h (3 Bft) W 277 ° 1 min 172 W/m² 7,4 °C 7,0 °C 20,9 km/h (4 Bft)
17.02.2024 14:37 21,6 °C 11,5 °C 53 % 76 % 1029,7 hPa 0,0 l/m² 14,6 km/h (3 Bft) W-NW 291 ° 1 min 156 W/m² 7,4 °C 7,1 °C 20,9 km/h (4 Bft)
17.02.2024 14:38 21,6 °C 11,6 °C 53 % 76 % 1029,8 hPa 0,0 l/m² 9,5 km/h (2 Bft) W-NW 287 ° 1 min 156 W/m² 7,5 °C 9,6 °C 14,5 km/h (3 Bft)
17.02.2024 14:39 21,6 °C 11,7 °C 53 % 77 % 1029,7 hPa 0,0 l/m² 14,8 km/h (3 Bft) W 268 ° 1 min 404 W/m² 7,8 °C 7,3 °C 20,9 km/h (4 Bft)
17.02.2024 14:40 21,7 °C 11,8 °C 53 % 76 % 1029,8 hPa 0,0 l/m² 14,5 km/h (3 Bft) W 263 ° 1 min 427 W/m² 7,7 °C 7,5 °C 22,5 km/h (4 Bft)
17.02.2024 14:41 21,6 °C 11,9 °C 53 % 76 % 1029,8 hPa 0,0 l/m² 9,8 km/h (2 Bft) W 273 ° 1 min 424 W/m² 7,8 °C 9,8 °C 20,9 km/h (4 Bft)
17.02.2024 14:42 21,6 °C 12,1 °C 53 % 76 % 1029,8 hPa 0,0 l/m² 10,3 km/h (2 Bft) W-NW 291 ° 1 min 216 W/m² 8,0 °C 9,8 °C 22,5 km/h (4 Bft)
17.02.2024 14:43 21,6 °C 12,2 °C 53 % 76 % 1029,9 hPa 0,0 l/m² 19,6 km/h (3 Bft) W 267 ° 1 min 216 W/m² 8,1 °C 6,2 °C 29,0 km/h (5 Bft)
17.02.2024 14:44 21,6 °C 12,2 °C 52 % 75 % 1029,8 hPa 0,0 l/m² 22,6 km/h (4 Bft) W 264 ° 1 min 211 W/m² 7,9 °C 5,4 °C 30,6 km/h (5 Bft)
17.02.2024 14:45 21,6 °C 12,1 °C 52 % 75 % 1029,8 hPa 0,0 l/m² 18,9 km/h (3 Bft) W-NW 294 ° 1 min 204 W/m² 7,8 °C 6,3 °C 24,1 km/h (4 Bft)
17.02.2024 14:46 21,6 °C 12,1 °C 52 % 74 % 1029,8 hPa 0,0 l/m² 17,8 km/h (3 Bft) W-NW 283 ° 1 min 193 W/m² 7,6 °C 6,7 °C 20,9 km/h (4 Bft)
17.02.2024 14:47 21,6 °C 12,1 °C 52 % 75 % 1029,8 hPa 0,0 l/m² 11,3 km/h (2 Bft) W-NW 298 ° 1 min 183 W/m² 7,8 °C 9,3 °C 17,7 km/h (3 Bft)
17.02.2024 14:48 21,6 °C 12,1 °C 52 % 75 % 1029,9 hPa 0,0 l/m² 17,0 km/h (3 Bft) NW 320 ° 1 min 158 W/m² 7,8 °C 7,0 °C 24,1 km/h (4 Bft)
17.02.2024 14:49 21,6 °C 12,1 °C 52 % 74 % 1029,9 hPa 0,0 l/m² 16,2 km/h (3 Bft) W 281 ° 1 min 134 W/m² 7,6 °C 7,2 °C 24,1 km/h (4 Bft)
17.02.2024 14:50 21,6 °C 12,1 °C 52 % 74 % 1029,9 hPa 0,0 l/m² 14,0 km/h (3 Bft) NW 305 ° 1 min 109 W/m² 7,6 °C 8,1 °C 22,5 km/h (4 Bft)
17.02.2024 14:51 21,6 °C 12,0 °C 52 % 74 % 1030,0 hPa 0,0 l/m² 14,1 km/h (3 Bft) W-NW 282 ° 1 min 155 W/m² 7,5 °C 7,9 °C 22,5 km/h (4 Bft)
17.02.2024 14:52 21,6 °C 11,9 °C 52 % 74 % 1030,0 hPa 0,0 l/m² 9,1 km/h (2 Bft) W 274 ° 1 min 206 W/m² 7,4 °C 10,2 °C 14,5 km/h (3 Bft)
17.02.2024 14:53 21,6 °C 11,9 °C 52 % 75 % 1030,0 hPa 0,0 l/m² 10,6 km/h (2 Bft) W 275 ° 1 min 206 W/m² 7,6 °C 9,4 °C 16,1 km/h (3 Bft)
17.02.2024 14:54 21,6 °C 11,9 °C 52 % 75 % 1030,0 hPa 0,0 l/m² 14,9 km/h (3 Bft) W-NW 287 ° 1 min 97 W/m² 7,6 °C 7,5 °C 22,5 km/h (4 Bft)
17.02.2024 14:55 21,6 °C 11,8 °C 52 % 74 % 1030,0 hPa 0,0 l/m² 10,4 km/h (2 Bft) W-NW 294 ° 1 min 104 W/m² 7,3 °C 9,4 °C 19,3 km/h (3 Bft)
17.02.2024 14:56 21,6 °C 11,8 °C 52 % 74 % 1030,0 hPa 0,0 l/m² 10,6 km/h (2 Bft) NW 310 ° 1 min 118 W/m² 7,3 °C 9,3 °C 19,3 km/h (3 Bft)
17.02.2024 14:57 21,6 °C 11,8 °C 52 % 74 % 1030,0 hPa 0,0 l/m² 16,1 km/h (3 Bft) W-NW 292 ° 1 min 125 W/m² 7,3 °C 6,9 °C 22,5 km/h (4 Bft)
17.02.2024 14:58 21,6 °C 11,8 °C 52 % 74 % 1030,0 hPa 0,0 l/m² 13,1 km/h (3 Bft) W 281 ° 1 min 135 W/m² 7,3 °C 8,1 °C 20,9 km/h (4 Bft)
17.02.2024 14:59 21,6 °C 11,7 °C 52 % 75 % 1030,0 hPa 0,0 l/m² 11,9 km/h (2 Bft) W 280 ° 1 min 148 W/m² 7,4 °C 8,5 °C 20,9 km/h (4 Bft)
17.02.2024 15:00 21,6 °C 11,7 °C 52 % 75 % 1030,0 hPa 0,0 l/m² 12,7 km/h (3 Bft) W-NW 284 ° 1 min 155 W/m² 7,4 °C 8,2 °C 19,3 km/h (3 Bft)
17.02.2024 15:01 21,6 °C 11,7 °C 52 % 75 % 1030,0 hPa 0,0 l/m² 11,1 km/h (2 Bft) W 277 ° 1 min 155 W/m² 7,4 °C 8,9 °C 17,7 km/h (3 Bft)
17.02.2024 15:02 21,6 °C 11,7 °C 52 % 75 % 1030,0 hPa 0,0 l/m² 11,5 km/h (2 Bft) W 273 ° 1 min 155 W/m² 7,4 °C 8,7 °C 16,1 km/h (3 Bft)
17.02.2024 15:03 21,6 °C 11,8 °C 52 % 76 % 1030,0 hPa 0,0 l/m² 12,3 km/h (2 Bft) W 276 ° 1 min 155 W/m² 7,7 °C 8,4 °C 19,3 km/h (3 Bft)
17.02.2024 15:04 21,6 °C 11,8 °C 52 % 75 % 1030,0 hPa 0,0 l/m² 16,6 km/h (3 Bft) W 275 ° 1 min 155 W/m² 7,5 °C 6,7 °C 22,5 km/h (4 Bft)
17.02.2024 15:05 21,6 °C 11,9 °C 52 % 75 % 1030,0 hPa 0,0 l/m² 11,2 km/h (2 Bft) W-NW 286 ° 1 min 230 W/m² 7,6 °C 9,1 °C 17,7 km/h (3 Bft)
17.02.2024 15:06 21,6 °C 12,1 °C 52 % 74 % 1030,0 hPa 0,0 l/m² 12,7 km/h (3 Bft) W-NW 296 ° 1 min 297 W/m² 7,6 °C 8,6 °C 22,5 km/h (4 Bft)
17.02.2024 15:07 21,6 °C 12,2 °C 52 % 74 % 1030,0 hPa 0,0 l/m² 15,6 km/h (3 Bft) W-NW 289 ° 1 min 385 W/m² 7,7 °C 7,6 °C 22,5 km/h (4 Bft)
17.02.2024 15:08 21,6 °C 12,2 °C 52 % 74 % 1030,1 hPa 0,0 l/m² 16,0 km/h (3 Bft) W-NW 297 ° 1 min 385 W/m² 7,7 °C 7,4 °C 20,9 km/h (4 Bft)
17.02.2024 15:09 21,6 °C 12,3 °C 52 % 73 % 1030,0 hPa 0,0 l/m² 17,6 km/h (3 Bft) W-NW 285 ° 1 min 149 W/m² 7,6 °C 7,0 °C 24,1 km/h (4 Bft)
17.02.2024 15:10 21,6 °C 12,3 °C 52 % 74 % 1030,0 hPa 0,0 l/m² 14,9 km/h (3 Bft) NW 316 ° 1 min 149 W/m² 7,8 °C 8,0 °C 24,1 km/h (4 Bft)
17.02.2024 15:11 21,6 °C 12,4 °C 52 % 74 % 1030,0 hPa 0,0 l/m² 8,9 km/h (2 Bft) W 275 ° 1 min 367 W/m² 7,9 °C 10,8 °C 14,5 km/h (3 Bft)
17.02.2024 15:12 21,6 °C 12,6 °C 52 % 74 % 1030,1 hPa 0,0 l/m² 12,7 km/h (3 Bft) W-NW 285 ° 1 min 290 W/m² 8,1 °C 9,2 °C 20,9 km/h (4 Bft)
17.02.2024 15:13 21,6 °C 12,6 °C 52 % 73 % 1030,0 hPa 0,0 l/m² 10,8 km/h (2 Bft) W-NW 289 ° 1 min 204 W/m² 7,9 °C 10,1 °C 19,3 km/h (3 Bft)
17.02.2024 15:14 21,6 °C 12,6 °C 52 % 72 % 1030,1 hPa 0,0 l/m² 10,2 km/h (2 Bft) W 272 ° 1 min 204 W/m² 7,7 °C 10,4 °C 17,7 km/h (3 Bft)
17.02.2024 15:15 21,6 °C 12,6 °C 52 % 73 % 1030,0 hPa 0,0 l/m² 7,0 km/h (2 Bft) NW 309 ° 1 min 134 W/m² 7,9 °C 12,2 °C 12,9 km/h (3 Bft)
17.02.2024 15:16 21,6 °C 12,5 °C 52 % 73 % 1030,0 hPa 0,0 l/m² 8,0 km/h (2 Bft) W 269 ° 1 min 102 W/m² 7,8 °C 11,5 °C 16,1 km/h (3 Bft)
17.02.2024 15:17 21,6 °C 12,4 °C 52 % 73 % 1030,0 hPa 0,0 l/m² 12,7 km/h (3 Bft) NW 304 ° 1 min 172 W/m² 7,7 °C 9,0 °C 19,3 km/h (3 Bft)
17.02.2024 15:18 21,5 °C 12,3 °C 52 % 73 % 1030,0 hPa 0,0 l/m² 13,3 km/h (3 Bft) W 261 ° 1 min 246 W/m² 7,6 °C 8,6 °C 17,7 km/h (3 Bft)
17.02.2024 15:19 21,6 °C 12,2 °C 52 % 73 % 1030,0 hPa 0,0 l/m² 9,5 km/h (2 Bft) W-NW 290 ° 1 min 181 W/m² 7,5 °C 10,3 °C 14,5 km/h (3 Bft)
17.02.2024 15:20 21,6 °C 12,2 °C 52 % 73 % 1030,1 hPa 0,0 l/m² 9,6 km/h (2 Bft) W-NW 286 ° 1 min 181 W/m² 7,5 °C 10,2 °C 17,7 km/h (3 Bft)
17.02.2024 15:21 21,6 °C 12,2 °C 52 % 73 % 1030,0 hPa 0,0 l/m² 13,1 km/h (3 Bft) W-NW 302 ° 1 min 287 W/m² 7,5 °C 8,6 °C 19,3 km/h (3 Bft)
17.02.2024 15:22 21,5 °C 12,2 °C 52 % 73 % 1030,1 hPa 0,0 l/m² 8,9 km/h (2 Bft) W-NW 285 ° 1 min 255 W/m² 7,5 °C 10,6 °C 12,9 km/h (3 Bft)
17.02.2024 15:23 21,6 °C 12,2 °C 52 % 73 % 1030,0 hPa 0,0 l/m² 11,5 km/h (2 Bft) NW 325 ° 1 min 264 W/m² 7,5 °C 9,3 °C 19,3 km/h (3 Bft)
17.02.2024 15:24 21,6 °C 12,2 °C 52 % 73 % 1030,1 hPa 0,0 l/m² 16,0 km/h (3 Bft) NW 312 ° 1 min 267 W/m² 7,5 °C 7,4 °C 22,5 km/h (4 Bft)
17.02.2024 15:25 21,5 °C 12,2 °C 52 % 73 % 1030,1 hPa 0,0 l/m² 11,3 km/h (2 Bft) W-NW 294 ° 1 min 265 W/m² 7,5 °C 9,4 °C 17,7 km/h (3 Bft)
17.02.2024 15:26 21,6 °C 12,2 °C 52 % 73 % 1030,1 hPa 0,0 l/m² 10,8 km/h (2 Bft) W-NW 286 ° 1 min 258 W/m² 7,5 °C 9,6 °C 19,3 km/h (3 Bft)
17.02.2024 15:27 21,6 °C 12,2 °C 52 % 73 % 1030,2 hPa 0,0 l/m² 11,3 km/h (2 Bft) NW 323 ° 1 min 258 W/m² 7,5 °C 9,4 °C 16,1 km/h (3 Bft)
17.02.2024 15:28 21,6 °C 12,2 °C 52 % 73 % 1030,1 hPa 0,0 l/m² 11,1 km/h (2 Bft) NW 306 ° 1 min 253 W/m² 7,5 °C 9,5 °C 17,7 km/h (3 Bft)
17.02.2024 15:29 21,6 °C 12,3 °C 52 % 74 % 1030,2 hPa 0,0 l/m² 6,3 km/h (2 Bft) NW 304 ° 1 min 250 W/m² 7,8 °C 12,3 °C 11,3 km/h (2 Bft)
17.02.2024 15:30 21,6 °C 12,3 °C 52 % 73 % 1030,1 hPa 0,0 l/m² 8,2 km/h (2 Bft) W-NW 289 ° 1 min 251 W/m² 7,6 °C 11,1 °C 14,5 km/h (3 Bft)
17.02.2024 15:31 21,6 °C 12,3 °C 52 % 74 % 1030,1 hPa 0,0 l/m² 9,2 km/h (2 Bft) NW 315 ° 1 min 253 W/m² 7,8 °C 10,6 °C 17,7 km/h (3 Bft)
17.02.2024 15:32 21,6 °C 12,3 °C 52 % 73 % 1030,1 hPa 0,0 l/m² 11,9 km/h (2 Bft) W 278 ° 1 min 243 W/m² 7,6 °C 9,2 °C 19,3 km/h (3 Bft)
17.02.2024 15:33 21,6 °C 12,3 °C 52 % 73 % 1030,1 hPa 0,0 l/m² 14,4 km/h (3 Bft) W-NW 292 ° 1 min 248 W/m² 7,6 °C 8,2 °C 20,9 km/h (4 Bft)
17.02.2024 15:34 21,6 °C 12,3 °C 51 % 73 % 1030,1 hPa 0,0 l/m² 10,3 km/h (2 Bft) W 269 ° 1 min 244 W/m² 7,6 °C 10,0 °C 16,1 km/h (3 Bft)
17.02.2024 15:35 21,6 °C 12,3 °C 52 % 73 % 1030,1 hPa 0,0 l/m² 9,9 km/h (2 Bft) W-NW 285 ° 1 min 244 W/m² 7,6 °C 10,2 °C 16,1 km/h (3 Bft)
17.02.2024 15:36 21,6 °C 12,3 °C 52 % 73 % 1030,1 hPa 0,0 l/m² 10,5 km/h (2 Bft) NW 317 ° 1 min 239 W/m² 7,6 °C 9,9 °C 16,1 km/h (3 Bft)
17.02.2024 15:37 21,6 °C 12,2 °C 52 % 73 % 1030,1 hPa 0,0 l/m² 10,4 km/h (2 Bft) W-NW 302 ° 1 min 236 W/m² 7,5 °C 9,8 °C 16,1 km/h (3 Bft)
17.02.2024 15:38 21,6 °C 12,2 °C 52 % 73 % 1030,2 hPa 0,0 l/m² 11,1 km/h (2 Bft) W-NW 284 ° 1 min 232 W/m² 7,5 °C 9,5 °C 16,1 km/h (3 Bft)
17.02.2024 15:39 21,6 °C 12,3 °C 52 % 73 % 1030,2 hPa 0,0 l/m² 9,3 km/h (2 Bft) W 281 ° 1 min 227 W/m² 7,6 °C 10,5 °C 14,5 km/h (3 Bft)
17.02.2024 15:40 21,6 °C 12,3 °C 52 % 74 % 1030,2 hPa 0,0 l/m² 9,7 km/h (2 Bft) W-NW 299 ° 1 min 227 W/m² 7,8 °C 10,3 °C 14,5 km/h (3 Bft)
17.02.2024 15:41 21,6 °C 12,3 °C 52 % 74 % 1030,2 hPa 0,0 l/m² 5,6 km/h (2 Bft) W 275 ° 1 min 151 W/m² 7,8 °C 12,3 °C 11,3 km/h (2 Bft)
17.02.2024 15:42 21,6 °C 12,3 °C 52 % 74 % 1030,3 hPa 0,0 l/m² 10,3 km/h (2 Bft) W-NW 293 ° 1 min 137 W/m² 7,8 °C 10,0 °C 17,7 km/h (3 Bft)
17.02.2024 15:43 21,6 °C 12,3 °C 52 % 74 % 1030,3 hPa 0,0 l/m² 4,6 km/h (1 Bft) W-NW 300 ° 1 min 216 W/m² 7,8 °C 12,3 °C 8,0 km/h (2 Bft)
17.02.2024 15:45 21,6 °C 12,3 °C 52 % 75 % 1030,3 hPa 0,0 l/m² 9,1 km/h (2 Bft) W-NW 302 ° 2 min 209 W/m² 8,0 °C 10,6 °C 17,7 km/h (3 Bft)
17.02.2024 15:46 21,6 °C 12,3 °C 52 % 74 % 1030,2 hPa 0,0 l/m² 3,1 km/h (1 Bft) NW 311 ° 1 min 209 W/m² 7,8 °C 12,3 °C 6,4 km/h (2 Bft)
17.02.2024 15:47 21,6 °C 12,3 °C 52 % 75 % 1030,3 hPa 0,0 l/m² 11,1 km/h (2 Bft) NW 315 ° 1 min 200 W/m² 8,0 °C 9,6 °C 19,3 km/h (3 Bft)
17.02.2024 15:48 21,6 °C 12,3 °C 52 % 75 % 1030,3 hPa 0,0 l/m² 12,7 km/h (3 Bft) NW 316 ° 1 min 200 W/m² 8,0 °C 8,9 °C 22,5 km/h (4 Bft)
17.02.2024 15:49 21,6 °C 12,2 °C 52 % 75 % 1030,3 hPa 0,0 l/m² 14,1 km/h (3 Bft) W-NW 299 ° 1 min 197 W/m² 7,9 °C 8,2 °C 20,9 km/h (4 Bft)
17.02.2024 15:50 21,6 °C 12,2 °C 52 % 75 % 1030,4 hPa 0,0 l/m² 14,1 km/h (3 Bft) W-NW 296 ° 1 min 193 W/m² 7,9 °C 8,2 °C 20,9 km/h (4 Bft)
17.02.2024 15:51 21,7 °C 12,1 °C 52 % 76 % 1030,4 hPa 0,0 l/m² 14,3 km/h (3 Bft) NW 317 ° 1 min 192 W/m² 8,0 °C 8,0 °C 20,9 km/h (4 Bft)
17.02.2024 15:52 21,7 °C 12,1 °C 52 % 76 % 1030,4 hPa 0,0 l/m² 10,4 km/h (2 Bft) W 273 ° 1 min 185 W/m² 8,0 °C 9,7 °C 16,1 km/h (3 Bft)
17.02.2024 15:53 21,7 °C 12,1 °C 52 % 76 % 1030,3 hPa 0,0 l/m² 7,8 km/h (2 Bft) NW 304 ° 1 min 183 W/m² 8,0 °C 11,2 °C 12,9 km/h (3 Bft)
17.02.2024 15:54 21,7 °C 12,1 °C 52 % 76 % 1030,4 hPa 0,0 l/m² 8,3 km/h (2 Bft) W 268 ° 1 min 179 W/m² 8,0 °C 10,9 °C 12,9 km/h (3 Bft)
17.02.2024 15:55 21,7 °C 12,1 °C 52 % 76 % 1030,4 hPa 0,0 l/m² 8,2 km/h (2 Bft) W-NW 286 ° 1 min 178 W/m² 8,0 °C 10,9 °C 17,7 km/h (3 Bft)
17.02.2024 15:56 21,7 °C 12,1 °C 52 % 76 % 1030,4 hPa 0,0 l/m² 10,3 km/h (2 Bft) W-NW 296 ° 1 min 174 W/m² 8,0 °C 9,8 °C 17,7 km/h (3 Bft)
17.02.2024 15:57 21,7 °C 12,1 °C 52 % 76 % 1030,5 hPa 0,0 l/m² 12,0 km/h (2 Bft) NW 308 ° 1 min 171 W/m² 8,0 °C 8,9 °C 17,7 km/h (3 Bft)
17.02.2024 15:58 21,7 °C 12,1 °C 52 % 75 % 1030,5 hPa 0,0 l/m² 9,2 km/h (2 Bft) W-NW 296 ° 1 min 158 W/m² 7,8 °C 10,3 °C 17,7 km/h (3 Bft)
17.02.2024 15:59 21,7 °C 11,9 °C 52 % 75 % 1030,5 hPa 0,0 l/m² 9,9 km/h (2 Bft) W-NW 300 ° 1 min 132 W/m² 7,6 °C 9,7 °C 16,1 km/h (3 Bft)
17.02.2024 16:00 21,7 °C 11,9 °C 52 % 76 % 1030,5 hPa 0,0 l/m² 9,3 km/h (2 Bft) NW 311 ° 1 min 158 W/m² 7,8 °C 10,1 °C 16,1 km/h (3 Bft)
17.02.2024 16:01 21,7 °C 11,9 °C 52 % 76 % 1030,5 hPa 0,0 l/m² 11,0 km/h (2 Bft) N-NW 329 ° 1 min 149 W/m² 7,8 °C 9,2 °C 14,5 km/h (3 Bft)
17.02.2024 16:02 21,7 °C 11,9 °C 52 % 76 % 1030,4 hPa 0,0 l/m² 6,2 km/h (2 Bft) W-NW 297 ° 1 min 130 W/m² 7,8 °C 11,9 °C 11,3 km/h (2 Bft)
17.02.2024 16:03 21,7 °C 11,9 °C 52 % 76 % 1030,6 hPa 0,0 l/m² 5,5 km/h (2 Bft) NW 313 ° 1 min 56 W/m² 7,8 °C 11,9 °C 8,0 km/h (2 Bft)
17.02.2024 16:04 21,7 °C 11,9 °C 52 % 76 % 1030,6 hPa 0,0 l/m² 4,4 km/h (1 Bft) NW 316 ° 1 min 155 W/m² 7,8 °C 11,9 °C 8,0 km/h (2 Bft)
17.02.2024 16:05 21,7 °C 11,9 °C 52 % 77 % 1030,6 hPa 0,0 l/m² 10,9 km/h (2 Bft) W 277 ° 1 min 160 W/m² 8,0 °C 9,2 °C 17,7 km/h (3 Bft)
17.02.2024 16:06 21,7 °C 11,8 °C 52 % 76 % 1030,7 hPa 0,0 l/m² 11,1 km/h (2 Bft) W-NW 297 ° 1 min 162 W/m² 7,7 °C 9,0 °C 17,7 km/h (3 Bft)
17.02.2024 16:07 21,7 °C 11,8 °C 52 % 77 % 1030,6 hPa 0,0 l/m² 6,2 km/h (2 Bft) W-NW 286 ° 1 min 169 W/m² 7,9 °C 11,8 °C 9,7 km/h (2 Bft)
17.02.2024 16:08 21,7 °C 11,8 °C 52 % 77 % 1030,6 hPa 0,0 l/m² 11,3 km/h (2 Bft) NW 318 ° 1 min 144 W/m² 7,9 °C 8,9 °C 16,1 km/h (3 Bft)
17.02.2024 16:09 21,7 °C 11,8 °C 52 % 77 % 1030,6 hPa 0,0 l/m² 9,7 km/h (2 Bft) W-NW 296 ° 1 min 148 W/m² 7,9 °C 9,7 °C 17,7 km/h (3 Bft)
17.02.2024 16:10 21,7 °C 11,8 °C 52 % 78 % 1030,6 hPa 0,0 l/m² 8,4 km/h (2 Bft) N-NW 335 ° 1 min 137 W/m² 8,1 °C 10,5 °C 16,1 km/h (3 Bft)
17.02.2024 16:11 21,7 °C 11,8 °C 52 % 78 % 1030,7 hPa 0,0 l/m² 5,5 km/h (2 Bft) NW 315 ° 1 min 74 W/m² 8,1 °C 11,8 °C 12,9 km/h (3 Bft)
17.02.2024 16:12 21,7 °C 11,7 °C 52 % 77 % 1030,7 hPa 0,0 l/m² 7,8 km/h (2 Bft) W-NW 294 ° 1 min 76 W/m² 7,8 °C 10,8 °C 14,5 km/h (3 Bft)
17.02.2024 16:13 21,7 °C 11,7 °C 52 % 77 % 1030,7 hPa 0,0 l/m² 5,5 km/h (2 Bft) W-NW 284 ° 1 min 79 W/m² 7,8 °C 11,7 °C 9,7 km/h (2 Bft)
17.02.2024 16:14 21,7 °C 11,7 °C 52 % 77 % 1030,7 hPa 0,0 l/m² 8,4 km/h (2 Bft) NW 316 ° 1 min 81 W/m² 7,8 °C 10,4 °C 16,1 km/h (3 Bft)
17.02.2024 16:15 21,7 °C 11,7 °C 52 % 77 % 1030,7 hPa 0,0 l/m² 9,5 km/h (2 Bft) W-NW 300 ° 1 min 83 W/m² 7,8 °C 9,7 °C 17,7 km/h (3 Bft)
17.02.2024 16:16 21,7 °C 11,6 °C 52 % 78 % 1030,7 hPa 0,0 l/m² 7,0 km/h (2 Bft) W-NW 284 ° 1 min 98 W/m² 7,9 °C 11,2 °C 12,9 km/h (3 Bft)
17.02.2024 16:17 21,7 °C 11,6 °C 52 % 78 % 1030,8 hPa 0,0 l/m² 9,9 km/h (2 Bft) W-NW 293 ° 1 min 98 W/m² 7,9 °C 9,4 °C 16,1 km/h (3 Bft)
17.02.2024 16:18 21,7 °C 11,6 °C 52 % 77 % 1030,8 hPa 0,0 l/m² 7,5 km/h (2 Bft) W 278 ° 1 min 97 W/m² 7,7 °C 10,9 °C 14,5 km/h (3 Bft)
17.02.2024 16:19 21,7 °C 11,5 °C 52 % 77 % 1030,7 hPa 0,0 l/m² 7,7 km/h (2 Bft) NW 310 ° 1 min 105 W/m² 7,6 °C 10,6 °C 16,1 km/h (3 Bft)
17.02.2024 16:20 21,7 °C 11,5 °C 52 % 77 % 1030,7 hPa 0,0 l/m² 10,4 km/h (2 Bft) W-NW 299 ° 1 min 111 W/m² 7,6 °C 9,0 °C 14,5 km/h (3 Bft)
17.02.2024 16:21 21,7 °C 11,6 °C 52 % 77 % 1030,7 hPa 0,0 l/m² 7,1 km/h (2 Bft) W 278 ° 1 min 98 W/m² 7,7 °C 11,1 °C 11,3 km/h (2 Bft)
17.02.2024 16:22 21,7 °C 11,6 °C 52 % 78 % 1030,8 hPa 0,0 l/m² 10,3 km/h (2 Bft) NW 310 ° 1 min 100 W/m² 7,9 °C 9,2 °C 16,1 km/h (3 Bft)
17.02.2024 16:23 21,7 °C 11,6 °C 52 % 78 % 1030,7 hPa 0,0 l/m² 11,7 km/h (2 Bft) NW 309 ° 1 min 132 W/m² 7,9 °C 8,5 °C 16,1 km/h (3 Bft)
17.02.2024 16:24 21,7 °C 11,6 °C 52 % 78 % 1030,7 hPa 0,0 l/m² 5,9 km/h (2 Bft) W-NW 302 ° 1 min 125 W/m² 7,9 °C 11,6 °C 11,3 km/h (2 Bft)
17.02.2024 16:25 21,6 °C 11,6 °C 52 % 78 % 1030,8 hPa 0,0 l/m² 7,0 km/h (2 Bft) NW 309 ° 1 min 116 W/m² 7,9 °C 11,2 °C 12,9 km/h (3 Bft)
17.02.2024 16:26 21,7 °C 11,7 °C 52 % 78 % 1030,7 hPa 0,0 l/m² 10,4 km/h (2 Bft) N-NW 332 ° 1 min 113 W/m² 8,0 °C 9,3 °C 16,1 km/h (3 Bft)
17.02.2024 16:27 21,6 °C 11,7 °C 52 % 77 % 1030,6 hPa 0,0 l/m² 8,6 km/h (2 Bft) W-NW 299 ° 1 min 102 W/m² 7,8 °C 10,3 °C 14,5 km/h (3 Bft)
17.02.2024 16:28 21,7 °C 11,7 °C 51 % 78 % 1030,7 hPa 0,0 l/m² 9,0 km/h (2 Bft) NW 313 ° 1 min 98 W/m² 8,0 °C 10,0 °C 16,1 km/h (3 Bft)
17.02.2024 16:29 21,6 °C 11,6 °C 51 % 77 % 1030,8 hPa 0,0 l/m² 15,0 km/h (3 Bft) NW 308 ° 1 min 93 W/m² 7,7 °C 7,1 °C 19,3 km/h (3 Bft)
17.02.2024 16:30 21,6 °C 11,6 °C 51 % 77 % 1030,7 hPa 0,0 l/m² 11,6 km/h (2 Bft) W-NW 302 ° 1 min 91 W/m² 7,7 °C 8,5 °C 16,1 km/h (3 Bft)
17.02.2024 16:31 21,6 °C 11,6 °C 51 % 77 % 1030,7 hPa 0,0 l/m² 10,2 km/h (2 Bft) NW 313 ° 1 min 88 W/m² 7,7 °C 9,3 °C 14,5 km/h (3 Bft)
17.02.2024 16:32 21,6 °C 11,6 °C 51 % 77 % 1030,7 hPa 0,0 l/m² 9,1 km/h (2 Bft) NW 325 ° 1 min 86 W/m² 7,7 °C 9,9 °C 14,5 km/h (3 Bft)
17.02.2024 16:33 21,6 °C 11,5 °C 51 % 78 % 1030,8 hPa 0,0 l/m² 13,0 km/h (3 Bft) NW 311 ° 1 min 83 W/m² 7,8 °C 7,8 °C 17,7 km/h (3 Bft)
17.02.2024 16:34 21,6 °C 11,4 °C 51 % 77 % 1030,7 hPa 0,0 l/m² 13,0 km/h (3 Bft) NW 321 ° 1 min 79 W/m² 7,5 °C 7,7 °C 17,7 km/h (3 Bft)
17.02.2024 16:35 21,6 °C 11,4 °C 51 % 77 % 1030,8 hPa 0,0 l/m² 10,5 km/h (2 Bft) NW 320 ° 1 min 76 W/m² 7,5 °C 8,9 °C 14,5 km/h (3 Bft)
17.02.2024 16:36 21,6 °C 11,4 °C 51 % 77 % 1030,8 hPa 0,0 l/m² 11,4 km/h (2 Bft) W-NW 289 ° 1 min 70 W/m² 7,5 °C 8,4 °C 14,5 km/h (3 Bft)
17.02.2024 16:37 21,6 °C 11,4 °C 51 % 78 % 1030,7 hPa 0,0 l/m² 13,0 km/h (3 Bft) W 278 ° 1 min 70 W/m² 7,7 °C 7,7 °C 17,7 km/h (3 Bft)
17.02.2024 16:38 21,6 °C 11,3 °C 51 % 78 % 1030,7 hPa 0,0 l/m² 11,6 km/h (2 Bft) NW 322 ° 1 min 69 W/m² 7,6 °C 8,2 °C 17,7 km/h (3 Bft)
17.02.2024 16:39 21,6 °C 11,3 °C 51 % 78 % 1030,7 hPa 0,0 l/m² 9,6 km/h (2 Bft) NW 310 ° 0 min 39 W/m² 7,6 °C 9,3 °C 16,1 km/h (3 Bft)
17.02.2024 16:40 21,6 °C 11,3 °C 51 % 78 % 1030,9 hPa 0,0 l/m² 11,9 km/h (2 Bft) NW 315 ° 0 min 37 W/m² 7,6 °C 8,1 °C 16,1 km/h (3 Bft)
17.02.2024 16:41 21,6 °C 11,2 °C 50 % 77 % 1030,9 hPa 0,0 l/m² 7,8 km/h (2 Bft) NW 307 ° 1 min 58 W/m² 7,3 °C 10,2 °C 14,5 km/h (3 Bft)
17.02.2024 16:42 21,6 °C 11,2 °C 50 % 78 % 1030,8 hPa 0,0 l/m² 5,7 km/h (2 Bft) NW 311 ° 1 min 62 W/m² 7,5 °C 11,2 °C 8,0 km/h (2 Bft)
17.02.2024 16:43 21,6 °C 11,2 °C 50 % 78 % 1031,0 hPa 0,0 l/m² 5,6 km/h (2 Bft) NW 313 ° 1 min 60 W/m² 7,5 °C 11,2 °C 8,0 km/h (2 Bft)
17.02.2024 16:44 21,6 °C 11,2 °C 50 % 79 % 1030,9 hPa 0,0 l/m² 7,0 km/h (2 Bft) N-NW 327 ° 1 min 58 W/m² 7,7 °C 10,8 °C 9,7 km/h (2 Bft)
17.02.2024 16:45 21,6 °C 11,1 °C 51 % 79 % 1030,9 hPa 0,0 l/m² 4,8 km/h (1 Bft) NW 322 ° 1 min 56 W/m² 7,6 °C 11,1 °C 8,0 km/h (2 Bft)
17.02.2024 16:46 21,6 °C 11,1 °C 51 % 79 % 1031,0 hPa 0,0 l/m² 6,9 km/h (2 Bft) W-NW 295 ° 1 min 53 W/m² 7,6 °C 10,8 °C 9,7 km/h (2 Bft)
17.02.2024 16:47 21,6 °C 11,1 °C 51 % 79 % 1031,0 hPa 0,0 l/m² 6,4 km/h (2 Bft) N 350 ° 0 min 51 W/m² 7,6 °C 11,1 °C 9,7 km/h (2 Bft)
17.02.2024 16:48 21,5 °C 11,1 °C 51 % 79 % 1031,0 hPa 0,0 l/m² 7,8 km/h (2 Bft) NW 319 ° 0 min 39 W/m² 7,6 °C 10,1 °C 14,5 km/h (3 Bft)
17.02.2024 16:49 21,6 °C 11,0 °C 51 % 79 % 1031,0 hPa 0,0 l/m² 9,5 km/h (2 Bft) N-NW 343 ° 0 min 39 W/m² 7,5 °C 9,0 °C 16,1 km/h (3 Bft)
17.02.2024 16:50 21,5 °C 10,9 °C 51 % 79 % 1031,0 hPa 0,0 l/m² 8,0 km/h (2 Bft) NW 320 ° 0 min 32 W/m² 7,4 °C 9,8 °C 12,9 km/h (3 Bft)
17.02.2024 16:51 21,5 °C 10,9 °C 51 % 79 % 1031,0 hPa 0,0 l/m² 9,4 km/h (2 Bft) W-NW 296 ° 0 min 26 W/m² 7,4 °C 8,9 °C 14,5 km/h (3 Bft)
17.02.2024 16:52 21,5 °C 10,9 °C 51 % 79 % 1031,1 hPa 0,0 l/m² 9,3 km/h (2 Bft) N-NW 333 ° 0 min 26 W/m² 7,4 °C 9,0 °C 14,5 km/h (3 Bft)
17.02.2024 16:53 21,5 °C 10,8 °C 51 % 79 % 1031,1 hPa 0,0 l/m² 7,0 km/h (2 Bft) N-NW 333 ° 0 min 28 W/m² 7,3 °C 10,4 °C 11,3 km/h (2 Bft)
17.02.2024 16:54 21,5 °C 10,7 °C 51 % 79 % 1031,1 hPa 0,0 l/m² 5,8 km/h (2 Bft) NW 317 ° 0 min 26 W/m² 7,2 °C 10,7 °C 9,7 km/h (2 Bft)
17.02.2024 16:55 21,6 °C 10,7 °C 51 % 79 % 1031,1 hPa 0,0 l/m² 3,9 km/h (1 Bft) NW 323 ° 0 min 26 W/m² 7,2 °C 10,7 °C 11,3 km/h (2 Bft)
17.02.2024 16:56 21,4 °C 10,6 °C 51 % 80 % 1031,1 hPa 0,0 l/m² 5,7 km/h (2 Bft) NW 311 ° 0 min 26 W/m² 7,3 °C 10,6 °C 6,4 km/h (2 Bft)
17.02.2024 16:57 21,5 °C 10,5 °C 51 % 80 % 1031,1 hPa 0,0 l/m² 5,2 km/h (1 Bft) NW 317 ° 0 min 26 W/m² 7,2 °C 10,5 °C 8,0 km/h (2 Bft)
17.02.2024 16:58 21,5 °C 10,4 °C 51 % 80 % 1031,2 hPa 0,0 l/m² 8,6 km/h (2 Bft) NW 315 ° 0 min 25 W/m² 7,1 °C 8,9 °C 9,7 km/h (2 Bft)
17.02.2024 16:59 21,5 °C 10,3 °C 51 % 80 % 1031,3 hPa 0,0 l/m² 7,4 km/h (2 Bft) NW 320 ° 0 min 25 W/m² 7,0 °C 9,6 °C 12,9 km/h (3 Bft)
17.02.2024 17:00 21,4 °C 10,3 °C 51 % 81 % 1031,3 hPa 0,0 l/m² 5,2 km/h (1 Bft) NW 315 ° 0 min 23 W/m² 7,2 °C 10,3 °C 8,0 km/h (2 Bft)
17.02.2024 17:01 21,5 °C 10,3 °C 51 % 81 % 1031,4 hPa 0,0 l/m² 5,4 km/h (2 Bft) NW 321 ° 0 min 23 W/m² 7,2 °C 10,3 °C 8,0 km/h (2 Bft)
17.02.2024 17:02 21,4 °C 10,2 °C 51 % 81 % 1031,3 hPa 0,0 l/m² 5,2 km/h (1 Bft) N-NW 328 ° 0 min 23 W/m² 7,1 °C 10,2 °C 6,4 km/h (2 Bft)
17.02.2024 17:03 21,5 °C 10,2 °C 51 % 81 % 1031,3 hPa 0,0 l/m² 4,6 km/h (1 Bft) NW 326 ° 0 min 21 W/m² 7,1 °C 10,2 °C 8,0 km/h (2 Bft)
17.02.2024 17:04 21,5 °C 10,1 °C 51 % 81 % 1031,4 hPa 0,0 l/m² 3,8 km/h (1 Bft) N-NW 328 ° 0 min 21 W/m² 7,0 °C 10,1 °C 6,4 km/h (2 Bft)
17.02.2024 17:05 21,4 °C 10,1 °C 51 % 81 % 1031,3 hPa 0,0 l/m² 2,5 km/h (1 Bft) NW 310 ° 0 min 19 W/m² 7,0 °C 10,1 °C 4,8 km/h (1 Bft)
17.02.2024 17:06 21,4 °C 10,1 °C 50 % 81 % 1031,3 hPa 0,0 l/m² 2,8 km/h (1 Bft) NW 315 ° 0 min 19 W/m² 7,0 °C 10,1 °C 4,8 km/h (1 Bft)
17.02.2024 17:07 21,4 °C 10,0 °C 50 % 82 % 1031,3 hPa 0,0 l/m² 3,6 km/h (1 Bft) NW 311 ° 0 min 19 W/m² 7,1 °C 10,0 °C 4,8 km/h (1 Bft)
17.02.2024 17:08 21,4 °C 10,0 °C 50 % 82 % 1031,4 hPa 0,0 l/m² 4,2 km/h (1 Bft) NW 325 ° 0 min 18 W/m² 7,1 °C 10,0 °C 6,4 km/h (2 Bft)
17.02.2024 17:09 21,4 °C 9,9 °C 49 % 82 % 1031,3 hPa 0,0 l/m² 3,4 km/h (1 Bft) NW 315 ° 0 min 16 W/m² 7,0 °C 9,9 °C 4,8 km/h (1 Bft)
17.02.2024 17:10 21,4 °C 9,8 °C 49 % 82 % 1031,4 hPa 0,0 l/m² 3,8 km/h (1 Bft) NW 317 ° 0 min 14 W/m² 6,9 °C 9,8 °C 6,4 km/h (2 Bft)
17.02.2024 17:11 21,4 °C 9,8 °C 49 % 82 % 1031,4 hPa 0,0 l/m² 3,3 km/h (1 Bft) NW 319 ° 0 min 14 W/m² 6,9 °C 9,8 °C 4,8 km/h (1 Bft)
17.02.2024 17:12 21,4 °C 9,8 °C 49 % 82 % 1031,4 hPa 0,0 l/m² 4,7 km/h (1 Bft) NW 321 ° 0 min 12 W/m² 6,9 °C 9,8 °C 6,4 km/h (2 Bft)
17.02.2024 17:13 21,4 °C 9,7 °C 49 % 82 % 1031,4 hPa 0,0 l/m² 3,7 km/h (1 Bft) NW 323 ° 0 min 12 W/m² 6,8 °C 9,7 °C 4,8 km/h (1 Bft)
17.02.2024 17:14 21,4 °C 9,7 °C 49 % 82 % 1031,4 hPa 0,0 l/m² 3,8 km/h (1 Bft) NW 326 ° 0 min 12 W/m² 6,8 °C 9,7 °C 4,8 km/h (1 Bft)
17.02.2024 17:15 21,4 °C 9,6 °C 49 % 82 % 1031,4 hPa 0,0 l/m² 5,2 km/h (1 Bft) N-NW 327 ° 0 min 11 W/m² 6,7 °C 9,6 °C 6,4 km/h (2 Bft)
17.02.2024 17:16 21,4 °C 9,6 °C 49 % 83 % 1031,5 hPa 0,0 l/m² 3,3 km/h (1 Bft) NW 319 ° 0 min 11 W/m² 6,9 °C 9,6 °C 6,4 km/h (2 Bft)
17.02.2024 17:17 21,4 °C 9,5 °C 49 % 83 % 1031,4 hPa 0,0 l/m² 2,1 km/h (1 Bft) NW 322 ° 0 min 11 W/m² 6,8 °C 9,5 °C 4,8 km/h (1 Bft)
17.02.2024 17:18 21,4 °C 9,5 °C 49 % 83 % 1031,4 hPa 0,0 l/m² 4,7 km/h (1 Bft) NW 315 ° 0 min 9 W/m² 6,8 °C 9,5 °C 6,4 km/h (2 Bft)
17.02.2024 17:19 21,4 °C 9,4 °C 49 % 83 % 1031,4 hPa 0,0 l/m² 3,1 km/h (1 Bft) NW 322 ° 0 min 9 W/m² 6,7 °C 9,4 °C 4,8 km/h (1 Bft)
17.02.2024 17:20 21,4 °C 9,4 °C 49 % 83 % 1031,4 hPa 0,0 l/m² 2,0 km/h (1 Bft) NW 311 ° 0 min 9 W/m² 6,7 °C 9,4 °C 6,4 km/h (2 Bft)
17.02.2024 17:21 21,4 °C 9,4 °C 49 % 83 % 1031,4 hPa 0,0 l/m² 2,1 km/h (1 Bft) N-NW 339 ° 0 min 7 W/m² 6,7 °C 9,4 °C 4,8 km/h (1 Bft)
17.02.2024 17:22 21,3 °C 9,4 °C 49 % 83 % 1031,5 hPa 0,0 l/m² 2,8 km/h (1 Bft) NW 325 ° 0 min 7 W/m² 6,7 °C 9,4 °C 4,8 km/h (1 Bft)
17.02.2024 17:23 21,3 °C 9,3 °C 49 % 83 % 1031,5 hPa 0,0 l/m² 4,1 km/h (1 Bft) N-NW 338 ° 0 min 7 W/m² 6,6 °C 9,3 °C 8,0 km/h (2 Bft)
17.02.2024 17:24 21,4 °C 9,3 °C 49 % 83 % 1031,5 hPa 0,0 l/m² 4,4 km/h (1 Bft) NW 306 ° 0 min 7 W/m² 6,6 °C 9,3 °C 8,0 km/h (2 Bft)
17.02.2024 17:25 21,3 °C 9,2 °C 49 % 83 % 1031,6 hPa 0,0 l/m² 5,2 km/h (1 Bft) NW 308 ° 0 min 7 W/m² 6,5 °C 9,2 °C 8,0 km/h (2 Bft)
17.02.2024 17:26 21,3 °C 9,2 °C 49 % 83 % 1031,5 hPa 0,0 l/m² 5,2 km/h (1 Bft) NW 321 ° 0 min 5 W/m² 6,5 °C 9,2 °C 8,0 km/h (2 Bft)
17.02.2024 17:27 21,3 °C 9,2 °C 49 % 83 % 1031,5 hPa 0,0 l/m² 3,8 km/h (1 Bft) NW 319 ° 0 min 5 W/m² 6,5 °C 9,2 °C 6,4 km/h (2 Bft)
17.02.2024 17:28 21,3 °C 9,1 °C 49 % 84 % 1031,5 hPa 0,0 l/m² 3,4 km/h (1 Bft) NW 319 ° 0 min 5 W/m² 6,5 °C 9,1 °C 4,8 km/h (1 Bft)
17.02.2024 17:29 21,3 °C 9,1 °C 49 % 84 % 1031,6 hPa 0,0 l/m² 3,4 km/h (1 Bft) NW 323 ° 0 min 5 W/m² 6,5 °C 9,1 °C 4,8 km/h (1 Bft)
17.02.2024 17:30 21,3 °C 8,9 °C 49 % 84 % 1031,5 hPa 0,0 l/m² 4,3 km/h (1 Bft) NW 319 ° 0 min 5 W/m² 6,3 °C 8,9 °C 6,4 km/h (2 Bft)
17.02.2024 17:31 21,3 °C 8,9 °C 49 % 84 % 1031,6 hPa 0,0 l/m² 3,4 km/h (1 Bft) NW 321 ° 0 min 5 W/m² 6,3 °C 8,9 °C 6,4 km/h (2 Bft)
17.02.2024 17:32 21,3 °C 8,8 °C 49 % 84 % 1031,6 hPa 0,0 l/m² 4,6 km/h (1 Bft) NW 321 ° 0 min 0 W/m² 6,2 °C 8,8 °C 6,4 km/h (2 Bft)
17.02.2024 17:33 21,3 °C 8,8 °C 49 % 84 % 1031,6 hPa 0,0 l/m² 4,1 km/h (1 Bft) NW 314 ° 0 min 0 W/m² 6,2 °C 8,8 °C 8,0 km/h (2 Bft)
17.02.2024 17:34 21,3 °C 8,8 °C 49 % 84 % 1031,6 hPa 0,0 l/m² 5,1 km/h (1 Bft) NW 304 ° 0 min 0 W/m² 6,2 °C 8,8 °C 6,4 km/h (2 Bft)
17.02.2024 17:35 21,3 °C 8,7 °C 49 % 84 % 1031,6 hPa 0,0 l/m² 5,5 km/h (2 Bft) N-NW 331 ° 0 min 0 W/m² 6,2 °C 8,7 °C 8,0 km/h (2 Bft)
17.02.2024 17:36 21,3 °C 8,7 °C 49 % 84 % 1031,6 hPa 0,0 l/m² 4,9 km/h (1 Bft) NW 317 ° 0 min 0 W/m² 6,2 °C 8,7 °C 8,0 km/h (2 Bft)
17.02.2024 17:37 21,3 °C 8,6 °C 49 % 85 % 1031,7 hPa 0,0 l/m² 4,1 km/h (1 Bft) N-NW 331 ° 0 min 0 W/m² 6,2 °C 8,6 °C 6,4 km/h (2 Bft)
17.02.2024 17:38 21,3 °C 8,6 °C 49 % 85 % 1031,6 hPa 0,0 l/m² 5,2 km/h (1 Bft) N-NW 331 ° 0 min 0 W/m² 6,2 °C 8,6 °C 6,4 km/h (2 Bft)
17.02.2024 17:39 21,3 °C 8,6 °C 49 % 85 % 1031,7 hPa 0,0 l/m² 4,7 km/h (1 Bft) N-NW 336 ° 0 min 0 W/m² 6,2 °C 8,6 °C 8,0 km/h (2 Bft)
17.02.2024 17:40 21,3 °C 8,7 °C 49 % 85 % 1031,7 hPa 0,0 l/m² 6,0 km/h (2 Bft) N-NW 333 ° 0 min 0 W/m² 6,3 °C 8,7 °C 9,7 km/h (2 Bft)
17.02.2024 17:41 21,3 °C 8,7 °C 49 % 85 % 1031,7 hPa 0,0 l/m² 8,6 km/h (2 Bft) NW 322 ° 0 min 0 W/m² 6,3 °C 7,1 °C 12,9 km/h (3 Bft)
17.02.2024 17:42 21,3 °C 8,7 °C 49 % 85 % 1031,7 hPa 0,0 l/m² 5,7 km/h (2 Bft) NW 305 ° 0 min 0 W/m² 6,3 °C 8,7 °C 8,0 km/h (2 Bft)
17.02.2024 17:43 21,3 °C 8,8 °C 49 % 84 % 1031,7 hPa 0,0 l/m² 5,8 km/h (2 Bft) N 360 ° 0 min 0 W/m² 6,2 °C 8,8 °C 9,7 km/h (2 Bft)
17.02.2024 17:44 21,3 °C 8,8 °C 49 % 84 % 1031,7 hPa 0,0 l/m² 4,7 km/h (1 Bft) N-NW 329 ° 0 min 0 W/m² 6,2 °C 8,8 °C 8,0 km/h (2 Bft)
17.02.2024 17:45 21,3 °C 8,8 °C 49 % 84 % 1031,7 hPa 0,0 l/m² 5,2 km/h (1 Bft) NW 326 ° 0 min 0 W/m² 6,2 °C 8,8 °C 8,0 km/h (2 Bft)
17.02.2024 17:46 21,3 °C 8,8 °C 49 % 84 % 1031,7 hPa 0,0 l/m² 4,6 km/h (1 Bft) NW 312 ° 0 min 0 W/m² 6,2 °C 8,8 °C 8,0 km/h (2 Bft)
17.02.2024 17:47 21,3 °C 8,7 °C 49 % 84 % 1031,8 hPa 0,0 l/m² 5,4 km/h (2 Bft) NW 320 ° 0 min 0 W/m² 6,2 °C 8,7 °C 8,0 km/h (2 Bft)
17.02.2024 17:48 21,4 °C 8,7 °C 49 % 84 % 1031,8 hPa 0,0 l/m² 5,0 km/h (1 Bft) NW 325 ° 0 min 0 W/m² 6,2 °C 8,7 °C 8,0 km/h (2 Bft)
17.02.2024 17:49 21,3 °C 8,6 °C 49 % 84 % 1031,9 hPa 0,0 l/m² 5,6 km/h (2 Bft) NW 322 ° 0 min 0 W/m² 6,1 °C 8,6 °C 9,7 km/h (2 Bft)
17.02.2024 17:50 21,3 °C 8,6 °C 50 % 84 % 1031,8 hPa 0,0 l/m² 5,5 km/h (2 Bft) N-NW 342 ° 0 min 0 W/m² 6,1 °C 8,6 °C 9,7 km/h (2 Bft)
17.02.2024 17:52 21,4 °C 8,6 °C 50 % 84 % 1031,9 hPa 0,0 l/m² 4,9 km/h (1 Bft) NW 321 ° 0 min 0 W/m² 6,1 °C 8,6 °C 9,7 km/h (2 Bft)
17.02.2024 17:53 21,4 °C 8,6 °C 50 % 84 % 1031,9 hPa 0,0 l/m² 6,6 km/h (2 Bft) NW 325 ° 0 min 0 W/m² 6,1 °C 8,5 °C 8,0 km/h (2 Bft)
17.02.2024 17:54 21,3 °C 8,5 °C 50 % 84 % 1031,9 hPa 0,0 l/m² 4,8 km/h (1 Bft) NW 313 ° 0 min 0 W/m² 6,0 °C 8,5 °C 8,0 km/h (2 Bft)
17.02.2024 17:55 21,3 °C 8,5 °C 50 % 84 % 1031,8 hPa 0,0 l/m² 5,3 km/h (1 Bft) NW 321 ° 0 min 0 W/m² 6,0 °C 8,5 °C 9,7 km/h (2 Bft)
17.02.2024 17:56 21,3 °C 8,4 °C 50 % 84 % 1032,0 hPa 0,0 l/m² 5,0 km/h (1 Bft) NW 325 ° 0 min 0 W/m² 5,9 °C 8,4 °C 8,0 km/h (2 Bft)
17.02.2024 17:57 21,3 °C 8,4 °C 50 % 84 % 1031,9 hPa 0,0 l/m² 3,1 km/h (1 Bft) N-NW 334 ° 0 min 0 W/m² 5,9 °C 8,4 °C 6,4 km/h (2 Bft)
17.02.2024 17:58 21,3 °C 8,3 °C 50 % 84 % 1031,9 hPa 0,0 l/m² 4,6 km/h (1 Bft) NW 321 ° 0 min 0 W/m² 5,8 °C 8,3 °C 6,4 km/h (2 Bft)
17.02.2024 17:59 21,3 °C 8,3 °C 50 % 84 % 1031,9 hPa 0,0 l/m² 7,3 km/h (2 Bft) NW 316 ° 0 min 0 W/m² 5,8 °C 7,6 °C 12,9 km/h (3 Bft)
17.02.2024 18:00 21,4 °C 8,3 °C 50 % 85 % 1032,0 hPa 0,0 l/m² 2,9 km/h (1 Bft) NW 311 ° 0 min 0 W/m² 5,9 °C 8,3 °C 4,8 km/h (1 Bft)
17.02.2024 18:01 21,3 °C 8,3 °C 50 % 85 % 1031,9 hPa 0,0 l/m² 6,4 km/h (2 Bft) N-NW 332 ° 0 min 0 W/m² 5,9 °C 8,3 °C 11,3 km/h (2 Bft)
17.02.2024 18:02 21,4 °C 8,3 °C 50 % 85 % 1031,9 hPa 0,0 l/m² 4,9 km/h (1 Bft) N-NW 331 ° 0 min 0 W/m² 5,9 °C 8,3 °C 8,0 km/h (2 Bft)
17.02.2024 18:03 21,4 °C 8,3 °C 50 % 85 % 1032,0 hPa 0,0 l/m² 6,2 km/h (2 Bft) N-NW 331 ° 0 min 0 W/m² 5,9 °C 8,3 °C 9,7 km/h (2 Bft)
17.02.2024 18:04 21,3 °C 8,2 °C 50 % 85 % 1031,9 hPa 0,0 l/m² 4,3 km/h (1 Bft) NW 319 ° 0 min 0 W/m² 5,8 °C 8,2 °C 6,4 km/h (2 Bft)
17.02.2024 18:05 21,3 °C 8,2 °C 50 % 85 % 1031,9 hPa 0,0 l/m² 7,2 km/h (2 Bft) NW 325 ° 0 min 0 W/m² 5,8 °C 7,6 °C 9,7 km/h (2 Bft)
17.02.2024 18:07 21,3 °C 8,2 °C 50 % 85 % 1032,0 hPa 0,0 l/m² 4,8 km/h (1 Bft) N-NW 337 ° 0 min 0 W/m² 5,8 °C 8,2 °C 9,7 km/h (2 Bft)
17.02.2024 18:08 21,3 °C 8,2 °C 50 % 85 % 1032,0 hPa 0,0 l/m² 3,6 km/h (1 Bft) NW 311 ° 0 min 0 W/m² 5,8 °C 8,2 °C 6,4 km/h (2 Bft)
17.02.2024 18:09 21,3 °C 8,2 °C 50 % 85 % 1031,9 hPa 0,0 l/m² 4,8 km/h (1 Bft) NW 320 ° 0 min 0 W/m² 5,8 °C 8,2 °C 8,0 km/h (2 Bft)
17.02.2024 18:10 21,4 °C 8,2 °C 50 % 85 % 1032,0 hPa 0,0 l/m² 4,8 km/h (1 Bft) NW 319 ° 0 min 0 W/m² 5,8 °C 8,2 °C 8,0 km/h (2 Bft)
17.02.2024 18:11 21,3 °C 8,2 °C 50 % 85 % 1032,1 hPa 0,0 l/m² 5,4 km/h (2 Bft) W-NW 292 ° 0 min 0 W/m² 5,8 °C 8,2 °C 8,0 km/h (2 Bft)
17.02.2024 18:12 21,4 °C 8,2 °C 50 % 85 % 1032,1 hPa 0,0 l/m² 4,2 km/h (1 Bft) NW 314 ° 0 min 0 W/m² 5,8 °C 8,2 °C 6,4 km/h (2 Bft)
17.02.2024 18:13 21,3 °C 8,1 °C 50 % 85 % 1032,1 hPa 0,0 l/m² 6,2 km/h (2 Bft) NW 321 ° 0 min 0 W/m² 5,7 °C 8,1 °C 11,3 km/h (2 Bft)
17.02.2024 18:14 21,3 °C 8,1 °C 50 % 85 % 1032,1 hPa 0,0 l/m² 5,5 km/h (2 Bft) W-NW 300 ° 0 min 0 W/m² 5,7 °C 8,1 °C 8,0 km/h (2 Bft)
17.02.2024 18:15 21,3 °C 8,1 °C 50 % 85 % 1032,1 hPa 0,0 l/m² 7,0 km/h (2 Bft) NW 310 ° 0 min 0 W/m² 5,7 °C 7,6 °C 11,3 km/h (2 Bft)
17.02.2024 18:16 21,3 °C 8,1 °C 50 % 85 % 1032,1 hPa 0,0 l/m² 6,4 km/h (2 Bft) NW 311 ° 0 min 0 W/m² 5,7 °C 8,1 °C 11,3 km/h (2 Bft)
17.02.2024 18:17 21,4 °C 8,1 °C 50 % 85 % 1032,1 hPa 0,0 l/m² 5,9 km/h (2 Bft) W-NW 300 ° 0 min 0 W/m² 5,7 °C 8,1 °C 8,0 km/h (2 Bft)
17.02.2024 18:18 21,3 °C 8,0 °C 50 % 85 % 1032,1 hPa 0,0 l/m² 6,4 km/h (2 Bft) NW 317 ° 0 min 0 W/m² 5,6 °C 8,0 °C 8,0 km/h (2 Bft)
17.02.2024 18:19 21,3 °C 7,9 °C 50 % 85 % 1032,1 hPa 0,0 l/m² 5,7 km/h (2 Bft) NW 305 ° 0 min 0 W/m² 5,5 °C 7,9 °C 8,0 km/h (2 Bft)
17.02.2024 18:20 21,3 °C 7,9 °C 50 % 85 % 1032,2 hPa 0,0 l/m² 4,3 km/h (1 Bft) NW 312 ° 0 min 0 W/m² 5,5 °C 7,9 °C 8,0 km/h (2 Bft)
17.02.2024 18:21 21,3 °C 7,9 °C 50 % 85 % 1032,1 hPa 0,0 l/m² 6,2 km/h (2 Bft) NW 311 ° 0 min 0 W/m² 5,5 °C 7,9 °C 11,3 km/h (2 Bft)
17.02.2024 18:22 21,3 °C 7,8 °C 50 % 85 % 1032,2 hPa 0,0 l/m² 4,6 km/h (1 Bft) NW 308 ° 0 min 0 W/m² 5,4 °C 7,8 °C 8,0 km/h (2 Bft)
17.02.2024 18:23 21,3 °C 7,9 °C 50 % 85 % 1032,1 hPa 0,0 l/m² 4,2 km/h (1 Bft) NW 326 ° 0 min 0 W/m² 5,5 °C 7,9 °C 6,4 km/h (2 Bft)
17.02.2024 18:24 21,3 °C 7,8 °C 50 % 85 % 1032,2 hPa 0,0 l/m² 4,2 km/h (1 Bft) NW 308 ° 0 min 0 W/m² 5,4 °C 7,8 °C 6,4 km/h (2 Bft)
17.02.2024 18:25 21,3 °C 7,7 °C 50 % 86 % 1032,2 hPa 0,0 l/m² 5,6 km/h (2 Bft) NW 312 ° 0 min 0 W/m² 5,5 °C 7,7 °C 8,0 km/h (2 Bft)
17.02.2024 18:26 21,3 °C 7,7 °C 50 % 86 % 1032,2 hPa 0,0 l/m² 3,8 km/h (1 Bft) NW 311 ° 0 min 0 W/m² 5,5 °C 7,7 °C 6,4 km/h (2 Bft)
17.02.2024 18:27 21,3 °C 7,7 °C 50 % 86 % 1032,2 hPa 0,0 l/m² 4,3 km/h (1 Bft) N-NW 327 ° 0 min 0 W/m² 5,5 °C 7,7 °C 8,0 km/h (2 Bft)
17.02.2024 18:28 21,3 °C 7,6 °C 50 % 86 % 1032,2 hPa 0,0 l/m² 2,8 km/h (1 Bft) NW 319 ° 0 min 0 W/m² 5,4 °C 7,6 °C 4,8 km/h (1 Bft)
17.02.2024 18:29 21,3 °C 7,6 °C 50 % 86 % 1032,3 hPa 0,0 l/m² 4,2 km/h (1 Bft) NW 311 ° 0 min 0 W/m² 5,4 °C 7,6 °C 6,4 km/h (2 Bft)
17.02.2024 18:30 21,3 °C 7,6 °C 50 % 86 % 1032,3 hPa 0,0 l/m² 3,0 km/h (1 Bft) NW 307 ° 0 min 0 W/m² 5,4 °C 7,6 °C 6,4 km/h (2 Bft)
17.02.2024 18:31 21,3 °C 7,6 °C 50 % 86 % 1032,3 hPa 0,0 l/m² 3,6 km/h (1 Bft) W-NW 292 ° 0 min 0 W/m² 5,4 °C 7,6 °C 8,0 km/h (2 Bft)
17.02.2024 18:32 21,3 °C 7,6 °C 50 % 86 % 1032,3 hPa 0,0 l/m² 3,9 km/h (1 Bft) W-NW 298 ° 0 min 0 W/m² 5,4 °C 7,6 °C 6,4 km/h (2 Bft)
17.02.2024 18:33 21,3 °C 7,6 °C 50 % 86 % 1032,3 hPa 0,0 l/m² 2,6 km/h (1 Bft) W-NW 299 ° 0 min 0 W/m² 5,4 °C 7,6 °C 4,8 km/h (1 Bft)
17.02.2024 18:34 21,4 °C 7,6 °C 50 % 86 % 1032,4 hPa 0,0 l/m² 2,5 km/h (1 Bft) NW 311 ° 0 min 0 W/m² 5,4 °C 7,6 °C 6,4 km/h (2 Bft)
17.02.2024 18:35 21,3 °C 7,6 °C 50 % 86 % 1032,3 hPa 0,0 l/m² 0,7 km/h (0 Bft) NW 311 ° 0 min 0 W/m² 5,4 °C 7,6 °C 3,2 km/h (1 Bft)
17.02.2024 18:36 21,3 °C 7,6 °C 50 % 86 % 1032,4 hPa 0,0 l/m² 2,7 km/h (1 Bft) NW 309 ° 0 min 0 W/m² 5,4 °C 7,6 °C 4,8 km/h (1 Bft)
17.02.2024 18:37 21,3 °C 7,5 °C 50 % 86 % 1032,4 hPa 0,0 l/m² 3,4 km/h (1 Bft) W-NW 300 ° 0 min 0 W/m² 5,3 °C 7,5 °C 6,4 km/h (2 Bft)
17.02.2024 18:38 21,4 °C 7,5 °C 50 % 86 % 1032,5 hPa 0,0 l/m² 3,4 km/h (1 Bft) NW 306 ° 0 min 0 W/m² 5,3 °C 7,5 °C 6,4 km/h (2 Bft)
17.02.2024 18:39 21,3 °C 7,4 °C 50 % 87 % 1032,5 hPa 0,0 l/m² 4,0 km/h (1 Bft) W-NW 296 ° 0 min 0 W/m² 5,4 °C 7,4 °C 6,4 km/h (2 Bft)
17.02.2024 18:40 21,3 °C 7,4 °C 50 % 86 % 1032,5 hPa 0,0 l/m² 3,3 km/h (1 Bft) NW 305 ° 0 min 0 W/m² 5,2 °C 7,4 °C 6,4 km/h (2 Bft)
17.02.2024 18:42 21,4 °C 7,4 °C 50 % 87 % 1032,5 hPa 0,0 l/m² 4,6 km/h (1 Bft) NW 304 ° 0 min 0 W/m² 5,4 °C 7,4 °C 8,0 km/h (2 Bft)
17.02.2024 18:43 21,4 °C 7,4 °C 50 % 87 % 1032,5 hPa 0,0 l/m² 4,2 km/h (1 Bft) NW 315 ° 0 min 0 W/m² 5,4 °C 7,4 °C 6,4 km/h (2 Bft)
17.02.2024 18:44 21,4 °C 7,4 °C 50 % 87 % 1032,5 hPa 0,0 l/m² 2,3 km/h (1 Bft) NW 311 ° 0 min 0 W/m² 5,4 °C 7,4 °C 4,8 km/h (1 Bft)
17.02.2024 18:46 21,3 °C 7,5 °C 50 % 87 % 1032,5 hPa 0,0 l/m² 4,7 km/h (1 Bft) NW 307 ° 0 min 0 W/m² 5,5 °C 7,5 °C 8,0 km/h (2 Bft)
17.02.2024 18:47 21,3 °C 7,5 °C 50 % 87 % 1032,5 hPa 0,0 l/m² 2,7 km/h (1 Bft) NW 312 ° 0 min 0 W/m² 5,5 °C 7,5 °C 6,4 km/h (2 Bft)
17.02.2024 18:48 21,3 °C 7,5 °C 50 % 87 % 1032,5 hPa 0,0 l/m² 3,8 km/h (1 Bft) NW 322 ° 0 min 0 W/m² 5,5 °C 7,5 °C 6,4 km/h (2 Bft)
17.02.2024 18:49 21,3 °C 7,5 °C 50 % 87 % 1032,5 hPa 0,0 l/m² 3,7 km/h (1 Bft) W-NW 302 ° 0 min 0 W/m² 5,5 °C 7,5 °C 8,0 km/h (2 Bft)
17.02.2024 18:50 21,3 °C 7,4 °C 50 % 87 % 1032,5 hPa 0,0 l/m² 4,6 km/h (1 Bft) NW 309 ° 0 min 0 W/m² 5,4 °C 7,4 °C 6,4 km/h (2 Bft)
17.02.2024 18:51 21,3 °C 7,4 °C 49 % 87 % 1032,5 hPa 0,0 l/m² 3,5 km/h (1 Bft) W-NW 302 ° 0 min 0 W/m² 5,4 °C 7,4 °C 6,4 km/h (2 Bft)
17.02.2024 18:52 21,3 °C 7,4 °C 49 % 87 % 1032,5 hPa 0,0 l/m² 5,4 km/h (2 Bft) NW 304 ° 0 min 0 W/m² 5,4 °C 7,4 °C 8,0 km/h (2 Bft)
17.02.2024 18:53 21,3 °C 7,4 °C 49 % 87 % 1032,5 hPa 0,0 l/m² 4,1 km/h (1 Bft) W-NW 301 ° 0 min 0 W/m² 5,4 °C 7,4 °C 8,0 km/h (2 Bft)
17.02.2024 18:54 21,3 °C 7,4 °C 49 % 86 % 1032,5 hPa 0,0 l/m² 3,5 km/h (1 Bft) NW 304 ° 0 min 0 W/m² 5,2 °C 7,4 °C 4,8 km/h (1 Bft)
17.02.2024 18:55 21,3 °C 7,4 °C 49 % 86 % 1032,4 hPa 0,0 l/m² 3,4 km/h (1 Bft) NW 305 ° 0 min 0 W/m² 5,2 °C 7,4 °C 4,8 km/h (1 Bft)
17.02.2024 18:56 21,3 °C 7,3 °C 49 % 86 % 1032,5 hPa 0,0 l/m² 2,6 km/h (1 Bft) NW 305 ° 0 min 0 W/m² 5,1 °C 7,3 °C 4,8 km/h (1 Bft)
17.02.2024 18:57 21,3 °C 7,3 °C 49 % 86 % 1032,5 hPa 0,0 l/m² 3,4 km/h (1 Bft) NW 307 ° 0 min 0 W/m² 5,1 °C 7,3 °C 4,8 km/h (1 Bft)
17.02.2024 18:58 21,3 °C 7,2 °C 49 % 87 % 1032,5 hPa 0,0 l/m² 4,2 km/h (1 Bft) W-NW 303 ° 0 min 0 W/m² 5,2 °C 7,2 °C 6,4 km/h (2 Bft)
17.02.2024 18:59 21,3 °C 7,2 °C 49 % 87 % 1032,5 hPa 0,0 l/m² 2,4 km/h (1 Bft) NW 309 ° 0 min 0 W/m² 5,2 °C 7,2 °C 4,8 km/h (1 Bft)
17.02.2024 19:00 21,3 °C 7,2 °C 49 % 87 % 1032,5 hPa 0,0 l/m² 2,5 km/h (1 Bft) NW 309 ° 0 min 0 W/m² 5,2 °C 7,2 °C 4,8 km/h (1 Bft)
17.02.2024 19:01 21,3 °C 7,1 °C 49 % 87 % 1032,5 hPa 0,0 l/m² 3,1 km/h (1 Bft) NW 309 ° 0 min 0 W/m² 5,1 °C 7,1 °C 4,8 km/h (1 Bft)
17.02.2024 19:02 21,3 °C 7,1 °C 48 % 87 % 1032,6 hPa 0,0 l/m² 2,6 km/h (1 Bft) NW 309 ° 0 min 0 W/m² 5,1 °C 7,1 °C 4,8 km/h (1 Bft)
17.02.2024 19:03 21,3 °C 7,0 °C 49 % 87 % 1032,7 hPa 0,0 l/m² 3,8 km/h (1 Bft) NW 309 ° 0 min 0 W/m² 5,0 °C 7,0 °C 4,8 km/h (1 Bft)
17.02.2024 19:04 21,3 °C 6,9 °C 49 % 87 % 1032,6 hPa 0,0 l/m² 3,4 km/h (1 Bft) NW 309 ° 0 min 0 W/m² 4,9 °C 6,9 °C 4,8 km/h (1 Bft)
17.02.2024 19:05 21,3 °C 6,9 °C 49 % 87 % 1032,6 hPa 0,0 l/m² 5,1 km/h (1 Bft) NW 309 ° 0 min 0 W/m² 4,9 °C 6,9 °C 6,4 km/h (2 Bft)
17.02.2024 19:06 21,3 °C 6,8 °C 49 % 87 % 1032,6 hPa 0,0 l/m² 3,4 km/h (1 Bft) NW 309 ° 0 min 0 W/m² 4,8 °C 6,8 °C 4,8 km/h (1 Bft)
17.02.2024 19:07 21,3 °C 6,8 °C 49 % 87 % 1032,7 hPa 0,0 l/m² 0,9 km/h (0 Bft) NW 309 ° 0 min 0 W/m² 4,8 °C 6,8 °C 3,2 km/h (1 Bft)
17.02.2024 19:08 21,3 °C 6,7 °C 49 % 87 % 1032,7 hPa 0,0 l/m² 1,5 km/h (1 Bft) NW 309 ° 0 min 0 W/m² 4,7 °C 6,7 °C 3,2 km/h (1 Bft)
17.02.2024 19:09 21,3 °C 6,7 °C 49 % 87 % 1032,7 hPa 0,0 l/m² 3,1 km/h (1 Bft) NW 309 ° 0 min 0 W/m² 4,7 °C 6,7 °C 4,8 km/h (1 Bft)
17.02.2024 19:10 21,3 °C 6,7 °C 49 % 87 % 1032,7 hPa 0,0 l/m² 3,4 km/h (1 Bft) NW 309 ° 0 min 0 W/m² 4,7 °C 6,7 °C 4,8 km/h (1 Bft)
17.02.2024 19:11 21,3 °C 6,6 °C 49 % 88 % 1032,8 hPa 0,0 l/m² 3,5 km/h (1 Bft) NW 309 ° 0 min 0 W/m² 4,8 °C 6,6 °C 4,8 km/h (1 Bft)
17.02.2024 19:12 21,3 °C 6,5 °C 49 % 87 % 1032,8 hPa 0,0 l/m² 3,4 km/h (1 Bft) NW 310 ° 0 min 0 W/m² 4,5 °C 6,5 °C 4,8 km/h (1 Bft)
17.02.2024 19:13 21,3 °C 6,5 °C 49 % 88 % 1032,8 hPa 0,0 l/m² 3,1 km/h (1 Bft) NW 310 ° 0 min 0 W/m² 4,7 °C 6,5 °C 4,8 km/h (1 Bft)
17.02.2024 19:14 21,3 °C 6,5 °C 50 % 88 % 1032,8 hPa 0,0 l/m² 1,9 km/h (1 Bft) NW 310 ° 0 min 0 W/m² 4,7 °C 6,5 °C 4,8 km/h (1 Bft)
17.02.2024 19:15 21,3 °C 6,4 °C 50 % 88 % 1032,8 hPa 0,0 l/m² 3,1 km/h (1 Bft) NW 310 ° 0 min 0 W/m² 4,6 °C 6,4 °C 4,8 km/h (1 Bft)
17.02.2024 19:16 21,3 °C 6,4 °C 50 % 88 % 1032,8 hPa 0,0 l/m² 1,7 km/h (1 Bft) NW 310 ° 0 min 0 W/m² 4,6 °C 6,4 °C 3,2 km/h (1 Bft)
17.02.2024 19:17 21,3 °C 6,4 °C 50 % 88 % 1032,8 hPa 0,0 l/m² 2,7 km/h (1 Bft) NW 310 ° 0 min 0 W/m² 4,6 °C 6,4 °C 3,2 km/h (1 Bft)
17.02.2024 19:18 21,3 °C 6,4 °C 50 % 88 % 1032,9 hPa 0,0 l/m² 1,9 km/h (1 Bft) NW 310 ° 0 min 0 W/m² 4,6 °C 6,4 °C 3,2 km/h (1 Bft)
17.02.2024 19:19 21,3 °C 6,3 °C 50 % 88 % 1032,8 hPa 0,0 l/m² 1,8 km/h (1 Bft) NW 310 ° 0 min 0 W/m² 4,5 °C 6,3 °C 3,2 km/h (1 Bft)
17.02.2024 19:20 21,3 °C 6,3 °C 50 % 88 % 1032,8 hPa 0,0 l/m² 0,1 km/h (0 Bft) NW 310 ° 0 min 0 W/m² 4,5 °C 6,3 °C 1,6 km/h (1 Bft)
17.02.2024 19:21 21,3 °C 6,3 °C 50 % 88 % 1032,8 hPa 0,0 l/m² 0,1 km/h (0 Bft) NW 310 ° 0 min 0 W/m² 4,5 °C 6,3 °C 1,6 km/h (1 Bft)
17.02.2024 19:22 21,3 °C 6,3 °C 50 % 88 % 1032,9 hPa 0,0 l/m² 0,7 km/h (0 Bft) NW 310 ° 0 min 0 W/m² 4,5 °C 6,3 °C 3,2 km/h (1 Bft)
17.02.2024 19:23 21,3 °C 6,2 °C 50 % 88 % 1032,9 hPa 0,0 l/m² 0,9 km/h (0 Bft) NW 310 ° 0 min 0 W/m² 4,4 °C 6,2 °C 3,2 km/h (1 Bft)
17.02.2024 19:24 21,3 °C 6,2 °C 50 % 88 % 1033,0 hPa 0,0 l/m² 0,0 km/h (0 Bft) NW 310 ° 0 min 0 W/m² 4,4 °C 6,2 °C 0,0 km/h (0 Bft)
17.02.2024 19:25 21,4 °C 6,2 °C 50 % 88 % 1032,9 hPa 0,0 l/m² 0,0 km/h (0 Bft) NW 310 ° 0 min 0 W/m² 4,4 °C 6,2 °C 0,0 km/h (0 Bft)
17.02.2024 19:26 21,4 °C 6,1 °C 50 % 89 % 1032,9 hPa 0,0 l/m² 0,0 km/h (0 Bft) NW 310 ° 0 min 0 W/m² 4,4 °C 6,1 °C 0,0 km/h (0 Bft)
17.02.2024 19:27 21,3 °C 6,1 °C 50 % 89 % 1033,0 hPa 0,0 l/m² 0,0 km/h (0 Bft) NW 310 ° 0 min 0 W/m² 4,4 °C 6,1 °C 0,0 km/h (0 Bft)
17.02.2024 19:28 21,4 °C 6,0 °C 50 % 88 % 1033,0 hPa 0,0 l/m² 0,0 km/h (0 Bft) NW 310 ° 0 min 0 W/m² 4,2 °C 6,0 °C 0,0 km/h (0 Bft)
17.02.2024 19:29 21,4 °C 5,9 °C 50 % 88 % 1033,0 hPa 0,0 l/m² 0,0 km/h (0 Bft) NW 310 ° 0 min 0 W/m² 4,1 °C 5,9 °C 0,0 km/h (0 Bft)
17.02.2024 19:30 21,4 °C 5,8 °C 50 % 89 % 1033,0 hPa 0,0 l/m² 0,0 km/h (0 Bft) NW 310 ° 0 min 0 W/m² 4,1 °C 5,8 °C 0,0 km/h (0 Bft)
17.02.2024 19:31 21,4 °C 5,8 °C 50 % 89 % 1033,0 hPa 0,0 l/m² 0,0 km/h (0 Bft) NW 310 ° 0 min 0 W/m² 4,1 °C 5,8 °C 0,0 km/h (0 Bft)
17.02.2024 19:32 21,4 °C 5,8 °C 50 % 89 % 1033,1 hPa 0,0 l/m² 0,0 km/h (0 Bft) NW 310 ° 0 min 0 W/m² 4,1 °C 5,8 °C 0,0 km/h (0 Bft)
17.02.2024 19:33 21,4 °C 5,8 °C 50 % 89 % 1033,0 hPa 0,0 l/m² 0,0 km/h (0 Bft) NW 310 ° 0 min 0 W/m² 4,1 °C 5,8 °C 0,0 km/h (0 Bft)
17.02.2024 19:34 21,4 °C 5,8 °C 50 % 89 % 1033,0 hPa 0,0 l/m² 0,0 km/h (0 Bft) NW 310 ° 0 min 0 W/m² 4,1 °C 5,8 °C 0,0 km/h (0 Bft)
17.02.2024 19:35 21,4 °C 5,8 °C 50 % 89 % 1033,1 hPa 0,0 l/m² 0,0 km/h (0 Bft) NW 310 ° 0 min 0 W/m² 4,1 °C 5,8 °C 0,0 km/h (0 Bft)
17.02.2024 19:36 21,4 °C 5,8 °C 50 % 90 % 1033,2 hPa 0,0 l/m² 0,0 km/h (0 Bft) NW 310 ° 0 min 0 W/m² 4,3 °C 5,8 °C 0,0 km/h (0 Bft)
17.02.2024 19:37 21,4 °C 5,8 °C 50 % 90 % 1033,2 hPa 0,0 l/m² 0,0 km/h (0 Bft) NW 310 ° 0 min 0 W/m² 4,3 °C 5,8 °C 0,0 km/h (0 Bft)
17.02.2024 19:38 21,4 °C 5,8 °C 51 % 90 % 1033,1 hPa 0,0 l/m² 0,0 km/h (0 Bft) NW 310 ° 0 min 0 W/m² 4,3 °C 5,8 °C 0,0 km/h (0 Bft)
17.02.2024 19:39 21,4 °C 5,8 °C 51 % 90 % 1033,2 hPa 0,0 l/m² 0,1 km/h (0 Bft) NW 310 ° 0 min 0 W/m² 4,3 °C 5,8 °C 1,6 km/h (1 Bft)
17.02.2024 19:40 21,4 °C 5,7 °C 51 % 90 % 1033,2 hPa 0,0 l/m² 0,0 km/h (0 Bft) NW 310 ° 0 min 0 W/m² 4,2 °C 5,7 °C 0,0 km/h (0 Bft)
17.02.2024 19:41 21,4 °C 5,7 °C 51 % 90 % 1033,2 hPa 0,0 l/m² 1,3 km/h (1 Bft) NW 310 ° 0 min 0 W/m² 4,2 °C 5,7 °C 3,2 km/h (1 Bft)
17.02.2024 19:42 21,4 °C 5,7 °C 51 % 90 % 1033,2 hPa 0,0 l/m² 2,0 km/h (1 Bft) NW 310 ° 0 min 0 W/m² 4,2 °C 5,7 °C 3,2 km/h (1 Bft)
17.02.2024 19:43 21,4 °C 5,7 °C 51 % 90 % 1033,2 hPa 0,0 l/m² 2,4 km/h (1 Bft) NW 310 ° 0 min 0 W/m² 4,2 °C 5,7 °C 3,2 km/h (1 Bft)
17.02.2024 19:44 21,4 °C 5,6 °C 51 % 90 % 1033,2 hPa 0,0 l/m² 2,7 km/h (1 Bft) NW 310 ° 0 min 0 W/m² 4,1 °C 5,6 °C 3,2 km/h (1 Bft)
17.02.2024 19:45 21,4 °C 5,7 °C 51 % 90 % 1033,2 hPa 0,0 l/m² 3,1 km/h (1 Bft) NW 310 ° 0 min 0 W/m² 4,2 °C 5,7 °C 4,8 km/h (1 Bft)
17.02.2024 19:46 21,4 °C 5,6 °C 51 % 90 % 1033,3 hPa 0,0 l/m² 1,7 km/h (1 Bft) NW 310 ° 0 min 0 W/m² 4,1 °C 5,6 °C 3,2 km/h (1 Bft)
17.02.2024 19:47 21,4 °C 5,7 °C 51 % 90 % 1033,3 hPa 0,0 l/m² 1,5 km/h (1 Bft) NW 310 ° 0 min 0 W/m² 4,2 °C 5,7 °C 3,2 km/h (1 Bft)
17.02.2024 19:48 21,5 °C 5,7 °C 51 % 90 % 1033,2 hPa 0,0 l/m² 0,4 km/h (0 Bft) NW 310 ° 0 min 0 W/m² 4,2 °C 5,7 °C 1,6 km/h (1 Bft)
17.02.2024 19:49 21,4 °C 5,7 °C 51 % 90 % 1033,3 hPa 0,0 l/m² 2,3 km/h (1 Bft) NW 310 ° 0 min 0 W/m² 4,2 °C 5,7 °C 4,8 km/h (1 Bft)
17.02.2024 19:50 21,5 °C 5,7 °C 51 % 90 % 1033,3 hPa 0,0 l/m² 3,7 km/h (1 Bft) NW 306 ° 0 min 0 W/m² 4,2 °C 5,7 °C 4,8 km/h (1 Bft)
17.02.2024 19:51 21,4 °C 5,7 °C 51 % 90 % 1033,4 hPa 0,0 l/m² 2,3 km/h (1 Bft) NW 306 ° 0 min 0 W/m² 4,2 °C 5,7 °C 3,2 km/h (1 Bft)
17.02.2024 19:52 21,5 °C 5,8 °C 51 % 90 % 1033,2 hPa 0,0 l/m² 2,3 km/h (1 Bft) NW 304 ° 0 min 0 W/m² 4,3 °C 5,8 °C 4,8 km/h (1 Bft)
17.02.2024 19:53 21,5 °C 5,8 °C 51 % 91 % 1033,4 hPa 0,0 l/m² 3,5 km/h (1 Bft) W-NW 303 ° 0 min 0 W/m² 4,4 °C 5,8 °C 4,8 km/h (1 Bft)
17.02.2024 19:54 21,6 °C 5,8 °C 51 % 91 % 1033,4 hPa 0,0 l/m² 3,4 km/h (1 Bft) W-NW 303 ° 0 min 0 W/m² 4,4 °C 5,8 °C 4,8 km/h (1 Bft)
17.02.2024 19:55 21,5 °C 5,8 °C 51 % 91 % 1033,3 hPa 0,0 l/m² 3,4 km/h (1 Bft) W-NW 302 ° 0 min 0 W/m² 4,4 °C 5,8 °C 4,8 km/h (1 Bft)
17.02.2024 19:56 21,5 °C 5,9 °C 51 % 91 % 1033,3 hPa 0,0 l/m² 3,2 km/h (1 Bft) W-NW 303 ° 0 min 0 W/m² 4,5 °C 5,9 °C 4,8 km/h (1 Bft)
17.02.2024 19:57 21,6 °C 5,9 °C 51 % 91 % 1033,3 hPa 0,0 l/m² 2,8 km/h (1 Bft) W-NW 303 ° 0 min 0 W/m² 4,5 °C 5,9 °C 4,8 km/h (1 Bft)
17.02.2024 19:58 21,5 °C 5,9 °C 51 % 91 % 1033,3 hPa 0,0 l/m² 2,1 km/h (1 Bft) W-NW 303 ° 0 min 0 W/m² 4,5 °C 5,9 °C 3,2 km/h (1 Bft)
17.02.2024 19:59 21,6 °C 6,0 °C 51 % 91 % 1033,3 hPa 0,0 l/m² 1,6 km/h (1 Bft) W-NW 303 ° 0 min 0 W/m² 4,6 °C 6,0 °C 3,2 km/h (1 Bft)
17.02.2024 20:00 21,6 °C 6,1 °C 51 % 91 % 1033,3 hPa 0,0 l/m² 0,0 km/h (0 Bft) W-NW 303 ° 0 min 0 W/m² 4,7 °C 6,1 °C 0,0 km/h (0 Bft)
17.02.2024 20:01 21,6 °C 6,1 °C 51 % 91 % 1033,3 hPa 0,0 l/m² 0,0 km/h (0 Bft) W-NW 303 ° 0 min 0 W/m² 4,7 °C 6,1 °C 0,0 km/h (0 Bft)
17.02.2024 20:02 21,6 °C 6,1 °C 51 % 91 % 1033,3 hPa 0,0 l/m² 0,0 km/h (0 Bft) W-NW 303 ° 0 min 0 W/m² 4,7 °C 6,1 °C 0,0 km/h (0 Bft)
17.02.2024 20:03 21,6 °C 6,1 °C 51 % 91 % 1033,3 hPa 0,0 l/m² 0,0 km/h (0 Bft) W-NW 303 ° 0 min 0 W/m² 4,7 °C 6,1 °C 0,0 km/h (0 Bft)
17.02.2024 20:04 21,6 °C 6,1 °C 51 % 91 % 1033,3 hPa 0,0 l/m² 0,0 km/h (0 Bft) W-NW 303 ° 0 min 0 W/m² 4,7 °C 6,1 °C 0,0 km/h (0 Bft)
17.02.2024 20:05 21,6 °C 6,1 °C 50 % 91 % 1033,3 hPa 0,0 l/m² 0,0 km/h (0 Bft) W-NW 303 ° 0 min 0 W/m² 4,7 °C 6,1 °C 0,0 km/h (0 Bft)
17.02.2024 20:06 21,6 °C 6,0 °C 49 % 91 % 1033,2 hPa 0,0 l/m² 0,0 km/h (0 Bft) W-NW 303 ° 0 min 0 W/m² 4,6 °C 6,0 °C 0,0 km/h (0 Bft)
17.02.2024 20:07 21,6 °C 5,9 °C 49 % 90 % 1033,3 hPa 0,0 l/m² 0,0 km/h (0 Bft) W-NW 303 ° 0 min 0 W/m² 4,4 °C 5,9 °C 0,0 km/h (0 Bft)
17.02.2024 20:08 21,6 °C 5,8 °C 49 % 90 % 1033,3 hPa 0,0 l/m² 0,0 km/h (0 Bft) W-NW 303 ° 0 min 0 W/m² 4,3 °C 5,8 °C 0,0 km/h (0 Bft)
17.02.2024 20:09 21,6 °C 5,7 °C 49 % 90 % 1033,3 hPa 0,0 l/m² 0,0 km/h (0 Bft) W-NW 303 ° 0 min 0 W/m² 4,2 °C 5,7 °C 0,0 km/h (0 Bft)
17.02.2024 20:10 21,5 °C 5,6 °C 49 % 90 % 1033,4 hPa 0,0 l/m² 0,0 km/h (0 Bft) W-NW 303 ° 0 min 0 W/m² 4,1 °C 5,6 °C 0,0 km/h (0 Bft)
17.02.2024 20:11 21,6 °C 5,6 °C 49 % 90 % 1033,4 hPa 0,0 l/m² 0,3 km/h (0 Bft) W-NW 303 ° 0 min 0 W/m² 4,1 °C 5,6 °C 1,6 km/h (1 Bft)
17.02.2024 20:12 21,6 °C 5,4 °C 49 % 90 % 1033,4 hPa 0,0 l/m² 0,1 km/h (0 Bft) W-NW 303 ° 0 min 0 W/m² 3,9 °C 5,4 °C 1,6 km/h (1 Bft)
17.02.2024 20:13 21,6 °C 5,4 °C 49 % 90 % 1033,4 hPa 0,0 l/m² 0,3 km/h (0 Bft) W-NW 303 ° 0 min 0 W/m² 3,9 °C 5,4 °C 1,6 km/h (1 Bft)
17.02.2024 20:14 21,6 °C 5,4 °C 49 % 91 % 1033,4 hPa 0,0 l/m² 1,5 km/h (1 Bft) W-NW 303 ° 0 min 0 W/m² 4,1 °C 5,4 °C 4,8 km/h (1 Bft)
17.02.2024 20:15 21,6 °C 5,4 °C 49 % 91 % 1033,4 hPa 0,0 l/m² 5,5 km/h (2 Bft) NW 309 ° 0 min 0 W/m² 4,1 °C 5,4 °C 8,0 km/h (2 Bft)
17.02.2024 20:16 21,5 °C 5,6 °C 50 % 91 % 1033,5 hPa 0,0 l/m² 4,0 km/h (1 Bft) NW 309 ° 0 min 0 W/m² 4,2 °C 5,6 °C 6,4 km/h (2 Bft)
17.02.2024 20:17 21,5 °C 5,6 °C 50 % 91 % 1033,4 hPa 0,0 l/m² 2,8 km/h (1 Bft) NW 309 ° 0 min 0 W/m² 4,2 °C 5,6 °C 4,8 km/h (1 Bft)
17.02.2024 20:18 21,6 °C 5,7 °C 50 % 91 % 1033,4 hPa 0,0 l/m² 2,8 km/h (1 Bft) NW 309 ° 0 min 0 W/m² 4,3 °C 5,7 °C 4,8 km/h (1 Bft)
17.02.2024 20:19 21,6 °C 5,8 °C 50 % 92 % 1033,4 hPa 0,0 l/m² 2,7 km/h (1 Bft) NW 309 ° 0 min 0 W/m² 4,6 °C 5,8 °C 3,2 km/h (1 Bft)
17.02.2024 20:20 21,6 °C 5,8 °C 50 % 91 % 1033,4 hPa 0,0 l/m² 2,5 km/h (1 Bft) NW 309 ° 0 min 0 W/m² 4,4 °C 5,8 °C 3,2 km/h (1 Bft)
17.02.2024 20:21 21,6 °C 5,7 °C 50 % 91 % 1033,4 hPa 0,0 l/m² 0,7 km/h (0 Bft) NW 309 ° 0 min 0 W/m² 4,3 °C 5,7 °C 1,6 km/h (1 Bft)
17.02.2024 20:22 21,6 °C 5,7 °C 50 % 91 % 1033,4 hPa 0,0 l/m² 0,8 km/h (0 Bft) NW 309 ° 0 min 0 W/m² 4,3 °C 5,7 °C 3,2 km/h (1 Bft)
17.02.2024 20:23 21,6 °C 5,7 °C 50 % 91 % 1033,4 hPa 0,0 l/m² 0,0 km/h (0 Bft) NW 309 ° 0 min 0 W/m² 4,3 °C 5,7 °C 0,0 km/h (0 Bft)
17.02.2024 20:24 21,6 °C 5,7 °C 50 % 91 % 1033,5 hPa 0,0 l/m² 0,0 km/h (0 Bft) NW 309 ° 0 min 0 W/m² 4,3 °C 5,7 °C 0,0 km/h (0 Bft)
17.02.2024 20:25 21,6 °C 5,7 °C 50 % 91 % 1033,5 hPa 0,0 l/m² 0,0 km/h (0 Bft) NW 309 ° 0 min 0 W/m² 4,3 °C 5,7 °C 0,0 km/h (0 Bft)
17.02.2024 20:26 21,6 °C 5,7 °C 50 % 91 % 1033,5 hPa 0,0 l/m² 0,0 km/h (0 Bft) NW 309 ° 0 min 0 W/m² 4,3 °C 5,7 °C 0,0 km/h (0 Bft)
17.02.2024 20:27 21,6 °C 5,7 °C 50 % 91 % 1033,5 hPa 0,0 l/m² 0,0 km/h (0 Bft) NW 309 ° 0 min 0 W/m² 4,3 °C 5,7 °C 0,0 km/h (0 Bft)
17.02.2024 20:28 21,6 °C 5,7 °C 50 % 91 % 1033,5 hPa 0,0 l/m² 0,0 km/h (0 Bft) NW 309 ° 0 min 0 W/m² 4,3 °C 5,7 °C 0,0 km/h (0 Bft)
17.02.2024 20:29 21,6 °C 5,7 °C 50 % 91 % 1033,5 hPa 0,0 l/m² 0,0 km/h (0 Bft) NW 309 ° 0 min 0 W/m² 4,3 °C 5,7 °C 0,0 km/h (0 Bft)
17.02.2024 20:30 21,6 °C 5,7 °C 50 % 91 % 1033,5 hPa 0,0 l/m² 0,0 km/h (0 Bft) NW 309 ° 0 min 0 W/m² 4,3 °C 5,7 °C 0,0 km/h (0 Bft)
17.02.2024 20:31 21,6 °C 5,7 °C 50 % 91 % 1033,6 hPa 0,0 l/m² 0,0 km/h (0 Bft) NW 309 ° 0 min 0 W/m² 4,3 °C 5,7 °C 0,0 km/h (0 Bft)
17.02.2024 20:32 21,6 °C 5,7 °C 50 % 91 % 1033,6 hPa 0,0 l/m² 0,0 km/h (0 Bft) NW 309 ° 0 min 0 W/m² 4,3 °C 5,7 °C 0,0 km/h (0 Bft)
17.02.2024 20:33 21,6 °C 5,6 °C 50 % 91 % 1033,5 hPa 0,0 l/m² 0,0 km/h (0 Bft) NW 309 ° 0 min 0 W/m² 4,2 °C 5,6 °C 0,0 km/h (0 Bft)
17.02.2024 20:34 21,6 °C 5,6 °C 50 % 91 % 1033,6 hPa 0,0 l/m² 0,0 km/h (0 Bft) NW 309 ° 0 min 0 W/m² 4,2 °C 5,6 °C 0,0 km/h (0 Bft)
17.02.2024 20:35 21,6 °C 5,6 °C 50 % 91 % 1033,6 hPa 0,0 l/m² 0,0 km/h (0 Bft) NW 309 ° 0 min 0 W/m² 4,2 °C 5,6 °C 0,0 km/h (0 Bft)
17.02.2024 20:36 21,6 °C 5,7 °C 50 % 91 % 1033,6 hPa 0,0 l/m² 0,0 km/h (0 Bft) NW 309 ° 0 min 0 W/m² 4,3 °C 5,7 °C 0,0 km/h (0 Bft)
17.02.2024 20:37 21,6 °C 5,6 °C 50 % 91 % 1033,6 hPa 0,0 l/m² 0,0 km/h (0 Bft) NW 309 ° 0 min 0 W/m² 4,2 °C 5,6 °C 0,0 km/h (0 Bft)
17.02.2024 20:38 21,6 °C 5,6 °C 50 % 91 % 1033,5 hPa 0,0 l/m² 0,0 km/h (0 Bft) NW 309 ° 0 min 0 W/m² 4,2 °C 5,6 °C 0,0 km/h (0 Bft)
17.02.2024 20:39 21,7 °C 5,6 °C 50 % 91 % 1033,6 hPa 0,0 l/m² 0,0 km/h (0 Bft) NW 309 ° 0 min 0 W/m² 4,2 °C 5,6 °C 0,0 km/h (0 Bft)
17.02.2024 20:40 21,7 °C 5,6 °C 51 % 91 % 1033,6 hPa 0,0 l/m² 0,1 km/h (0 Bft) NW 309 ° 0 min 0 W/m² 4,2 °C 5,6 °C 1,6 km/h (1 Bft)
17.02.2024 20:41 21,7 °C 5,4 °C 51 % 91 % 1033,5 hPa 0,0 l/m² 0,0 km/h (0 Bft) NW 309 ° 0 min 0 W/m² 4,1 °C 5,4 °C 0,0 km/h (0 Bft)
17.02.2024 20:42 21,7 °C 5,4 °C 51 % 91 % 1033,6 hPa 0,0 l/m² 0,0 km/h (0 Bft) NW 309 ° 0 min 0 W/m² 4,1 °C 5,4 °C 0,0 km/h (0 Bft)
17.02.2024 20:43 21,7 °C 5,3 °C 51 % 91 % 1033,6 hPa 0,0 l/m² 0,0 km/h (0 Bft) NW 309 ° 0 min 0 W/m² 4,0 °C 5,3 °C 0,0 km/h (0 Bft)
17.02.2024 20:44 21,7 °C 5,3 °C 51 % 91 % 1033,5 hPa 0,0 l/m² 0,0 km/h (0 Bft) NW 309 ° 0 min 0 W/m² 4,0 °C 5,3 °C 0,0 km/h (0 Bft)
17.02.2024 20:45 21,7 °C 5,3 °C 51 % 91 % 1033,6 hPa 0,0 l/m² 0,0 km/h (0 Bft) NW 309 ° 0 min 0 W/m² 4,0 °C 5,3 °C 0,0 km/h (0 Bft)
17.02.2024 20:46 21,7 °C 5,3 °C 51 % 91 % 1033,6 hPa 0,0 l/m² 0,0 km/h (0 Bft) NW 309 ° 0 min 0 W/m² 4,0 °C 5,3 °C 0,0 km/h (0 Bft)
17.02.2024 20:47 21,7 °C 5,2 °C 51 % 91 % 1033,6 hPa 0,0 l/m² 0,0 km/h (0 Bft) NW 309 ° 0 min 0 W/m² 3,9 °C 5,2 °C 0,0 km/h (0 Bft)
17.02.2024 20:48 21,7 °C 5,2 °C 51 % 91 % 1033,6 hPa 0,0 l/m² 0,0 km/h (0 Bft) NW 309 ° 0 min 0 W/m² 3,9 °C 5,2 °C 0,0 km/h (0 Bft)
17.02.2024 20:49 21,7 °C 5,1 °C 51 % 91 % 1033,5 hPa 0,0 l/m² 0,0 km/h (0 Bft) NW 309 ° 0 min 0 W/m² 3,8 °C 5,1 °C 0,0 km/h (0 Bft)
17.02.2024 20:50 21,7 °C 5,1 °C 51 % 91 % 1033,6 hPa 0,0 l/m² 0,0 km/h (0 Bft) NW 309 ° 0 min 0 W/m² 3,8 °C 5,1 °C 0,0 km/h (0 Bft)
17.02.2024 20:51 21,7 °C 5,1 °C 51 % 92 % 1033,6 hPa 0,0 l/m² 0,0 km/h (0 Bft) NW 309 ° 0 min 0 W/m² 3,9 °C 5,1 °C 0,0 km/h (0 Bft)
17.02.2024 20:52 21,7 °C 5,0 °C 51 % 92 % 1033,7 hPa 0,0 l/m² 0,0 km/h (0 Bft) NW 309 ° 0 min 0 W/m² 3,8 °C 5,0 °C 0,0 km/h (0 Bft)
17.02.2024 20:53 21,7 °C 5,0 °C 51 % 92 % 1033,6 hPa 0,0 l/m² 0,0 km/h (0 Bft) NW 309 ° 0 min 0 W/m² 3,8 °C 5,0 °C 0,0 km/h (0 Bft)
17.02.2024 20:54 21,7 °C 5,0 °C 51 % 91 % 1033,7 hPa 0,0 l/m² 0,0 km/h (0 Bft) NW 309 ° 0 min 0 W/m² 3,7 °C 5,0 °C 0,0 km/h (0 Bft)
17.02.2024 20:55 21,7 °C 4,9 °C 51 % 91 % 1033,7 hPa 0,0 l/m² 0,0 km/h (0 Bft) NW 309 ° 0 min 0 W/m² 3,6 °C 4,9 °C 0,0 km/h (0 Bft)
17.02.2024 20:56 21,7 °C 4,9 °C 51 % 91 % 1033,6 hPa 0,0 l/m² 0,0 km/h (0 Bft) NW 309 ° 0 min 0 W/m² 3,6 °C 4,9 °C 0,0 km/h (0 Bft)
17.02.2024 20:57 21,7 °C 4,8 °C 51 % 92 % 1033,6 hPa 0,0 l/m² 0,0 km/h (0 Bft) NW 309 ° 0 min 0 W/m² 3,6 °C 4,8 °C 0,0 km/h (0 Bft)
17.02.2024 20:58 21,7 °C 4,8 °C 51 % 92 % 1033,6 hPa 0,0 l/m² 0,0 km/h (0 Bft) NW 309 ° 0 min 0 W/m² 3,6 °C 4,8 °C 0,0 km/h (0 Bft)
17.02.2024 20:59 21,7 °C 4,8 °C 52 % 92 % 1033,6 hPa 0,0 l/m² 0,0 km/h (0 Bft) NW 309 ° 0 min 0 W/m² 3,6 °C 4,8 °C 0,0 km/h (0 Bft)
17.02.2024 21:00 21,7 °C 4,7 °C 52 % 92 % 1033,7 hPa 0,0 l/m² 0,0 km/h (0 Bft) NW 309 ° 0 min 0 W/m² 3,5 °C 4,7 °C 0,0 km/h (0 Bft)
17.02.2024 21:01 21,7 °C 4,7 °C 52 % 91 % 1033,7 hPa 0,0 l/m² 0,0 km/h (0 Bft) NW 309 ° 0 min 0 W/m² 3,4 °C 4,7 °C 0,0 km/h (0 Bft)
17.02.2024 21:02 21,7 °C 4,7 °C 52 % 92 % 1033,7 hPa 0,0 l/m² 0,0 km/h (0 Bft) NW 309 ° 0 min 0 W/m² 3,5 °C 4,7 °C 0,0 km/h (0 Bft)
17.02.2024 21:03 21,7 °C 4,6 °C 52 % 92 % 1033,7 hPa 0,0 l/m² 0,0 km/h (0 Bft) NW 309 ° 0 min 0 W/m² 3,4 °C 4,6 °C 0,0 km/h (0 Bft)
17.02.2024 21:04 21,8 °C 4,6 °C 52 % 92 % 1033,7 hPa 0,0 l/m² 0,0 km/h (0 Bft) NW 309 ° 0 min 0 W/m² 3,4 °C 4,6 °C 0,0 km/h (0 Bft)
17.02.2024 21:05 21,7 °C 4,6 °C 52 % 92 % 1033,7 hPa 0,0 l/m² 0,0 km/h (0 Bft) NW 309 ° 0 min 0 W/m² 3,4 °C 4,6 °C 0,0 km/h (0 Bft)
17.02.2024 21:06 21,7 °C 4,6 °C 52 % 92 % 1033,6 hPa 0,0 l/m² 0,0 km/h (0 Bft) NW 309 ° 0 min 0 W/m² 3,4 °C 4,6 °C 0,0 km/h (0 Bft)
17.02.2024 21:07 21,7 °C 4,6 °C 52 % 92 % 1033,7 hPa 0,0 l/m² 0,0 km/h (0 Bft) NW 309 ° 0 min 0 W/m² 3,4 °C 4,6 °C 0,0 km/h (0 Bft)
17.02.2024 21:08 21,7 °C 4,6 °C 52 % 92 % 1033,7 hPa 0,0 l/m² 0,0 km/h (0 Bft) NW 309 ° 0 min 0 W/m² 3,4 °C 4,6 °C 0,0 km/h (0 Bft)
17.02.2024 21:09 21,7 °C 4,6 °C 52 % 92 % 1033,7 hPa 0,0 l/m² 0,0 km/h (0 Bft) NW 309 ° 0 min 0 W/m² 3,4 °C 4,6 °C 0,0 km/h (0 Bft)
17.02.2024 21:10 21,7 °C 4,6 °C 52 % 92 % 1033,7 hPa 0,0 l/m² 0,0 km/h (0 Bft) NW 309 ° 0 min 0 W/m² 3,4 °C 4,6 °C 0,0 km/h (0 Bft)
17.02.2024 21:11 21,8 °C 4,6 °C 52 % 92 % 1033,6 hPa 0,0 l/m² 0,0 km/h (0 Bft) NW 309 ° 0 min 0 W/m² 3,4 °C 4,6 °C 0,0 km/h (0 Bft)
17.02.2024 21:12 21,8 °C 4,7 °C 52 % 93 % 1033,6 hPa 0,0 l/m² 0,0 km/h (0 Bft) NW 309 ° 0 min 0 W/m² 3,7 °C 4,7 °C 0,0 km/h (0 Bft)
17.02.2024 21:13 21,8 °C 4,7 °C 52 % 92 % 1033,7 hPa 0,0 l/m² 0,0 km/h (0 Bft) NW 309 ° 0 min 0 W/m² 3,5 °C 4,7 °C 0,0 km/h (0 Bft)
17.02.2024 21:14 21,8 °C 4,7 °C 52 % 93 % 1033,7 hPa 0,0 l/m² 0,0 km/h (0 Bft) NW 309 ° 0 min 0 W/m² 3,7 °C 4,7 °C 0,0 km/h (0 Bft)
17.02.2024 21:15 21,8 °C 4,7 °C 52 % 93 % 1033,7 hPa 0,0 l/m² 0,0 km/h (0 Bft) NW 309 ° 0 min 0 W/m² 3,7 °C 4,7 °C 0,0 km/h (0 Bft)
17.02.2024 21:16 21,8 °C 4,7 °C 52 % 93 % 1033,7 hPa 0,0 l/m² 0,0 km/h (0 Bft) NW 309 ° 0 min 0 W/m² 3,7 °C 4,7 °C 0,0 km/h (0 Bft)
17.02.2024 21:17 21,8 °C 4,7 °C 52 % 92 % 1033,7 hPa 0,0 l/m² 0,0 km/h (0 Bft) NW 309 ° 0 min 0 W/m² 3,5 °C 4,7 °C 0,0 km/h (0 Bft)
17.02.2024 21:18 21,8 °C 4,6 °C 52 % 92 % 1033,7 hPa 0,0 l/m² 0,0 km/h (0 Bft) NW 309 ° 0 min 0 W/m² 3,4 °C 4,6 °C 0,0 km/h (0 Bft)
17.02.2024 21:19 21,8 °C 4,6 °C 52 % 92 % 1033,6 hPa 0,0 l/m² 0,1 km/h (0 Bft) NW 309 ° 0 min 0 W/m² 3,4 °C 4,6 °C 1,6 km/h (1 Bft)
17.02.2024 21:20 21,8 °C 4,6 °C 52 % 92 % 1033,6 hPa 0,0 l/m² 0,9 km/h (0 Bft) NW 309 ° 0 min 0 W/m² 3,4 °C 4,6 °C 1,6 km/h (1 Bft)
17.02.2024 21:21 21,8 °C 4,4 °C 52 % 92 % 1033,6 hPa 0,0 l/m² 0,1 km/h (0 Bft) NW 309 ° 0 min 0 W/m² 3,2 °C 4,4 °C 1,6 km/h (1 Bft)
17.02.2024 21:22 21,8 °C 4,4 °C 52 % 92 % 1033,7 hPa 0,0 l/m² 2,1 km/h (1 Bft) NW 309 ° 0 min 0 W/m² 3,2 °C 4,4 °C 3,2 km/h (1 Bft)
17.02.2024 21:23 21,8 °C 4,4 °C 52 % 92 % 1033,6 hPa 0,0 l/m² 1,9 km/h (1 Bft) NW 309 ° 0 min 0 W/m² 3,2 °C 4,4 °C 3,2 km/h (1 Bft)
17.02.2024 21:24 21,8 °C 4,3 °C 52 % 92 % 1033,6 hPa 0,0 l/m² 1,9 km/h (1 Bft) NW 309 ° 0 min 0 W/m² 3,1 °C 4,3 °C 3,2 km/h (1 Bft)
17.02.2024 21:25 21,8 °C 4,3 °C 52 % 92 % 1033,6 hPa 0,0 l/m² 1,9 km/h (1 Bft) NW 309 ° 0 min 0 W/m² 3,1 °C 4,3 °C 3,2 km/h (1 Bft)
17.02.2024 21:26 21,8 °C 4,3 °C 52 % 92 % 1033,7 hPa 0,0 l/m² 1,7 km/h (1 Bft) NW 309 ° 0 min 0 W/m² 3,1 °C 4,3 °C 3,2 km/h (1 Bft)
17.02.2024 21:27 21,8 °C 4,3 °C 52 % 92 % 1033,7 hPa 0,0 l/m² 0,5 km/h (0 Bft) NW 309 ° 0 min 0 W/m² 3,1 °C 4,3 °C 1,6 km/h (1 Bft)
17.02.2024 21:28 21,8 °C 4,2 °C 52 % 92 % 1033,6 hPa 0,0 l/m² 0,0 km/h (0 Bft) NW 309 ° 0 min 0 W/m² 3,0 °C 4,2 °C 0,0 km/h (0 Bft)
17.02.2024 21:29 21,7 °C 4,2 °C 52 % 92 % 1033,7 hPa 0,0 l/m² 0,0 km/h (0 Bft) NW 309 ° 0 min 0 W/m² 3,0 °C 4,2 °C 0,0 km/h (0 Bft)
17.02.2024 21:30 21,8 °C 4,2 °C 52 % 92 % 1033,7 hPa 0,0 l/m² 0,0 km/h (0 Bft) NW 309 ° 0 min 0 W/m² 3,0 °C 4,2 °C 0,0 km/h (0 Bft)
17.02.2024 21:31 21,8 °C 4,1 °C 52 % 92 % 1033,7 hPa 0,0 l/m² 0,0 km/h (0 Bft) NW 309 ° 0 min 0 W/m² 2,9 °C 4,1 °C 0,0 km/h (0 Bft)
17.02.2024 21:32 21,8 °C 3,9 °C 52 % 92 % 1033,7 hPa 0,0 l/m² 0,0 km/h (0 Bft) NW 309 ° 0 min 0 W/m² 2,7 °C 3,9 °C 0,0 km/h (0 Bft)
17.02.2024 21:33 21,8 °C 3,8 °C 52 % 91 % 1033,7 hPa 0,0 l/m² 0,0 km/h (0 Bft) NW 309 ° 0 min 0 W/m² 2,5 °C 3,8 °C 0,0 km/h (0 Bft)
17.02.2024 21:34 21,8 °C 3,7 °C 52 % 92 % 1033,7 hPa 0,0 l/m² 0,0 km/h (0 Bft) NW 309 ° 0 min 0 W/m² 2,5 °C 3,7 °C 0,0 km/h (0 Bft)
17.02.2024 21:35 21,8 °C 3,7 °C 52 % 92 % 1033,7 hPa 0,0 l/m² 0,0 km/h (0 Bft) NW 309 ° 0 min 0 W/m² 2,5 °C 3,7 °C 0,0 km/h (0 Bft)
17.02.2024 21:36 21,8 °C 3,7 °C 52 % 92 % 1033,7 hPa 0,0 l/m² 0,0 km/h (0 Bft) NW 309 ° 0 min 0 W/m² 2,5 °C 3,7 °C 0,0 km/h (0 Bft)
17.02.2024 21:37 21,7 °C 3,7 °C 52 % 92 % 1033,7 hPa 0,0 l/m² 0,0 km/h (0 Bft) NW 309 ° 0 min 0 W/m² 2,5 °C 3,7 °C 0,0 km/h (0 Bft)
17.02.2024 21:38 21,8 °C 3,8 °C 52 % 92 % 1033,7 hPa 0,0 l/m² 0,0 km/h (0 Bft) NW 309 ° 0 min 0 W/m² 2,6 °C 3,8 °C 0,0 km/h (0 Bft)
17.02.2024 21:39 21,7 °C 3,8 °C 52 % 92 % 1033,7 hPa 0,0 l/m² 0,0 km/h (0 Bft) NW 309 ° 0 min 0 W/m² 2,6 °C 3,8 °C 0,0 km/h (0 Bft)
17.02.2024 21:40 21,7 °C 3,8 °C 52 % 92 % 1033,8 hPa 0,0 l/m² 0,0 km/h (0 Bft) NW 309 ° 0 min 0 W/m² 2,6 °C 3,8 °C 0,0 km/h (0 Bft)
17.02.2024 21:41 21,7 °C 3,9 °C 52 % 92 % 1033,6 hPa 0,0 l/m² 0,3 km/h (0 Bft) NW 309 ° 0 min 0 W/m² 2,7 °C 3,9 °C 1,6 km/h (1 Bft)
17.02.2024 21:42 21,7 °C 3,9 °C 52 % 93 % 1033,7 hPa 0,0 l/m² 0,7 km/h (0 Bft) NW 309 ° 0 min 0 W/m² 2,9 °C 3,9 °C 1,6 km/h (1 Bft)
17.02.2024 21:43 21,7 °C 3,9 °C 52 % 92 % 1033,7 hPa 0,0 l/m² 0,0 km/h (0 Bft) NW 309 ° 0 min 0 W/m² 2,7 °C 3,9 °C 0,0 km/h (0 Bft)
17.02.2024 21:45 21,7 °C 3,9 °C 52 % 92 % 1033,7 hPa 0,0 l/m² 0,0 km/h (0 Bft) NW 309 ° 0 min 0 W/m² 2,7 °C 3,9 °C 0,0 km/h (0 Bft)
17.02.2024 21:46 21,7 °C 3,9 °C 52 % 92 % 1033,7 hPa 0,0 l/m² 0,0 km/h (0 Bft) NW 309 ° 0 min 0 W/m² 2,7 °C 3,9 °C 0,0 km/h (0 Bft)
17.02.2024 21:47 21,7 °C 3,8 °C 52 % 92 % 1033,8 hPa 0,0 l/m² 0,0 km/h (0 Bft) NW 309 ° 0 min 0 W/m² 2,6 °C 3,8 °C 0,0 km/h (0 Bft)
17.02.2024 21:48 21,7 °C 3,8 °C 52 % 92 % 1033,7 hPa 0,0 l/m² 2,6 km/h (1 Bft) NW 309 ° 0 min 0 W/m² 2,6 °C 3,8 °C 4,8 km/h (1 Bft)
17.02.2024 21:49 21,7 °C 3,8 °C 52 % 92 % 1033,7 hPa 0,0 l/m² 2,1 km/h (1 Bft) NW 309 ° 0 min 0 W/m² 2,6 °C 3,8 °C 3,2 km/h (1 Bft)
17.02.2024 21:50 21,7 °C 3,8 °C 52 % 92 % 1033,7 hPa 0,0 l/m² 2,4 km/h (1 Bft) NW 309 ° 0 min 0 W/m² 2,6 °C 3,8 °C 3,2 km/h (1 Bft)
17.02.2024 21:51 21,7 °C 3,8 °C 52 % 92 % 1033,7 hPa 0,0 l/m² 1,4 km/h (1 Bft) NW 309 ° 0 min 0 W/m² 2,6 °C 3,8 °C 3,2 km/h (1 Bft)
17.02.2024 21:52 21,7 °C 3,7 °C 52 % 92 % 1033,7 hPa 0,0 l/m² 0,0 km/h (0 Bft) NW 309 ° 0 min 0 W/m² 2,5 °C 3,7 °C 0,0 km/h (0 Bft)
17.02.2024 21:53 21,7 °C 3,8 °C 52 % 92 % 1033,8 hPa 0,0 l/m² 0,0 km/h (0 Bft) NW 309 ° 0 min 0 W/m² 2,6 °C 3,8 °C 0,0 km/h (0 Bft)
17.02.2024 21:54 21,7 °C 3,7 °C 52 % 92 % 1033,7 hPa 0,0 l/m² 0,0 km/h (0 Bft) NW 309 ° 0 min 0 W/m² 2,5 °C 3,7 °C 0,0 km/h (0 Bft)
17.02.2024 21:55 21,7 °C 3,6 °C 52 % 92 % 1033,7 hPa 0,0 l/m² 0,0 km/h (0 Bft) NW 309 ° 0 min 0 W/m² 2,4 °C 3,6 °C 0,0 km/h (0 Bft)
17.02.2024 21:56 21,7 °C 3,6 °C 52 % 92 % 1033,7 hPa 0,0 l/m² 0,0 km/h (0 Bft) NW 309 ° 0 min 0 W/m² 2,4 °C 3,6 °C 0,0 km/h (0 Bft)
17.02.2024 21:57 21,7 °C 3,6 °C 52 % 92 % 1033,8 hPa 0,0 l/m² 0,0 km/h (0 Bft) NW 309 ° 0 min 0 W/m² 2,4 °C 3,6 °C 0,0 km/h (0 Bft)
17.02.2024 21:58 21,7 °C 3,5 °C 52 % 92 % 1033,8 hPa 0,0 l/m² 0,0 km/h (0 Bft) NW 309 ° 0 min 0 W/m² 2,3 °C 3,5 °C 0,0 km/h (0 Bft)
17.02.2024 21:59 21,7 °C 3,6 °C 52 % 92 % 1033,7 hPa 0,0 l/m² 0,0 km/h (0 Bft) NW 309 ° 0 min 0 W/m² 2,4 °C 3,6 °C 0,0 km/h (0 Bft)
17.02.2024 22:00 21,7 °C 3,6 °C 52 % 92 % 1033,8 hPa 0,0 l/m² 0,0 km/h (0 Bft) NW 309 ° 0 min 0 W/m² 2,4 °C 3,6 °C 0,0 km/h (0 Bft)
17.02.2024 22:01 21,7 °C 3,5 °C 52 % 92 % 1033,7 hPa 0,0 l/m² 0,0 km/h (0 Bft) NW 309 ° 0 min 0 W/m² 2,3 °C 3,5 °C 0,0 km/h (0 Bft)
17.02.2024 22:02 21,7 °C 3,4 °C 52 % 92 % 1033,8 hPa 0,0 l/m² 0,0 km/h (0 Bft) NW 309 ° 0 min 0 W/m² 2,2 °C 3,4 °C 0,0 km/h (0 Bft)
17.02.2024 22:03 21,7 °C 3,4 °C 52 % 92 % 1033,8 hPa 0,0 l/m² 0,0 km/h (0 Bft) NW 309 ° 0 min 0 W/m² 2,2 °C 3,4 °C 0,0 km/h (0 Bft)
17.02.2024 22:04 21,7 °C 3,3 °C 52 % 92 % 1033,8 hPa 0,0 l/m² 0,0 km/h (0 Bft) NW 309 ° 0 min 0 W/m² 2,1 °C 3,3 °C 0,0 km/h (0 Bft)
17.02.2024 22:05 21,7 °C 3,3 °C 52 % 92 % 1033,8 hPa 0,0 l/m² 0,0 km/h (0 Bft) NW 309 ° 0 min 0 W/m² 2,1 °C 3,3 °C 0,0 km/h (0 Bft)
17.02.2024 22:06 21,7 °C 3,2 °C 52 % 92 % 1033,8 hPa 0,0 l/m² 0,0 km/h (0 Bft) NW 309 ° 0 min 0 W/m² 2,0 °C 3,2 °C 0,0 km/h (0 Bft)
17.02.2024 22:07 21,7 °C 3,2 °C 52 % 92 % 1033,8 hPa 0,0 l/m² 0,0 km/h (0 Bft) NW 309 ° 0 min 0 W/m² 2,0 °C 3,2 °C 0,0 km/h (0 Bft)
17.02.2024 22:08 21,7 °C 3,2 °C 52 % 92 % 1033,8 hPa 0,0 l/m² 0,0 km/h (0 Bft) NW 309 ° 0 min 0 W/m² 2,0 °C 3,2 °C 0,0 km/h (0 Bft)
17.02.2024 22:09 21,7 °C 3,2 °C 52 % 92 % 1033,9 hPa 0,0 l/m² 0,0 km/h (0 Bft) NW 309 ° 0 min 0 W/m² 2,0 °C 3,2 °C 0,0 km/h (0 Bft)
17.02.2024 22:10 21,7 °C 3,2 °C 52 % 92 % 1033,8 hPa 0,0 l/m² 0,0 km/h (0 Bft) NW 309 ° 0 min 0 W/m² 2,0 °C 3,2 °C 0,0 km/h (0 Bft)
17.02.2024 22:11 21,7 °C 3,2 °C 52 % 92 % 1033,8 hPa 0,0 l/m² 0,0 km/h (0 Bft) NW 309 ° 0 min 0 W/m² 2,0 °C 3,2 °C 0,0 km/h (0 Bft)
17.02.2024 22:12 21,7 °C 3,3 °C 52 % 93 % 1033,9 hPa 0,0 l/m² 0,0 km/h (0 Bft) NW 309 ° 0 min 0 W/m² 2,3 °C 3,3 °C 0,0 km/h (0 Bft)
17.02.2024 22:13 21,7 °C 3,3 °C 52 % 93 % 1033,8 hPa 0,0 l/m² 0,0 km/h (0 Bft) NW 309 ° 0 min 0 W/m² 2,3 °C 3,3 °C 0,0 km/h (0 Bft)
17.02.2024 22:14 21,7 °C 3,4 °C 52 % 93 % 1033,8 hPa 0,0 l/m² 0,0 km/h (0 Bft) NW 309 ° 0 min 0 W/m² 2,4 °C 3,4 °C 0,0 km/h (0 Bft)
17.02.2024 22:15 21,7 °C 3,4 °C 52 % 93 % 1033,9 hPa 0,0 l/m² 0,2 km/h (0 Bft) NW 309 ° 0 min 0 W/m² 2,4 °C 3,4 °C 3,2 km/h (1 Bft)
17.02.2024 22:16 21,7 °C 3,4 °C 52 % 93 % 1033,9 hPa 0,0 l/m² 1,9 km/h (1 Bft) NW 309 ° 0 min 0 W/m² 2,4 °C 3,4 °C 3,2 km/h (1 Bft)
17.02.2024 22:17 21,7 °C 3,4 °C 52 % 93 % 1033,8 hPa 0,0 l/m² 2,1 km/h (1 Bft) NW 309 ° 0 min 0 W/m² 2,4 °C 3,4 °C 3,2 km/h (1 Bft)
17.02.2024 22:18 21,7 °C 3,5 °C 52 % 93 % 1033,9 hPa 0,0 l/m² 1,7 km/h (1 Bft) NW 309 ° 0 min 0 W/m² 2,5 °C 3,5 °C 3,2 km/h (1 Bft)
17.02.2024 22:19 21,7 °C 3,5 °C 52 % 92 % 1033,9 hPa 0,0 l/m² 2,1 km/h (1 Bft) NW 309 ° 0 min 0 W/m² 2,3 °C 3,5 °C 3,2 km/h (1 Bft)
17.02.2024 22:20 21,7 °C 3,6 °C 52 % 93 % 1034,0 hPa 0,0 l/m² 2,7 km/h (1 Bft) NW 309 ° 0 min 0 W/m² 2,6 °C 3,6 °C 3,2 km/h (1 Bft)
17.02.2024 22:21 21,7 °C 3,6 °C 52 % 93 % 1034,0 hPa 0,0 l/m² 0,0 km/h (0 Bft) NW 309 ° 0 min 0 W/m² 2,6 °C 3,6 °C 0,0 km/h (0 Bft)
17.02.2024 22:22 21,7 °C 3,6 °C 52 % 93 % 1034,0 hPa 0,0 l/m² 0,3 km/h (0 Bft) NW 309 ° 0 min 0 W/m² 2,6 °C 3,6 °C 3,2 km/h (1 Bft)
17.02.2024 22:23 21,7 °C 3,6 °C 52 % 92 % 1034,1 hPa 0,0 l/m² 2,1 km/h (1 Bft) NW 309 ° 0 min 0 W/m² 2,4 °C 3,6 °C 3,2 km/h (1 Bft)
17.02.2024 22:24 21,7 °C 3,6 °C 52 % 92 % 1034,1 hPa 0,0 l/m² 1,0 km/h (0 Bft) NW 309 ° 0 min 0 W/m² 2,4 °C 3,6 °C 3,2 km/h (1 Bft)
17.02.2024 22:25 21,7 °C 3,6 °C 52 % 93 % 1034,1 hPa 0,0 l/m² 0,4 km/h (0 Bft) NW 309 ° 0 min 0 W/m² 2,6 °C 3,6 °C 3,2 km/h (1 Bft)
17.02.2024 22:26 21,7 °C 3,5 °C 52 % 92 % 1034,1 hPa 0,0 l/m² 1,3 km/h (1 Bft) W-NW 290 ° 0 min 0 W/m² 2,3 °C 3,5 °C 3,2 km/h (1 Bft)
17.02.2024 22:27 21,7 °C 3,4 °C 52 % 92 % 1034,1 hPa 0,0 l/m² 0,3 km/h (0 Bft) W-NW 290 ° 0 min 0 W/m² 2,2 °C 3,4 °C 1,6 km/h (1 Bft)
17.02.2024 22:28 21,7 °C 3,4 °C 52 % 92 % 1034,1 hPa 0,0 l/m² 0,1 km/h (0 Bft) W-NW 290 ° 0 min 0 W/m² 2,2 °C 3,4 °C 1,6 km/h (1 Bft)
17.02.2024 22:29 21,7 °C 3,4 °C 52 % 92 % 1034,1 hPa 0,0 l/m² 0,0 km/h (0 Bft) W-NW 290 ° 0 min 0 W/m² 2,2 °C 3,4 °C 0,0 km/h (0 Bft)
17.02.2024 22:30 21,7 °C 3,4 °C 52 % 92 % 1034,1 hPa 0,0 l/m² 0,0 km/h (0 Bft) W-NW 290 ° 0 min 0 W/m² 2,2 °C 3,4 °C 0,0 km/h (0 Bft)
17.02.2024 22:31 21,7 °C 3,4 °C 52 % 92 % 1034,1 hPa 0,0 l/m² 0,0 km/h (0 Bft) W-NW 290 ° 0 min 0 W/m² 2,2 °C 3,4 °C 0,0 km/h (0 Bft)
17.02.2024 22:32 21,7 °C 3,3 °C 52 % 92 % 1034,2 hPa 0,0 l/m² 0,0 km/h (0 Bft) W-NW 290 ° 0 min 0 W/m² 2,1 °C 3,3 °C 0,0 km/h (0 Bft)
17.02.2024 22:33 21,7 °C 3,3 °C 52 % 92 % 1034,1 hPa 0,0 l/m² 0,0 km/h (0 Bft) W-NW 290 ° 0 min 0 W/m² 2,1 °C 3,3 °C 0,0 km/h (0 Bft)
17.02.2024 22:34 21,7 °C 3,2 °C 52 % 92 % 1034,1 hPa 0,0 l/m² 0,9 km/h (0 Bft) SW 236 ° 0 min 0 W/m² 2,0 °C 3,2 °C 1,6 km/h (1 Bft)
17.02.2024 22:35 21,7 °C 3,1 °C 52 % 92 % 1034,2 hPa 0,0 l/m² 0,5 km/h (0 Bft) SW 236 ° 0 min 0 W/m² 1,9 °C 3,1 °C 1,6 km/h (1 Bft)
17.02.2024 22:36 21,7 °C 3,1 °C 52 % 92 % 1034,1 hPa 0,0 l/m² 0,0 km/h (0 Bft) SW 236 ° 0 min 0 W/m² 1,9 °C 3,1 °C 0,0 km/h (0 Bft)
17.02.2024 22:37 21,7 °C 3,0 °C 52 % 92 % 1034,2 hPa 0,0 l/m² 0,0 km/h (0 Bft) SW 236 ° 0 min 0 W/m² 1,8 °C 3,0 °C 0,0 km/h (0 Bft)
17.02.2024 22:38 21,7 °C 2,9 °C 52 % 92 % 1034,2 hPa 0,0 l/m² 0,0 km/h (0 Bft) SW 236 ° 0 min 0 W/m² 1,7 °C 2,9 °C 0,0 km/h (0 Bft)
17.02.2024 22:39 21,7 °C 2,9 °C 52 % 92 % 1034,2 hPa 0,0 l/m² 0,0 km/h (0 Bft) SW 236 ° 0 min 0 W/m² 1,7 °C 2,9 °C 0,0 km/h (0 Bft)
17.02.2024 22:40 21,7 °C 2,9 °C 52 % 92 % 1034,1 hPa 0,0 l/m² 0,0 km/h (0 Bft) SW 236 ° 0 min 0 W/m² 1,7 °C 2,9 °C 0,0 km/h (0 Bft)
17.02.2024 22:41 21,7 °C 2,9 °C 52 % 92 % 1034,1 hPa 0,0 l/m² 0,0 km/h (0 Bft) SW 236 ° 0 min 0 W/m² 1,7 °C 2,9 °C 0,0 km/h (0 Bft)
17.02.2024 22:42 21,7 °C 2,9 °C 52 % 92 % 1034,1 hPa 0,0 l/m² 0,0 km/h (0 Bft) SW 236 ° 0 min 0 W/m² 1,7 °C 2,9 °C 0,0 km/h (0 Bft)
17.02.2024 22:43 21,7 °C 2,9 °C 52 % 92 % 1034,2 hPa 0,0 l/m² 0,0 km/h (0 Bft) SW 236 ° 0 min 0 W/m² 1,7 °C 2,9 °C 0,0 km/h (0 Bft)
17.02.2024 22:44 21,7 °C 2,9 °C 52 % 92 % 1034,1 hPa 0,0 l/m² 0,0 km/h (0 Bft) SW 236 ° 0 min 0 W/m² 1,7 °C 2,9 °C 0,0 km/h (0 Bft)
17.02.2024 22:45 21,7 °C 2,9 °C 52 % 92 % 1034,2 hPa 0,0 l/m² 0,0 km/h (0 Bft) SW 236 ° 0 min 0 W/m² 1,7 °C 2,9 °C 0,0 km/h (0 Bft)
17.02.2024 22:46 21,7 °C 2,9 °C 52 % 92 % 1034,1 hPa 0,0 l/m² 0,0 km/h (0 Bft) SW 236 ° 0 min 0 W/m² 1,7 °C 2,9 °C 0,0 km/h (0 Bft)
17.02.2024 22:47 21,7 °C 2,9 °C 52 % 92 % 1034,1 hPa 0,0 l/m² 0,0 km/h (0 Bft) SW 236 ° 0 min 0 W/m² 1,7 °C 2,9 °C 0,0 km/h (0 Bft)
17.02.2024 22:48 21,7 °C 3,0 °C 52 % 92 % 1034,2 hPa 0,0 l/m² 0,0 km/h (0 Bft) SW 236 ° 0 min 0 W/m² 1,8 °C 3,0 °C 0,0 km/h (0 Bft)
17.02.2024 22:49 21,7 °C 2,9 °C 52 % 92 % 1034,2 hPa 0,0 l/m² 0,0 km/h (0 Bft) SW 236 ° 0 min 0 W/m² 1,7 °C 2,9 °C 0,0 km/h (0 Bft)
17.02.2024 22:50 21,7 °C 2,9 °C 52 % 92 % 1034,2 hPa 0,0 l/m² 0,0 km/h (0 Bft) SW 236 ° 0 min 0 W/m² 1,7 °C 2,9 °C 0,0 km/h (0 Bft)
17.02.2024 22:51 21,7 °C 3,0 °C 52 % 92 % 1034,2 hPa 0,0 l/m² 0,0 km/h (0 Bft) SW 236 ° 0 min 0 W/m² 1,8 °C 3,0 °C 0,0 km/h (0 Bft)
17.02.2024 22:52 21,7 °C 3,0 °C 52 % 92 % 1034,2 hPa 0,0 l/m² 0,0 km/h (0 Bft) SW 236 ° 0 min 0 W/m² 1,8 °C 3,0 °C 0,0 km/h (0 Bft)
17.02.2024 22:53 21,7 °C 3,0 °C 52 % 93 % 1034,2 hPa 0,0 l/m² 0,0 km/h (0 Bft) SW 236 ° 0 min 0 W/m² 2,0 °C 3,0 °C 0,0 km/h (0 Bft)
17.02.2024 22:54 21,7 °C 3,0 °C 52 % 92 % 1034,2 hPa 0,0 l/m² 0,0 km/h (0 Bft) SW 236 ° 0 min 0 W/m² 1,8 °C 3,0 °C 0,0 km/h (0 Bft)
17.02.2024 22:55 21,7 °C 3,0 °C 52 % 93 % 1034,1 hPa 0,0 l/m² 0,0 km/h (0 Bft) SW 236 ° 0 min 0 W/m² 2,0 °C 3,0 °C 0,0 km/h (0 Bft)
17.02.2024 22:56 21,7 °C 3,0 °C 52 % 93 % 1034,2 hPa 0,0 l/m² 0,0 km/h (0 Bft) SW 236 ° 0 min 0 W/m² 2,0 °C 3,0 °C 0,0 km/h (0 Bft)
17.02.2024 22:57 21,7 °C 3,1 °C 52 % 93 % 1034,1 hPa 0,0 l/m² 0,0 km/h (0 Bft) SW 236 ° 0 min 0 W/m² 2,1 °C 3,1 °C 0,0 km/h (0 Bft)
17.02.2024 22:58 21,7 °C 3,1 °C 52 % 93 % 1034,2 hPa 0,0 l/m² 0,0 km/h (0 Bft) SW 236 ° 0 min 0 W/m² 2,1 °C 3,1 °C 0,0 km/h (0 Bft)
17.02.2024 22:59 21,7 °C 3,1 °C 52 % 93 % 1034,2 hPa 0,0 l/m² 0,0 km/h (0 Bft) SW 236 ° 0 min 0 W/m² 2,1 °C 3,1 °C 0,0 km/h (0 Bft)
17.02.2024 23:00 21,7 °C 3,1 °C 52 % 93 % 1034,2 hPa 0,0 l/m² 0,0 km/h (0 Bft) SW 236 ° 0 min 0 W/m² 2,1 °C 3,1 °C 0,0 km/h (0 Bft)
17.02.2024 23:01 21,7 °C 3,1 °C 52 % 93 % 1034,1 hPa 0,0 l/m² 0,0 km/h (0 Bft) SW 236 ° 0 min 0 W/m² 2,1 °C 3,1 °C 0,0 km/h (0 Bft)
17.02.2024 23:02 21,7 °C 3,1 °C 52 % 93 % 1034,1 hPa 0,0 l/m² 0,3 km/h (0 Bft) SW 236 ° 0 min 0 W/m² 2,1 °C 3,1 °C 1,6 km/h (1 Bft)
17.02.2024 23:03 21,7 °C 3,1 °C 52 % 92 % 1034,0 hPa 0,0 l/m² 0,1 km/h (0 Bft) SW 236 ° 0 min 0 W/m² 1,9 °C 3,1 °C 1,6 km/h (1 Bft)
17.02.2024 23:04 21,7 °C 3,1 °C 52 % 92 % 1034,1 hPa 0,0 l/m² 0,2 km/h (0 Bft) SW 236 ° 0 min 0 W/m² 1,9 °C 3,1 °C 1,6 km/h (1 Bft)
17.02.2024 23:05 21,7 °C 3,1 °C 52 % 93 % 1034,1 hPa 0,0 l/m² 0,0 km/h (0 Bft) SW 236 ° 0 min 0 W/m² 2,1 °C 3,1 °C 0,0 km/h (0 Bft)
17.02.2024 23:06 21,7 °C 3,1 °C 52 % 93 % 1034,1 hPa 0,0 l/m² 0,0 km/h (0 Bft) SW 236 ° 0 min 0 W/m² 2,1 °C 3,1 °C 0,0 km/h (0 Bft)
17.02.2024 23:07 21,7 °C 3,1 °C 52 % 93 % 1034,1 hPa 0,0 l/m² 0,1 km/h (0 Bft) SW 236 ° 0 min 0 W/m² 2,1 °C 3,1 °C 1,6 km/h (1 Bft)
17.02.2024 23:08 21,7 °C 3,1 °C 52 % 93 % 1034,2 hPa 0,0 l/m² 0,0 km/h (0 Bft) SW 236 ° 0 min 0 W/m² 2,1 °C 3,1 °C 0,0 km/h (0 Bft)
17.02.2024 23:09 21,7 °C 3,1 °C 52 % 93 % 1034,1 hPa 0,0 l/m² 0,0 km/h (0 Bft) SW 236 ° 0 min 0 W/m² 2,1 °C 3,1 °C 0,0 km/h (0 Bft)
17.02.2024 23:10 21,7 °C 3,1 °C 52 % 93 % 1034,2 hPa 0,0 l/m² 0,0 km/h (0 Bft) SW 236 ° 0 min 0 W/m² 2,1 °C 3,1 °C 0,0 km/h (0 Bft)
17.02.2024 23:11 21,7 °C 3,1 °C 52 % 93 % 1034,2 hPa 0,0 l/m² 0,0 km/h (0 Bft) SW 236 ° 0 min 0 W/m² 2,1 °C 3,1 °C 0,0 km/h (0 Bft)
17.02.2024 23:12 21,7 °C 3,1 °C 53 % 93 % 1034,1 hPa 0,0 l/m² 0,0 km/h (0 Bft) SW 236 ° 0 min 0 W/m² 2,1 °C 3,1 °C 0,0 km/h (0 Bft)
17.02.2024 23:13 21,7 °C 3,1 °C 53 % 93 % 1034,2 hPa 0,0 l/m² 0,0 km/h (0 Bft) SW 236 ° 0 min 0 W/m² 2,1 °C 3,1 °C 0,0 km/h (0 Bft)
17.02.2024 23:14 21,7 °C 3,1 °C 53 % 93 % 1034,2 hPa 0,0 l/m² 0,0 km/h (0 Bft) SW 236 ° 0 min 0 W/m² 2,1 °C 3,1 °C 0,0 km/h (0 Bft)
17.02.2024 23:15 21,7 °C 3,1 °C 53 % 93 % 1034,2 hPa 0,0 l/m² 0,0 km/h (0 Bft) SW 236 ° 0 min 0 W/m² 2,1 °C 3,1 °C 0,0 km/h (0 Bft)
17.02.2024 23:16 21,7 °C 3,1 °C 53 % 92 % 1034,1 hPa 0,0 l/m² 0,0 km/h (0 Bft) N 0 ° 0 min 0 W/m² 1,9 °C 3,1 °C 0,0 km/h (0 Bft)
17.02.2024 23:17 21,7 °C 3,1 °C 53 % 92 % 1034,1 hPa 0,0 l/m² 0,0 km/h (0 Bft) N 0 ° 0 min 0 W/m² 1,9 °C 3,1 °C 0,0 km/h (0 Bft)
17.02.2024 23:18 21,7 °C 3,1 °C 53 % 93 % 1034,1 hPa 0,0 l/m² 0,0 km/h (0 Bft) N 0 ° 0 min 0 W/m² 2,1 °C 3,1 °C 0,0 km/h (0 Bft)
17.02.2024 23:19 21,7 °C 3,1 °C 53 % 92 % 1034,1 hPa 0,0 l/m² 0,0 km/h (0 Bft) N 0 ° 0 min 0 W/m² 1,9 °C 3,1 °C 0,0 km/h (0 Bft)
17.02.2024 23:20 21,7 °C 3,1 °C 53 % 92 % 1034,1 hPa 0,0 l/m² 0,0 km/h (0 Bft) N 0 ° 0 min 0 W/m² 1,9 °C 3,1 °C 0,0 km/h (0 Bft)
17.02.2024 23:21 21,7 °C 3,1 °C 53 % 93 % 1034,1 hPa 0,0 l/m² 0,0 km/h (0 Bft) N 0 ° 0 min 0 W/m² 2,1 °C 3,1 °C 0,0 km/h (0 Bft)
17.02.2024 23:26 21,6 °C 3,1 °C 53 % 93 % 1034,2 hPa 0,0 l/m² 0,0 km/h (0 Bft) SW 236 ° 0 min 0 W/m² 2,1 °C 3,1 °C 0,0 km/h (0 Bft)
17.02.2024 23:28 21,6 °C 3,0 °C 53 % 93 % 1034,2 hPa 0,0 l/m² 0,0 km/h (0 Bft) SW 236 ° 0 min 0 W/m² 2,0 °C 3,0 °C 0,0 km/h (0 Bft)
17.02.2024 23:29 21,6 °C 3,0 °C 53 % 93 % 1034,2 hPa 0,0 l/m² 0,0 km/h (0 Bft) SW 236 ° 0 min 0 W/m² 2,0 °C 3,0 °C 0,0 km/h (0 Bft)
17.02.2024 23:31 21,7 °C 2,9 °C 53 % 93 % 1034,2 hPa 0,0 l/m² 0,0 km/h (0 Bft) SW 236 ° 0 min 0 W/m² 1,9 °C 2,9 °C 0,0 km/h (0 Bft)
17.02.2024 23:32 21,7 °C 2,9 °C 53 % 93 % 1034,2 hPa 0,0 l/m² 0,0 km/h (0 Bft) SW 236 ° 0 min 0 W/m² 1,9 °C 2,9 °C 0,0 km/h (0 Bft)
17.02.2024 23:34 21,7 °C 2,9 °C 53 % 93 % 1034,2 hPa 0,0 l/m² 0,0 km/h (0 Bft) SW 236 ° 0 min 0 W/m² 1,9 °C 2,9 °C 0,0 km/h (0 Bft)
17.02.2024 23:36 21,7 °C 2,9 °C 54 % 93 % 1034,3 hPa 0,0 l/m² 0,0 km/h (0 Bft) SW 236 ° 0 min 0 W/m² 1,9 °C 2,9 °C 0,0 km/h (0 Bft)
17.02.2024 23:38 21,6 °C 2,9 °C 54 % 93 % 1034,3 hPa 0,0 l/m² 0,0 km/h (0 Bft) SW 236 ° 0 min 0 W/m² 1,9 °C 2,9 °C 0,0 km/h (0 Bft)
17.02.2024 23:40 21,6 °C 2,9 °C 54 % 92 % 1034,3 hPa 0,0 l/m² 0,0 km/h (0 Bft) SW 236 ° 0 min 0 W/m² 1,7 °C 2,9 °C 0,0 km/h (0 Bft)
17.02.2024 23:41 21,6 °C 2,8 °C 54 % 92 % 1034,3 hPa 0,0 l/m² 0,0 km/h (0 Bft) SW 236 ° 0 min 0 W/m² 1,6 °C 2,8 °C 0,0 km/h (0 Bft)
17.02.2024 23:42 21,6 °C 2,8 °C 54 % 92 % 1034,3 hPa 0,0 l/m² 0,0 km/h (0 Bft) SW 236 ° 0 min 0 W/m² 1,6 °C 2,8 °C 0,0 km/h (0 Bft)
17.02.2024 23:45 21,6 °C 2,8 °C 54 % 92 % 1034,2 hPa 0,0 l/m² 0,0 km/h (0 Bft) SW 236 ° 0 min 0 W/m² 1,6 °C 2,8 °C 0,0 km/h (0 Bft)
17.02.2024 23:47 21,6 °C 2,8 °C 54 % 92 % 1034,3 hPa 0,0 l/m² 0,0 km/h (0 Bft) SW 236 ° 0 min 0 W/m² 1,6 °C 2,8 °C 0,0 km/h (0 Bft)
17.02.2024 23:49 21,7 °C 2,8 °C 54 % 92 % 1034,1 hPa 0,0 l/m² 0,0 km/h (0 Bft) SW 236 ° 0 min 0 W/m² 1,6 °C 2,8 °C 0,0 km/h (0 Bft)
17.02.2024 23:50 21,7 °C 2,8 °C 54 % 92 % 1034,2 hPa 0,0 l/m² 0,0 km/h (0 Bft) SW 236 ° 0 min 0 W/m² 1,6 °C 2,8 °C 0,0 km/h (0 Bft)
17.02.2024 23:51 21,7 °C 2,7 °C 54 % 92 % 1034,2 hPa 0,0 l/m² 0,0 km/h (0 Bft) SW 236 ° 0 min 0 W/m² 1,5 °C 2,7 °C 0,0 km/h (0 Bft)
17.02.2024 23:52 21,7 °C 2,7 °C 54 % 92 % 1034,2 hPa 0,0 l/m² 0,0 km/h (0 Bft) SW 236 ° 0 min 0 W/m² 1,5 °C 2,7 °C 0,0 km/h (0 Bft)
17.02.2024 23:55 21,7 °C 2,7 °C 54 % 92 % 1034,2 hPa 0,0 l/m² 0,0 km/h (0 Bft) SW 236 ° 0 min 0 W/m² 1,5 °C 2,7 °C 0,0 km/h (0 Bft)
17.02.2024 23:57 21,7 °C 2,7 °C 54 % 92 % 1034,3 hPa 0,0 l/m² 0,0 km/h (0 Bft) SW 236 ° 0 min 0 W/m² 1,5 °C 2,7 °C 0,0 km/h (0 Bft)
17.02.2024 23:59 21,7 °C 2,6 °C 54 % 92 % 1034,3 hPa 0,0 l/m² 0,0 km/h (0 Bft) SW 236 ° 0 min 0 W/m² 1,4 °C 2,6 °C 0,0 km/h (0 Bft)
_ Min-Zeit 11:21 23:59 19:02 15:14 00:00 - 23:59 - - - - 23:59 23:59 23:59
Minimum _ 21,1 °C 2,6 °C 48 % 72 % 1019,9 hPa - 0,0 km/h (0 Bft) - - - - 1,4 °C 2,6 °C 0,0 km/h (0 Bft)
_ Max-Zeit 21:38 15:15 06:26 09:52 23:59 06:51 14:44 - - 15:45 12:44 00:04 15:46 14:44
Maximum _ 21,8 °C 12,6 °C 58 % 95 % 1034,3 hPa 0,2 l/m² 22,6 km/h
W (4 Bft)
- - 2 min 621 W/m² 10,7 °C 12,3 °C 30,6 km/h
W (5 Bft)
Durchschnitt _ 21,4 °C 8,6 °C 54 % 89 % 1027,9 hPa #1,4 l/m² 4,2 km/h (1 Bft) W-NW - #7:41 h 66 W/m² 6,8 °C 7,9 °C 7,3 km/h (2 Bft)
© 2009 Mathias Hoßbach